GFSSGP_850_spd_003.txt.gz
Wind_Speed
7 3 1 1 3 2 4 6 7 7 7 27 25 22 16 15 6 8 18 11 11 17 19 17 16 15 13 12 10 9 9 7 7 6 7 8 8 9 9 9 10 12 14 14 13 11 10 10 11
6 3 2 4 2 2 4 13 12 8 10 30 31 26 28 14 27 26 24 12 13 20 19 18 17 15 13 12 11 10 8 7 7 7 7 7 8 8 9 10 12 14 15 14 13 13 11 10 10
7 3 2 3 2 5 5 12 7 6 11 16 11 29 13 18 13 20 23 13 13 16 18 18 16 15 13 12 11 10 9 7 7 6 6 7 7 8 10 11 12 13 12 12 13 14 14 12 11
6 2 2 1 8 7 10 8 13 8 13 30 24 10 27 22 22 23 21 18 15 15 17 17 15 14 12 10 8 8 7 5 5 6 7 8 8 8 9 10 11 10 10 11 14 14 13 12 12
3 2 1 3 6 1 8 17 17 5 6 26 31 12 22 25 27 23 18 14 12 20 18 16 13 11 9 8 7 6 5 5 6 7 6 7 6 7 8 8 8 8 8 10 12 13 13 13 13
2 1 2 2 5 4 5 14 9 14 11 23 33 24 21 25 25 23 17 15 15 19 17 14 12 9 7 6 5 5 4 4 4 5 5 4 4 5 6 7 8 9 10 12 13 14 14 14 15
3 3 4 6 2 4 6 14 10 15 12 15 27 11 23 23 22 21 18 14 18 18 16 14 11 8 6 5 5 4 3 3 4 4 3 4 5 8 9 8 9 11 12 13 15 15 15 13 13
6 4 4 3 2 1 6 16 25 17 10 19 19 8 16 24 23 20 15 16 15 14 13 11 10 10 9 8 8 7 5 4 5 5 5 6 7 12 13 11 14 13 14 16 16 18 15 13 10
19 1 5 8 10 5 10 8 15 14 14 21 13 30 31 27 24 20 20 17 17 12 10 8 6 7 9 9 7 7 7 6 7 7 7 7 10 11 14 14 16 16 18 17 18 21 18 17 15
7 4 5 6 9 7 8 13 8 9 12 19 25 31 29 26 22 20 22 20 19 14 15 11 4 5 6 5 9 8 7 7 7 7 7 7 9 10 13 12 14 15 14 17 20 20 21 20 20
5 6 6 10 23 18 9 15 10 13 5 20 32 32 26 21 20 19 18 19 19 13 17 11 6 14 8 3 3 3 5 8 5 7 7 6 5 4 5 10 12 13 13 16 17 19 22 22 21
4 13 16 7 13 14 9 12 4 4 9 24 27 29 25 20 20 17 20 21 19 15 19 10 6 7 10 9 5 3 3 2 2 5 5 5 2 3 5 10 12 12 12 14 16 19 24 22 23
9 9 14 8 6 12 8 10 4 8 16 15 25 27 24 20 19 17 16 21 17 19 20 16 8 7 6 9 10 11 9 5 2 3 2 4 5 7 10 13 15 15 12 14 16 19 22 22 24
11 15 14 8 4 3 1 3 4 6 16 15 24 28 24 22 21 20 16 20 16 20 22 16 8 2 2 11 11 8 11 4 1 2 5 7 9 8 10 14 15 16 14 16 20 23 24 22 25
15 6 8 8 13 6 6 4 7 14 17 18 13 20 22 21 23 23 20 18 13 19 28 22 11 8 6 7 5 9 4 3 3 5 8 12 12 10 13 14 14 15 16 18 23 26 25 25 24
4 5 5 6 13 9 11 7 7 16 12 18 21 18 15 23 23 24 20 18 15 16 22 22 19 11 14 10 7 10 6 0 2 6 5 7 5 5 10 11 16 16 17 21 25 25 24 25 25
2 5 5 6 17 6 5 3 16 20 18 13 15 22 18 14 22 25 19 18 15 12 15 16 7 13 16 15 12 8 4 2 4 7 7 6 7 10 11 14 21 21 21 21 20 19 21 23 27
5 6 7 8 5 4 4 1 4 11 10 11 6 3 14 22 20 16 15 13 11 8 7 10 5 6 12 16 12 9 8 8 7 8 7 10 14 16 20 23 29 24 22 24 25 25 24 26 26
5 5 12 5 5 2 4 6 8 23 26 31 29 37 37 32 22 21 21 14 9 10 16 17 11 15 20 17 14 12 12 9 9 11 17 23 22 28 32 27 27 21 21 22 23 25 27 23 25
4 6 6 3 4 3 1 5 9 20 17 26 32 34 32 28 26 22 15 18 18 19 18 18 18 14 14 11 10 10 11 11 17 19 14 15 22 23 25 22 20 19 20 25 27 27 25 27 25
7 5 5 3 6 6 2 3 9 10 25 33 34 30 25 23 21 16 13 14 16 13 9 7 7 8 8 4 6 9 11 10 11 14 20 27 21 16 13 12 14 15 18 21 23 27 29 31 33
4 6 5 6 3 3 5 2 6 14 15 21 30 32 31 28 21 16 11 9 9 11 6 4 5 6 5 7 12 11 12 15 17 19 18 11 15 14 11 14 17 20 23 25 26 30 33 30 30
3 0 3 3 4 3 7 5 1 14 12 10 19 20 20 18 16 12 8 7 6 6 8 9 10 14 16 18 17 18 14 16 12 11 12 13 12 12 16 23 29 28 29 30 31 32 28 26 24
5 4 5 3 2 2 6 5 2 5 8 5 19 21 15 10 5 3 6 4 6 11 10 10 10 10 15 17 21 19 19 13 12 16 16 16 18 23 29 27 22 20 24 25 25 26 27 30 30
4 5 3 4 4 3 5 6 2 6 6 11 16 20 14 13 13 14 10 3 4 7 9 8 12 16 17 15 10 14 14 14 14 13 15 21 26 25 22 19 18 23 22 22 22 23 26 26 27
5 4 4 1 1 4 8 4 2 11 22 18 14 10 12 11 7 4 3 7 10 11 11 11 13 17 14 9 14 15 13 11 8 14 26 25 16 12 14 20 23 25 26 22 24 24 25 24 29
4 5 2 5 4 3 2 4 4 9 9 16 9 4 18 17 13 10 10 11 7 5 9 9 10 7 9 9 12 12 9 13 28 25 18 13 10 15 19 24 31 25 24 26 27 28 26 26 26
5 2 6 4 2 2 1 2 4 3 4 7 9 16 13 15 10 6 9 4 6 10 11 11 11 12 10 12 13 15 23 33 21 13 14 11 16 18 27 27 25 25 26 25 22 23 24 24 22
5 3 4 3 4 4 1 4 4 7 7 7 15 22 23 20 14 9 10 13 13 14 16 18 20 20 21 25 27 32 31 17 13 18 19 20 26 29 28 23 24 24 24 23 25 25 25 25 24
2 3 4 4 3 1 4 5 3 8 17 17 20 17 16 14 13 13 12 12 16 20 26 28 19 21 26 29 31 29 25 19 23 30 26 24 25 22 17 20 23 23 23 24 23 23 24 22 16

GFSSGP_850_spd_006.txt.gz
Wind_Speed
1 2 3 1 2 2 3 4 3 15 6 19 22 15 10 13 2 6 23 16 16 19 20 18 16 15 13 12 11 11 10 10 9 8 8 8 8 10 10 11 12 13 14 12 12 11 9 8 9
7 6 4 2 3 2 3 1 17 13 14 21 25 24 20 7 19 25 23 17 16 21 20 18 16 15 13 13 11 10 10 9 9 7 7 7 8 9 10 11 12 13 12 12 13 13 13 11 10
10 7 3 3 3 5 3 3 17 19 13 7 7 15 8 14 19 14 21 17 21 21 20 18 17 15 13 12 11 10 10 8 7 7 6 7 8 8 9 10 11 11 11 12 14 14 13 12 11
6 4 1 2 5 7 8 6 18 22 24 19 18 8 12 16 23 22 21 20 19 22 20 18 15 14 12 11 10 9 7 6 6 6 6 7 8 8 9 10 11 10 10 11 12 13 13 12 11
5 4 3 2 6 4 3 8 15 9 13 21 26 6 11 19 22 23 21 17 20 23 19 17 14 12 10 9 8 7 6 5 5 6 6 7 7 8 9 10 10 10 9 10 10 11 11 9 9
1 3 2 3 2 10 6 13 16 21 30 26 28 19 12 26 24 23 18 19 21 22 19 16 12 9 8 7 6 5 4 3 4 5 7 7 8 9 10 10 9 10 10 11 12 11 11 10 9
5 3 4 4 5 4 3 12 5 15 12 7 18 7 19 25 23 24 19 20 19 18 16 14 11 9 6 5 5 4 4 4 4 5 6 7 9 9 10 10 10 11 12 12 12 15 11 11 9
2 2 2 2 10 4 7 14 23 19 8 24 24 7 18 27 24 21 17 17 18 17 14 13 11 9 8 8 7 6 7 7 7 7 6 8 9 10 10 12 12 13 13 14 16 17 17 14 11
5 3 2 3 4 7 8 12 16 22 22 10 6 32 34 28 24 20 19 20 18 15 12 11 10 10 11 9 9 8 8 7 7 7 6 9 10 11 12 14 13 14 14 15 16 17 19 19 16
7 3 5 8 5 6 5 15 12 8 19 17 24 29 34 31 26 22 23 24 18 17 12 8 7 9 11 10 9 9 9 6 7 6 6 7 8 9 10 12 13 13 14 15 15 17 20 22 20
2 4 5 5 22 16 11 11 9 20 3 26 34 38 35 32 26 24 23 23 20 18 15 10 7 7 9 7 5 5 5 6 6 6 6 3 5 8 9 11 13 14 14 16 18 21 23 26 24
3 6 5 9 8 14 13 13 7 9 8 24 29 35 35 29 26 26 26 25 24 21 14 11 6 7 9 6 6 3 2 2 3 4 5 2 3 5 6 9 11 13 13 15 18 21 24 25 25
7 5 9 13 12 8 13 8 6 8 18 27 33 34 29 25 22 21 23 26 27 21 17 15 11 11 10 7 6 7 6 3 1 2 1 4 4 4 5 7 7 7 9 13 15 18 21 25 24
9 16 10 9 7 6 6 1 7 9 29 34 34 32 27 24 22 22 26 29 28 25 24 20 15 12 10 11 10 8 9 8 6 4 3 7 8 7 5 8 9 10 11 13 15 20 23 25 24
22 6 4 2 5 2 6 3 3 15 29 35 34 31 30 27 24 25 26 31 31 30 27 26 20 8 6 10 7 9 9 8 6 4 7 9 8 7 8 8 10 13 16 17 20 23 26 25 24
5 6 3 4 6 2 5 6 6 17 24 32 35 36 32 30 27 23 23 20 30 33 31 27 26 11 8 9 8 10 9 8 10 10 12 12 11 10 9 13 19 23 28 28 28 29 28 25 25
7 3 3 3 10 3 3 4 7 23 22 25 23 12 12 22 20 22 22 19 21 19 29 32 22 14 11 12 12 13 12 10 11 9 10 10 8 12 16 19 28 32 31 31 28 28 27 26 25
5 4 5 7 6 4 5 3 5 4 12 19 19 21 26 22 15 13 11 10 11 14 26 19 11 7 11 16 16 17 14 12 9 5 7 12 13 15 19 26 32 26 21 22 28 22 24 27 30
3 3 7 3 5 5 7 7 6 17 31 26 31 38 37 35 27 21 17 15 17 20 17 16 15 17 20 18 17 14 11 3 4 7 10 11 14 19 27 30 27 21 18 18 20 24 28 29 31
4 7 5 5 7 5 9 10 7 13 18 29 33 35 34 33 28 25 23 18 18 18 16 10 11 19 18 15 6 1 2 5 9 11 11 17 21 28 26 20 17 14 15 18 20 23 26 28 31
5 7 3 2 2 8 15 7 9 9 20 25 28 31 30 28 27 24 21 19 18 16 11 8 6 5 4 1 3 6 8 11 12 17 20 21 22 19 19 15 15 17 20 24 25 26 28 31 32
2 2 4 3 3 6 1 4 3 6 12 18 25 30 29 27 23 19 16 13 11 12 9 8 7 4 3 7 13 16 17 18 20 21 18 16 18 16 15 19 23 27 26 26 28 30 30 31 31
3 1 2 1 3 3 2 7 5 5 8 9 16 26 23 18 15 11 8 8 10 8 7 10 11 12 16 17 20 22 22 22 21 20 18 15 12 13 19 28 28 24 24 23 26 27 25 25 24
1 1 6 4 3 3 4 5 6 4 6 5 13 24 19 13 8 2 0 7 7 9 11 12 14 13 15 17 20 18 18 19 17 13 10 12 15 20 25 27 23 20 22 29 27 25 22 21 19
8 5 3 4 4 4 4 7 1 1 5 14 17 19 17 13 9 8 5 2 7 10 10 11 12 14 15 13 13 16 17 15 11 10 13 21 21 25 18 18 16 21 26 29 25 26 27 30 30
3 5 5 4 2 3 5 3 2 6 24 23 17 16 16 16 13 12 8 3 2 4 7 5 8 12 12 15 13 12 9 9 12 26 30 37 25 19 16 15 20 26 26 25 26 24 20 18 20
3 4 4 6 3 3 1 4 3 5 6 14 7 13 15 16 14 17 11 8 4 5 7 8 9 11 12 10 10 16 23 28 28 30 27 19 19 19 16 19 26 28 25 24 23 23 22 22 20
5 2 4 4 2 1 3 3 4 5 5 7 10 13 15 18 17 14 12 9 9 8 9 12 13 13 13 16 20 26 30 33 37 35 29 23 23 19 18 23 28 24 21 21 19 21 21 22 24
5 3 5 4 3 4 2 5 5 6 8 10 17 25 22 18 16 15 12 9 9 11 15 11 11 13 17 21 23 26 29 32 32 26 21 24 22 24 25 25 24 22 20 18 19 21 23 24 26
1 3 4 4 2 2 4 4 3 6 18 24 21 21 21 19 15 11 8 9 11 12 11 11 12 14 18 22 24 24 26 29 32 29 29 34 27 26 15 23 24 21 19 22 22 23 26 26 25

GFSSGP_850_spd_012.txt.gz
Wind_Speed
4 5 4 1 3 4 1 5 2 2 4 6 13 9 7 4 2 2 20 27 24 25 24 22 19 17 15 13 12 11 11 10 11 10 10 11 11 11 12 13 13 14 14 15 14 13 12 11 10
4 5 2 3 4 2 3 4 7 10 16 14 16 21 13 2 5 13 22 24 25 25 24 21 18 16 15 13 11 10 11 10 10 9 9 10 10 11 12 13 13 13 14 14 13 12 11 10 9
8 6 1 5 3 4 4 5 6 7 8 21 8 8 3 2 13 20 20 27 25 23 21 18 17 15 13 12 11 11 11 10 10 9 9 10 10 11 13 13 12 12 11 11 10 10 10 9 9
7 4 2 4 4 5 3 6 12 4 5 12 10 1 4 3 13 13 23 25 22 21 19 17 15 13 12 12 12 12 10 9 9 8 9 9 10 12 13 12 11 10 10 11 11 10 9 8 9
8 2 3 2 3 4 4 14 16 5 6 21 18 6 4 6 6 18 24 22 21 21 18 16 14 13 12 12 11 10 9 8 8 8 10 10 11 12 12 12 13 12 13 14 14 15 15 13 13
3 2 3 1 3 5 2 14 13 5 6 11 6 10 4 9 15 18 22 23 20 19 17 15 13 12 12 11 10 9 8 7 7 10 11 12 12 12 12 12 12 13 13 15 17 18 17 16 15
4 4 4 4 2 4 3 15 7 8 8 7 14 3 12 19 17 20 21 21 20 18 17 15 14 12 11 10 9 9 8 7 10 11 12 13 13 12 12 13 13 13 13 14 16 18 18 18 17
1 4 4 3 2 3 4 5 12 8 8 18 6 6 9 23 19 21 21 21 19 18 16 14 11 11 11 11 10 9 9 10 11 12 12 13 12 11 11 11 12 12 12 13 14 16 17 18 18
2 4 1 4 7 4 18 2 6 4 15 4 2 10 26 25 22 23 24 23 21 18 15 13 12 12 12 12 11 11 11 12 12 12 11 10 10 10 10 10 10 10 10 11 12 13 15 16 17
4 3 7 5 7 6 30 13 10 6 10 4 8 13 30 28 26 27 28 26 21 18 15 14 12 12 13 12 11 11 11 11 9 9 9 9 8 8 9 8 8 8 7 8 10 12 15 16 18
4 5 4 6 24 19 10 11 7 16 1 11 28 33 32 31 30 26 24 20 18 15 15 14 12 12 12 12 11 11 9 9 7 8 7 6 5 5 6 4 4 5 7 10 13 15 18 19 21
1 10 8 17 26 12 12 12 6 13 5 21 23 31 34 33 31 25 23 23 21 18 14 13 12 12 12 12 10 8 7 7 4 4 4 3 2 3 1 1 4 7 10 12 15 16 20 22 23
5 5 1 6 14 11 17 7 6 7 5 23 30 32 34 32 29 25 19 19 18 16 15 13 12 12 11 11 10 7 5 4 4 2 3 3 1 2 4 6 8 9 10 11 13 17 22 23 22
8 3 4 3 15 11 9 5 5 4 18 25 31 31 31 29 25 22 22 20 17 16 14 13 11 12 11 8 8 6 6 6 6 6 5 5 4 6 7 8 8 8 11 13 16 24 24 20 21
8 6 5 6 3 4 13 4 1 6 24 28 33 32 29 28 26 25 22 19 16 16 18 17 15 13 11 9 8 7 7 13 11 9 9 8 8 8 8 8 8 12 15 17 25 27 20 19 19
6 5 4 3 2 4 5 5 8 12 27 24 25 24 23 24 26 24 22 22 21 23 22 19 16 18 10 2 11 7 10 18 12 11 12 9 9 9 8 10 14 17 21 26 25 22 19 18 18
6 2 2 2 2 3 4 2 11 7 19 14 15 16 15 18 18 22 22 23 24 26 27 22 17 19 19 17 15 13 13 9 8 9 8 9 8 9 12 15 21 31 28 26 24 20 19 19 19
5 3 0 3 2 11 8 5 7 7 14 10 11 11 11 13 15 13 19 18 20 26 25 24 16 17 13 13 10 7 7 6 2 7 6 8 13 15 19 28 23 22 26 25 23 21 20 22 24
4 3 3 2 3 8 4 6 8 14 15 14 13 13 11 10 8 9 10 11 12 14 18 18 12 3 4 5 7 5 3 8 6 5 13 17 15 18 22 22 23 24 25 22 20 19 21 24 29
5 5 3 4 5 8 8 9 7 13 7 11 18 19 19 19 15 12 10 10 7 9 8 6 6 4 3 3 1 7 8 9 10 14 16 17 19 22 23 23 24 22 20 20 23 24 26 26 27
4 5 2 6 7 6 6 6 6 6 11 14 21 24 23 22 22 22 19 18 15 15 17 16 14 11 6 6 7 8 9 10 13 15 17 18 20 20 20 22 23 24 26 30 32 28 26 28 27
2 3 3 8 4 4 3 2 1 1 2 3 13 19 19 21 22 20 18 17 16 16 15 12 11 8 5 4 6 8 10 12 15 17 19 20 19 19 21 24 28 34 36 28 22 25 28 29 29
2 5 5 3 5 5 3 5 3 4 4 6 10 15 20 22 21 23 16 15 16 14 11 8 6 2 3 6 8 10 13 14 15 17 19 20 20 28 30 32 31 26 19 19 19 22 26 27 24
3 5 7 5 3 2 3 5 4 7 8 5 10 17 21 20 19 21 19 13 11 10 8 4 2 2 5 7 9 11 12 11 12 14 17 19 22 24 29 27 25 21 14 15 20 23 21 20 20
6 6 3 4 3 4 2 3 6 11 7 12 18 21 19 18 20 20 18 14 11 7 5 3 3 5 4 6 8 9 10 12 13 16 17 22 24 26 25 23 23 19 16 14 12 18 24 20 18
2 5 5 5 3 3 3 4 4 6 19 28 25 20 18 19 20 17 14 13 11 9 8 5 1 4 8 10 10 11 13 14 17 20 23 26 27 27 25 22 23 25 20 27 18 14 16 16 16
2 2 3 6 2 2 3 4 4 4 6 17 22 18 19 19 19 18 16 14 13 10 5 1 5 9 7 10 10 15 18 18 20 25 30 29 29 26 24 21 22 22 28 17 12 15 16 16 15
2 5 3 3 2 2 3 4 4 5 8 8 12 20 20 21 22 21 18 14 10 5 2 6 12 7 10 13 16 21 22 24 27 31 31 29 26 20 22 21 26 26 25 16 10 14 14 16 18
2 2 6 5 3 4 1 5 5 10 11 10 14 23 26 27 25 21 16 10 6 1 7 13 7 7 11 16 18 21 23 28 31 29 31 28 20 18 23 23 22 22 18 13 11 15 17 19 20
2 3 4 4 3 1 3 5 3 8 13 16 19 24 25 26 22 16 11 7 4 4 4 5 4 11 14 17 19 21 25 26 29 30 29 25 19 18 20 22 22 24 25 13 13 17 20 22 25

GFSSGP_850_spd_015.txt.gz
Wind_Speed
5 4 6 5 3 1 2 1 1 5 5 11 10 9 8 10 4 2 14 21 25 24 24 22 20 20 18 16 15 14 13 13 13 12 11 11 11 11 12 13 12 12 12 12 12 11 11 10 10
5 5 5 2 2 2 1 1 16 12 14 13 13 9 10 5 9 6 23 22 26 22 24 23 20 19 16 15 14 13 13 13 12 11 11 11 11 12 13 13 11 11 10 10 10 10 10 10 10
5 6 2 2 2 4 2 12 17 17 12 6 7 7 3 3 6 10 19 26 26 24 24 22 20 17 16 14 13 12 13 12 11 11 11 11 11 12 13 12 9 9 9 9 9 9 9 10 10
7 4 3 2 3 3 5 12 20 11 8 3 6 7 8 9 5 17 23 23 25 23 22 20 18 17 15 14 13 13 12 11 11 11 12 12 12 13 12 10 9 11 12 13 14 14 14 13 13
7 2 1 1 2 1 2 17 7 9 9 2 1 8 7 14 12 16 24 23 21 22 20 19 17 15 14 13 13 13 12 11 10 11 12 12 13 13 12 11 12 14 16 17 17 17 17 16 16
3 2 1 1 5 2 3 15 15 10 17 9 1 7 6 12 13 20 24 21 21 21 20 18 16 14 13 13 13 12 11 10 12 12 13 14 13 13 12 12 13 14 16 17 17 17 17 17 16
2 2 3 4 5 9 5 10 6 12 13 10 9 3 7 15 18 21 21 22 21 20 20 18 17 15 14 13 12 11 11 11 13 13 14 14 13 13 12 11 12 13 12 13 14 14 15 16 15
2 2 4 2 5 6 8 5 15 17 2 16 15 5 8 21 20 23 23 21 20 19 18 16 16 15 14 13 12 11 11 12 13 14 13 14 13 12 11 10 10 11 10 10 11 12 13 15 17
3 2 4 6 10 4 9 5 5 1 8 5 5 10 19 26 24 25 25 23 20 19 16 15 14 14 14 13 12 11 11 13 13 12 13 12 10 9 9 8 8 8 8 9 11 12 12 14 16
3 2 7 3 15 19 19 16 10 4 8 3 8 13 28 25 24 26 26 24 22 19 16 14 13 14 14 12 11 11 12 12 12 10 10 9 8 7 7 6 5 5 7 9 11 12 13 16 20
4 3 4 6 14 18 17 3 9 11 8 8 16 29 26 25 25 25 24 22 21 18 16 14 13 13 11 10 11 11 10 10 9 8 8 7 6 5 4 2 3 4 5 7 9 11 14 19 21
3 6 7 6 11 21 10 9 6 12 3 6 19 30 28 26 24 22 21 20 19 16 14 13 12 12 11 11 9 8 7 6 4 5 6 5 4 4 2 1 3 4 6 7 9 10 13 20 23
3 4 6 6 7 15 15 8 6 10 2 13 21 28 26 25 22 21 19 18 17 15 14 13 13 12 11 9 7 6 4 5 6 4 3 4 5 4 4 5 6 6 9 10 12 13 20 23 21
3 6 4 3 13 11 9 4 5 3 12 21 25 26 25 24 22 20 18 18 16 15 14 14 12 11 10 8 7 4 4 7 6 6 8 10 8 7 7 8 9 10 12 14 16 21 25 23 22
7 4 5 5 5 4 14 5 5 5 16 23 22 22 23 22 23 20 16 18 16 14 15 14 13 12 13 11 4 1 7 11 12 15 14 12 14 8 8 10 11 12 14 19 23 23 24 23 21
2 3 4 1 4 4 2 4 7 3 12 16 20 21 22 19 19 17 17 16 16 17 17 15 11 14 14 11 3 13 12 16 16 17 12 11 7 6 9 10 12 16 24 23 24 26 23 19 18
7 4 3 4 9 4 5 2 10 3 9 9 12 16 18 16 14 16 15 16 16 17 18 18 14 15 16 19 13 16 15 13 8 5 7 8 6 8 11 14 20 24 24 24 27 23 19 19 19
4 5 2 5 5 11 9 4 8 6 8 9 9 11 12 15 13 14 16 16 15 16 17 18 16 18 13 17 9 5 2 2 5 7 8 7 12 16 14 18 20 20 23 22 21 20 20 22 25
5 3 4 3 2 7 6 5 8 6 7 6 8 9 10 10 12 12 12 11 9 8 9 11 12 5 2 5 3 5 2 4 3 4 9 12 13 15 16 17 18 19 20 21 22 24 26 28 27
4 6 4 4 3 6 6 9 6 7 3 3 8 10 12 13 12 10 9 9 8 7 6 7 9 10 11 9 6 5 3 1 5 8 12 14 15 16 17 18 19 21 25 27 27 26 20 19 22
2 6 4 5 7 7 6 3 3 5 5 5 7 11 15 17 20 21 21 18 18 22 20 18 16 14 11 9 5 1 2 5 8 13 15 16 17 17 18 21 22 25 26 24 20 14 15 14 21
4 2 8 12 2 3 2 3 1 2 3 5 8 12 17 24 26 24 24 25 25 23 21 19 18 15 10 6 2 3 5 8 11 13 14 14 14 17 20 22 26 27 25 19 15 16 18 18 16
3 6 8 3 4 4 1 2 2 6 7 9 11 10 15 21 23 24 23 21 19 18 18 16 12 9 5 3 4 6 7 7 8 8 10 13 16 21 24 26 28 27 24 21 19 17 19 19 16
9 5 6 3 2 1 1 3 5 9 14 14 13 12 16 21 23 22 21 20 20 16 15 12 10 8 5 3 4 5 7 8 9 11 14 17 21 25 27 27 26 26 25 23 18 16 23 23 16
3 4 1 1 0 3 1 3 5 14 11 19 21 20 20 22 22 21 21 19 17 16 13 11 9 5 1 4 7 9 11 14 15 17 20 24 28 29 29 26 25 23 23 18 17 24 16 12 13
2 3 4 5 3 1 1 5 2 2 14 22 24 20 22 22 22 18 16 14 15 15 12 10 7 3 3 7 10 11 12 14 14 19 24 27 28 28 27 26 24 22 20 19 24 15 10 13 13
3 2 2 6 2 0 2 3 5 1 8 15 19 21 22 23 23 19 15 15 16 15 11 6 4 5 5 8 10 10 15 17 20 25 27 29 28 27 24 21 20 20 17 22 16 12 10 13 14
1 6 3 2 3 3 2 5 6 5 12 13 17 22 22 24 22 19 19 18 15 11 9 4 4 7 9 11 11 15 18 21 26 28 29 29 28 25 21 20 20 21 25 20 13 12 10 14 17
3 2 5 4 1 2 2 4 4 9 14 16 23 23 25 25 24 24 21 17 13 11 5 4 7 10 15 11 12 16 18 23 26 27 28 26 24 21 15 16 19 22 23 23 23 14 13 17 20
1 3 4 3 4 1 0 5 1 6 10 13 17 21 23 24 24 24 19 15 13 10 3 4 7 15 8 9 13 16 19 21 24 28 26 25 23 20 16 16 21 22 23 27 16 14 14 18 21

GFSSGP_850_spd_018.txt.gz
Wind_Speed
6 4 4 2 6 6 8 6 4 9 10 9 8 11 13 14 7 1 16 17 24 25 25 23 21 19 18 15 13 12 11 12 11 10 10 9 9 10 11 11 11 11 10 10 10 10 9 10 10
5 3 3 3 7 8 6 1 5 12 16 13 16 10 10 7 7 9 15 20 25 26 24 23 21 19 17 15 14 12 12 12 11 10 11 11 11 11 12 11 10 9 9 8 9 9 9 10 11
6 8 6 4 7 10 2 10 13 18 14 10 6 10 3 3 5 15 17 24 23 24 22 23 21 19 17 15 13 13 13 12 11 11 11 11 12 12 11 10 9 9 11 11 11 11 11 11 13
5 5 5 8 8 3 2 16 15 15 12 7 14 10 5 8 9 14 16 24 25 22 22 22 21 19 17 15 14 14 13 11 10 11 11 12 12 11 11 10 11 13 15 15 15 14 14 15 16
7 5 7 8 3 3 5 18 6 2 6 11 11 15 13 11 15 16 14 19 21 27 22 21 19 17 15 13 14 13 11 10 11 12 11 12 12 11 12 12 14 15 16 16 16 16 16 17 18
9 5 6 10 5 4 7 19 7 12 5 9 8 14 7 10 13 16 19 19 18 21 21 19 17 15 14 14 13 12 11 9 11 11 12 12 10 11 12 13 13 15 14 15 15 15 15 17 19
10 8 6 3 8 7 7 13 5 14 6 4 7 7 5 11 11 14 21 17 17 18 20 19 18 16 14 13 12 10 9 8 9 10 11 11 11 10 11 12 11 11 11 12 12 12 13 14 16
6 6 6 7 10 12 11 8 5 1 2 2 3 5 6 14 16 19 17 17 16 18 17 17 15 14 14 13 11 10 8 9 9 10 11 10 10 9 9 9 9 8 8 7 8 9 10 12 15
4 6 8 8 11 11 14 12 8 7 3 3 3 2 10 21 20 19 19 18 18 16 15 15 14 13 11 10 11 9 9 9 10 10 10 9 6 6 5 7 7 6 5 4 5 6 8 11 16
8 6 5 5 11 17 18 14 10 7 13 7 5 10 20 22 21 20 19 17 18 18 17 15 14 15 12 9 9 9 10 8 8 7 9 5 5 5 5 4 4 3 2 2 4 6 9 11 11
7 6 4 8 12 7 8 18 11 8 10 8 11 24 22 21 18 18 17 16 15 16 15 15 15 13 11 9 7 7 7 8 8 9 9 6 5 3 2 2 1 1 2 2 4 6 7 14 17
9 7 2 13 15 11 15 13 9 9 9 6 15 25 25 21 20 18 17 15 14 13 11 14 14 13 12 9 7 7 7 8 7 8 8 7 4 5 5 3 4 4 5 7 8 7 14 17 22
12 2 4 6 8 13 10 8 2 6 5 13 22 22 21 18 16 15 14 14 13 12 12 13 13 12 12 11 11 9 7 6 6 7 7 8 7 6 6 9 9 9 9 10 10 9 13 15 14
3 4 1 5 12 8 8 5 5 8 8 15 21 19 18 17 15 14 13 12 12 11 11 12 12 12 13 11 11 7 5 6 7 10 11 10 7 8 14 13 12 11 11 12 12 19 20 15 15
7 7 5 6 14 6 7 9 6 4 7 14 17 15 14 13 13 11 10 10 11 11 12 13 14 15 14 12 9 10 7 14 14 15 16 15 14 15 16 14 12 11 13 17 19 19 13 14 15
7 7 8 6 13 5 9 12 6 2 11 15 17 15 14 11 11 10 9 10 11 11 12 15 15 14 14 14 13 7 18 14 12 15 9 4 5 7 10 9 11 14 18 19 13 12 15 16 17
7 8 8 9 2 7 7 9 5 3 12 14 14 13 14 11 10 8 11 10 12 12 14 15 17 16 19 16 17 18 19 14 2 4 3 2 4 5 7 11 13 15 15 14 13 12 14 17 18
8 8 13 12 4 8 7 6 4 5 12 14 15 14 14 13 11 10 11 11 10 12 13 15 16 16 16 17 16 11 3 6 2 1 3 4 7 9 10 13 14 14 9 10 12 15 15 17 18
6 6 11 8 4 5 5 7 4 5 9 13 14 14 14 13 9 9 12 12 12 10 10 11 12 8 6 8 9 9 7 4 3 4 5 7 10 12 12 11 12 12 12 17 19 18 19 21 18
5 9 8 5 3 4 9 6 5 4 6 9 12 13 14 12 11 10 10 10 10 11 11 11 11 11 13 11 9 8 7 5 4 6 9 12 12 13 12 13 10 14 16 17 17 19 17 16 15
4 4 10 6 7 3 9 7 8 4 5 7 8 9 11 12 12 12 13 13 13 13 14 15 16 16 13 12 9 7 4 3 3 5 7 10 12 12 14 15 20 21 20 18 16 12 11 13 14
5 1 9 13 12 8 7 7 9 7 7 8 9 11 12 13 15 17 16 15 16 17 17 16 16 14 14 12 9 8 4 3 4 4 5 6 14 16 19 22 25 23 20 15 12 11 12 10 14
3 7 9 7 4 5 10 7 8 8 9 12 13 14 16 18 18 18 18 18 17 17 18 17 16 15 13 10 6 3 1 1 2 4 7 10 12 15 17 18 19 19 17 14 16 11 9 11 18
11 10 6 3 2 6 4 7 6 8 15 15 18 18 19 19 18 18 17 16 15 15 17 15 14 12 10 6 3 1 2 4 4 8 11 13 16 17 18 20 19 18 15 13 10 13 13 16 13
6 9 4 5 6 8 2 6 11 3 4 18 21 21 21 21 20 20 18 17 16 14 14 14 12 11 8 4 2 4 7 8 8 10 12 17 18 18 19 20 19 17 15 13 16 14 16 11 10
7 6 4 5 5 4 3 6 1 1 6 14 22 24 24 22 21 19 18 16 16 16 14 13 12 9 6 5 6 7 8 10 8 12 16 15 17 18 20 19 17 14 13 13 15 12 14 12 11
5 6 2 2 1 3 6 5 10 4 8 15 24 25 25 24 22 19 17 17 17 17 15 13 11 9 6 7 11 9 9 12 15 18 17 17 17 18 19 18 14 13 12 14 14 16 17 14 14
3 8 3 3 3 4 3 6 5 6 10 15 23 26 26 24 22 19 17 16 17 17 16 12 10 6 8 11 7 5 9 13 16 18 18 18 18 19 18 17 16 15 17 18 17 20 17 16 16
4 4 1 0 2 3 3 1 3 1 8 16 24 28 27 25 23 20 18 17 18 17 15 12 7 5 8 1 4 5 10 14 17 17 16 17 19 18 18 17 16 17 19 23 21 21 20 15 16
3 4 7 4 4 0 2 4 3 1 3 12 20 24 25 24 23 22 20 20 19 19 16 11 1 6 4 6 6 8 12 16 12 13 16 17 18 18 18 17 16 17 19 22 23 18 13 14 18

GFSSGP_850_spd_021.txt.gz
Wind_Speed
8 6 5 9 8 8 16 19 3 9 9 13 7 2 11 14 11 3 19 17 25 26 27 27 25 23 20 17 14 13 10 10 9 7 7 7 7 8 9 9 9 9 9 10 10 10 10 11 11
4 7 9 15 8 13 13 12 6 12 14 15 10 9 9 11 8 10 16 20 25 27 29 27 23 22 19 16 13 11 11 10 8 7 8 7 9 9 9 9 9 9 9 9 10 11 13 14 14
7 9 15 7 13 14 10 10 16 13 14 9 6 9 4 6 7 11 12 18 24 23 23 24 22 19 18 15 13 12 11 9 7 8 8 8 10 10 9 9 10 11 11 12 13 14 15 17 18
7 9 13 10 17 8 7 9 15 13 8 2 10 7 5 7 7 5 15 20 21 25 24 22 21 18 16 14 12 10 10 8 9 9 9 10 10 10 10 11 12 14 14 14 14 16 18 19 20
11 15 11 14 18 2 6 8 14 4 9 2 8 7 6 4 9 11 15 16 19 21 22 23 20 17 15 12 11 11 10 9 9 9 10 10 9 10 11 13 13 15 14 14 16 17 17 19 21
14 18 13 14 14 7 7 24 11 9 9 4 13 11 6 8 10 11 12 19 23 16 18 21 18 16 14 12 13 12 9 8 9 8 9 9 9 9 11 12 13 13 13 12 13 14 13 15 17
17 11 16 16 8 5 7 23 5 11 8 4 10 8 6 10 9 11 11 19 12 31 24 21 19 16 14 13 12 10 9 8 8 8 10 9 9 9 8 9 9 9 10 9 9 9 9 11 14
19 12 20 8 8 10 6 3 8 14 4 1 3 2 6 11 9 10 13 18 17 26 28 22 17 14 14 14 12 10 8 7 8 9 9 8 7 7 6 5 3 4 6 5 5 5 7 11 16
13 10 14 11 6 12 14 9 4 6 7 6 2 4 5 14 14 17 15 15 18 17 18 17 14 11 9 6 10 8 7 9 8 9 9 9 6 4 5 2 2 1 2 3 4 5 9 11 15
12 12 16 5 8 3 15 14 15 11 12 9 7 7 16 16 14 15 17 16 16 17 19 15 18 16 12 9 9 6 7 6 6 5 6 5 4 3 5 2 2 4 4 6 8 9 10 12 10
16 14 5 3 21 19 17 8 11 7 8 17 13 17 18 17 15 13 14 15 16 15 15 16 17 18 12 9 8 7 7 6 5 5 5 2 1 2 4 4 6 6 9 6 9 10 8 11 12
13 13 5 4 4 6 5 15 17 34 5 8 15 19 20 16 14 14 13 14 14 12 11 13 13 15 11 9 9 9 7 6 4 0 0 1 3 0 3 5 6 9 8 10 9 10 12 12 13
10 3 4 4 6 14 9 8 21 20 11 14 19 20 18 17 16 15 14 14 13 14 12 12 13 12 12 11 11 10 9 8 7 5 6 6 7 8 4 7 10 11 10 10 11 12 12 14 15
9 9 5 8 9 14 7 3 14 10 14 17 20 19 18 17 16 15 14 14 13 13 13 14 13 13 13 12 12 10 7 3 4 8 8 10 10 13 28 18 12 12 10 10 10 13 15 15 16
5 6 9 10 12 8 6 9 9 8 14 17 18 18 17 15 15 14 14 14 14 13 14 15 15 15 15 16 15 18 13 4 10 12 14 14 18 20 10 15 16 10 9 10 11 13 13 15 18
8 9 10 8 16 6 15 11 9 9 14 18 19 19 17 16 15 13 14 14 14 13 14 15 15 16 15 16 18 9 23 24 14 16 13 13 10 9 9 7 5 12 9 9 10 12 14 15 17
6 13 13 9 15 9 14 13 12 11 14 18 18 18 17 17 15 14 13 14 14 14 15 15 15 17 17 17 12 9 14 17 12 5 3 4 4 5 2 4 6 10 8 10 12 13 15 18 21
16 17 12 13 11 12 11 12 9 12 17 17 19 19 18 16 15 13 12 12 13 13 14 14 17 15 17 15 12 12 10 6 6 4 4 4 1 4 1 5 11 10 9 12 13 16 17 20 23
10 6 10 12 5 10 10 8 11 13 16 17 19 19 19 17 14 12 11 11 13 14 14 18 16 14 9 9 9 8 9 8 8 6 6 2 3 6 9 4 8 10 11 13 16 19 20 20 20
3 5 12 8 9 7 9 10 10 12 15 18 18 17 18 17 14 12 11 12 12 13 14 12 11 11 9 9 10 9 8 8 8 6 2 3 5 5 4 9 9 11 14 17 18 18 19 17 16
4 5 7 10 12 14 10 14 14 11 10 11 14 17 18 19 16 14 14 13 12 13 14 12 12 12 12 12 11 11 10 7 5 1 0 4 4 5 8 10 12 15 16 17 18 17 15 17 17
9 2 8 4 12 14 17 12 17 16 15 13 17 16 16 17 17 16 15 15 14 14 14 14 16 15 12 11 10 9 5 5 4 1 2 3 7 9 11 13 15 16 17 18 17 15 15 15 17
13 4 6 8 13 7 17 9 11 17 15 15 16 17 17 17 18 19 18 18 18 18 18 17 15 12 11 10 8 6 5 4 2 1 4 6 8 11 12 15 16 18 18 17 16 17 15 15 18
4 4 5 7 11 7 15 12 13 13 14 15 16 16 18 20 21 21 21 21 19 18 17 16 14 13 12 11 10 10 8 4 1 3 5 6 10 11 12 14 16 17 18 17 16 16 15 18 18
8 8 7 8 6 9 2 7 12 9 7 10 18 21 21 22 23 24 23 20 19 18 16 16 15 14 13 12 10 8 7 5 1 6 6 9 9 11 13 16 17 17 17 17 17 17 18 18 16
9 12 7 6 7 11 6 7 2 10 3 5 21 22 22 23 24 23 21 19 18 17 17 16 15 14 13 12 11 7 6 10 3 4 6 7 10 12 15 16 17 16 15 16 20 18 18 16 14
5 9 6 5 1 6 11 17 11 6 5 9 19 22 24 25 24 23 21 19 18 18 18 18 16 15 14 12 3 8 10 3 2 4 6 8 10 12 14 15 16 16 16 17 20 19 18 17 17
8 3 4 6 5 9 7 7 0 6 5 9 16 22 24 24 23 22 21 19 19 19 19 19 18 17 13 6 6 4 2 4 3 5 8 11 12 13 14 15 16 16 17 18 20 22 23 22 20
7 9 7 5 3 4 4 2 8 3 2 9 14 22 24 25 24 23 21 21 21 21 21 21 20 16 9 5 1 7 6 6 5 8 10 11 13 14 15 16 17 16 16 18 20 23 22 21 20
10 8 10 5 6 2 3 7 3 4 2 8 11 18 21 24 24 23 22 22 23 24 23 23 19 13 8 6 9 9 8 7 9 10 11 13 14 15 16 17 16 17 18 18 18 22 19 15 14

GFSSGP_850_spd_024.txt.gz
Wind_Speed
8 6 5 11 6 8 16 20 22 10 9 7 3 8 14 12 7 3 20 26 28 28 31 28 26 25 23 21 17 15 14 12 10 9 9 9 11 12 12 12 11 11 13 15 16 16 17 17 17
6 4 9 11 8 12 15 9 17 13 14 13 15 10 9 13 12 16 18 22 23 31 32 30 26 24 22 19 16 14 13 11 9 8 10 10 12 11 11 11 12 14 15 17 18 19 20 21 21
8 6 12 7 13 15 15 8 11 14 11 12 8 9 3 11 14 13 17 27 25 27 27 28 25 22 20 17 14 14 12 10 10 9 10 10 12 10 10 12 14 16 17 19 19 21 22 22 22
5 7 11 9 19 22 18 15 12 11 5 8 12 8 6 7 8 13 24 29 31 26 25 26 22 19 18 16 13 13 12 9 10 10 10 11 11 10 12 15 16 17 18 18 19 20 20 21 22
10 12 10 14 19 22 8 19 10 13 17 1 3 10 7 7 12 19 20 21 24 27 27 22 18 16 15 14 13 12 11 9 10 9 11 11 11 12 14 15 16 16 17 17 16 16 16 18 21
15 17 12 15 23 22 2 25 31 16 7 18 7 12 12 11 15 13 16 19 22 27 36 22 20 17 13 13 13 11 10 10 10 10 11 11 11 12 13 14 15 14 14 13 13 12 14 17 19
16 12 16 20 16 5 10 25 18 18 12 12 10 4 17 16 15 11 11 19 23 29 31 29 21 19 16 14 12 10 9 10 9 10 11 11 11 10 10 10 11 10 10 9 9 10 11 14 17
20 12 21 19 18 12 16 5 16 11 2 1 15 2 5 28 17 16 19 15 21 18 27 21 21 17 17 14 11 9 8 9 9 10 11 11 10 9 6 6 6 6 5 5 7 9 12 12 14
18 11 13 21 17 6 22 24 20 13 14 13 11 3 19 18 12 18 20 16 23 26 20 16 16 15 13 12 11 9 9 10 10 11 15 13 12 9 6 8 4 4 5 7 9 11 12 11 14
14 11 20 1 10 7 10 28 30 3 8 14 21 20 18 17 16 25 29 27 37 25 20 18 16 13 11 11 10 10 12 13 12 12 13 9 8 5 3 6 8 8 9 9 10 13 11 9 11
18 16 12 6 23 10 11 21 5 13 8 12 5 22 18 19 15 16 23 28 30 24 25 23 22 19 15 9 13 13 12 11 10 7 10 5 6 2 4 4 4 9 9 5 10 12 9 15 13
15 19 18 6 12 16 11 16 23 14 14 4 6 22 20 19 18 15 20 24 24 24 25 22 22 21 13 17 14 12 10 7 8 4 11 6 6 10 9 11 6 1 4 9 9 8 10 7 12
13 13 5 6 4 27 25 20 15 16 20 6 3 16 16 17 20 17 18 20 17 17 22 25 24 19 19 15 18 17 17 14 11 8 10 12 10 9 8 9 15 11 8 10 7 10 14 16 13
9 13 7 5 8 2 14 20 14 10 14 14 18 17 16 17 19 15 21 20 20 13 15 20 19 17 20 17 19 17 13 10 10 10 8 8 7 9 9 16 17 10 13 17 13 9 14 11 11
5 7 3 5 13 7 23 13 10 25 25 17 18 16 13 15 16 15 16 17 19 15 17 20 18 22 20 19 18 19 16 4 7 5 9 11 10 12 12 14 9 13 15 12 12 12 12 16 18
7 2 8 10 5 5 7 2 9 17 19 18 20 17 17 14 15 13 14 14 15 20 19 20 19 23 22 20 25 21 9 21 14 18 10 9 10 9 9 3 8 10 10 11 15 13 14 17 17
3 7 12 9 19 11 10 7 11 10 18 19 21 20 19 16 15 15 15 16 16 20 21 20 20 24 21 26 23 11 14 9 7 7 2 3 2 2 4 6 11 10 6 7 10 13 18 21 21
9 12 11 11 11 14 15 13 12 15 19 20 21 16 17 16 17 15 15 16 15 19 21 21 20 15 19 25 15 12 9 8 5 5 3 4 2 2 3 7 10 9 5 9 14 20 19 20 21
15 13 15 12 12 10 11 14 13 16 15 18 16 21 21 17 16 16 15 14 15 20 19 17 22 21 17 19 9 8 6 9 11 11 8 7 2 2 0 7 5 7 11 13 16 19 19 21 20
15 10 8 8 5 7 11 11 15 15 18 19 19 23 24 23 22 16 14 15 16 16 17 19 18 16 11 9 10 10 12 11 11 9 6 5 4 5 2 11 12 13 17 19 17 19 21 17 14
13 3 8 6 9 9 9 13 15 13 17 20 22 22 24 24 24 18 16 16 16 18 17 15 11 11 15 12 15 15 18 16 12 2 4 4 8 6 10 12 14 18 18 16 17 20 15 17 16
6 11 4 11 11 7 6 6 6 16 12 14 18 21 22 22 23 21 18 17 20 21 18 12 14 13 16 18 16 13 11 12 13 13 10 0 7 8 7 8 12 13 18 21 17 15 19 21 18
3 15 12 16 8 4 11 6 10 20 11 15 15 17 19 22 22 22 20 22 17 16 16 18 19 18 17 13 18 16 14 13 10 8 2 1 7 9 11 13 17 19 21 20 21 18 20 21 19
12 10 13 9 8 2 15 11 7 14 19 8 13 17 17 17 19 19 21 20 22 21 22 24 19 16 16 16 17 18 17 16 11 7 4 10 11 10 12 16 19 18 16 16 17 19 19 19 17
8 9 6 6 6 4 14 7 9 17 10 17 28 22 20 18 20 23 23 24 23 24 25 23 20 19 19 21 21 21 19 14 9 8 9 12 10 12 13 17 18 17 18 15 16 20 20 23 26
17 11 2 4 3 11 9 5 3 17 18 29 31 22 21 20 21 24 25 24 23 22 22 22 23 20 18 17 18 17 11 6 8 12 10 9 10 11 13 16 18 17 16 14 18 22 23 24 21
6 2 3 9 14 3 4 17 6 8 9 6 23 22 21 21 22 24 24 24 23 22 23 24 22 21 19 20 19 12 7 8 7 9 7 7 10 11 12 17 16 16 16 15 20 22 22 20 21
6 7 3 2 2 4 8 13 4 6 5 3 12 18 20 21 24 24 24 23 22 22 22 23 23 23 24 23 16 10 9 7 9 8 6 9 11 13 13 15 16 17 18 16 16 18 18 21 25
6 6 6 8 3 1 3 3 7 7 5 5 6 20 22 24 25 25 24 24 22 21 23 24 24 25 25 21 14 11 8 11 10 7 8 11 14 13 14 15 16 17 16 17 16 18 19 22 25
8 9 10 3 4 2 1 7 4 5 4 3 5 10 24 25 26 27 25 24 22 22 23 24 25 24 20 20 15 9 12 13 8 9 9 11 14 14 15 16 17 17 17 19 24 24 18 18 15

GFSSGP_850_spd_027.txt.gz
Wind_Speed
9 5 4 5 2 2 5 9 5 2 4 7 13 17 11 12 4 6 26 14 30 35 27 24 26 25 24 23 19 17 17 15 14 14 15 17 18 18 16 16 17 18 21 22 23 24 25 25 24
7 6 4 5 3 2 6 9 3 7 10 15 16 15 11 6 8 20 27 25 35 37 34 29 25 25 23 21 19 17 16 15 15 15 16 17 18 16 15 17 19 21 23 23 24 25 25 24 23
6 7 4 4 4 5 8 1 7 9 13 8 5 14 7 6 14 16 23 30 33 35 35 33 27 24 21 19 18 16 14 14 15 16 16 17 16 16 18 19 21 22 23 24 24 24 25 25 22
5 4 7 1 10 17 10 4 9 5 12 14 16 5 6 6 12 17 30 29 39 37 36 33 27 23 21 18 16 15 14 14 15 16 16 16 16 18 19 20 21 21 22 21 21 20 21 23 23
4 6 2 3 12 14 3 10 10 6 7 8 9 3 6 11 10 22 36 36 43 39 37 34 30 22 19 14 15 13 13 14 14 16 16 16 17 19 20 20 19 19 18 17 17 18 19 20 22
4 3 1 7 11 5 7 19 16 14 8 5 4 9 7 10 15 17 31 33 35 43 36 33 30 23 18 15 15 13 12 13 14 16 16 16 18 19 18 18 17 16 15 14 15 16 17 18 20
9 1 8 10 15 5 4 8 7 4 9 6 7 6 16 15 13 15 17 29 39 33 33 30 25 23 18 16 15 13 12 13 15 16 16 16 17 18 16 14 13 12 11 12 12 13 13 14 14
18 4 7 10 14 4 3 6 11 11 4 5 5 6 12 21 12 19 20 20 27 28 25 12 22 20 20 18 14 13 13 14 16 16 16 16 15 13 12 10 9 8 8 9 11 13 10 10 10
21 2 9 13 5 2 8 3 4 8 14 2 7 15 27 18 25 26 27 28 27 29 24 31 22 20 18 17 15 13 14 15 17 17 17 17 13 13 9 8 6 6 7 7 10 11 5 5 8
5 4 7 2 8 6 9 10 17 7 13 11 25 19 21 29 31 33 35 29 28 31 30 25 22 19 18 17 15 14 16 18 20 16 14 11 9 9 9 8 8 11 8 5 9 9 6 8 11
13 8 11 3 9 13 7 7 18 16 4 5 20 23 18 27 32 35 26 32 30 29 25 22 22 20 16 15 16 20 19 20 20 15 13 9 8 6 3 4 7 5 3 1 5 2 2 3 8
4 19 22 12 8 7 4 6 5 5 11 19 21 20 18 26 41 33 35 29 28 24 24 24 21 20 15 21 20 17 16 13 14 14 15 12 14 12 6 8 7 3 1 1 4 6 7 8 10
6 9 12 15 25 19 20 11 5 11 18 16 16 17 22 27 33 31 35 30 29 27 30 28 23 18 18 18 21 19 17 17 18 15 13 13 10 9 9 11 10 12 10 11 9 9 13 15 13
11 14 3 4 36 23 10 5 5 7 12 20 17 18 22 27 28 28 28 27 26 30 31 31 26 23 22 25 23 21 18 16 12 9 9 11 7 6 9 9 14 13 8 11 14 15 13 15 15
11 5 2 5 17 8 24 4 2 15 16 17 22 19 22 26 31 30 29 30 26 25 32 30 26 25 23 25 24 20 16 12 8 7 3 7 10 9 11 10 10 9 10 11 12 14 15 17 17
4 4 2 2 9 8 8 3 7 20 24 22 24 20 26 24 25 29 32 25 21 20 31 26 23 27 23 21 21 21 18 13 11 16 17 10 10 10 10 9 8 6 9 13 16 18 18 16 20
2 0 5 6 11 6 4 4 20 26 26 24 29 24 24 27 27 27 24 22 21 16 20 23 29 25 22 22 23 22 15 11 10 8 4 6 8 9 6 6 7 10 12 14 16 17 18 22 23
3 5 8 5 7 5 5 6 9 23 25 27 28 28 24 26 25 22 21 22 20 21 21 24 26 24 22 23 26 20 13 9 7 6 8 9 8 7 7 9 10 11 12 14 16 18 21 22 22
9 6 10 9 6 9 8 8 9 19 20 21 20 25 27 23 23 22 21 23 27 27 25 25 20 22 25 27 30 16 12 11 14 11 9 9 9 7 8 9 10 12 15 17 19 22 21 21 22
13 9 14 5 7 5 3 8 10 10 12 31 24 25 28 28 29 25 20 28 27 32 31 25 20 20 19 28 27 14 13 18 15 11 11 10 9 7 6 8 12 15 17 19 18 19 20 18 18
4 4 8 3 2 3 3 5 6 3 18 26 28 33 34 33 31 30 30 20 27 31 30 18 18 17 17 21 21 16 18 17 16 14 13 11 7 5 8 11 14 16 17 18 19 20 19 18 17
4 6 5 4 5 1 4 1 4 4 3 2 23 32 37 35 36 32 31 29 21 25 22 17 15 15 24 24 23 25 26 26 20 15 14 9 6 9 13 13 15 17 18 20 22 20 20 21 23
7 4 3 2 2 1 1 5 6 4 8 5 8 8 32 39 40 35 31 29 26 19 21 12 14 19 18 20 25 24 26 24 22 20 16 12 9 13 18 19 20 19 20 20 18 17 16 17 19
7 2 3 3 2 2 5 5 3 5 20 4 9 18 13 24 38 34 29 25 24 22 21 20 22 23 27 27 27 25 27 29 27 25 16 9 11 16 17 16 16 17 18 17 15 15 17 18 20
5 5 3 5 6 4 10 2 11 13 8 14 21 26 13 17 31 31 29 29 24 21 22 26 29 30 29 26 28 27 27 27 23 18 13 12 14 13 14 15 16 17 17 16 13 16 18 21 24
4 5 4 4 2 4 11 4 6 18 21 29 32 22 15 24 26 28 30 29 27 28 28 30 29 28 28 29 28 26 23 20 18 16 17 16 13 12 14 14 15 17 18 16 15 16 21 24 19
4 1 6 6 4 4 5 8 6 10 7 7 16 16 22 21 24 27 29 29 30 29 29 26 26 26 27 27 28 25 23 20 17 15 13 12 10 11 12 13 14 17 18 17 13 16 16 17 16
4 3 1 3 4 4 4 3 2 5 5 9 10 21 25 24 24 26 28 27 25 25 24 24 25 26 25 24 22 18 16 15 14 13 11 9 12 13 13 15 16 17 19 15 14 15 16 18 20
1 3 2 3 5 4 1 4 3 5 5 10 15 30 32 32 32 31 30 28 27 25 22 26 25 25 25 23 20 18 14 13 13 12 11 11 13 15 17 19 18 18 17 16 19 19 21 23 21
4 5 5 5 5 2 4 5 3 6 6 9 14 30 36 36 35 35 34 32 30 29 27 28 29 27 28 27 21 16 13 14 13 11 11 13 13 15 20 20 20 20 16 16 20 22 22 21 17

GFSSGP_850_spd_030.txt.gz
Wind_Speed
7 6 5 4 3 5 3 8 4 6 2 1 11 15 9 6 2 4 17 27 35 36 36 34 32 27 25 23 20 18 17 16 17 19 21 22 22 21 21 21 22 25 26 27 27 27 25 25 22
5 5 4 2 4 3 5 5 11 2 2 5 9 12 6 4 4 15 29 23 39 37 36 34 34 31 27 24 20 18 16 16 19 20 21 21 21 21 22 23 23 26 27 27 27 26 22 20 20
4 6 2 4 4 5 5 3 2 1 9 4 4 10 5 4 9 27 19 35 37 38 38 35 33 31 27 23 21 18 17 17 19 19 20 20 21 23 24 24 24 26 26 26 25 24 23 19 18
2 4 3 3 6 5 5 6 2 3 6 5 9 7 9 3 15 18 21 38 38 36 34 33 33 31 27 24 21 18 17 18 19 19 19 20 23 24 24 24 24 24 24 23 22 21 21 21 18
4 2 1 2 3 4 6 7 7 4 6 4 5 6 8 7 5 18 29 39 38 36 36 35 33 30 26 23 21 18 18 18 19 18 18 21 24 24 23 22 22 21 21 20 18 18 19 18 18
1 1 1 2 1 2 2 5 2 1 6 6 9 8 7 16 15 27 30 34 33 36 36 35 30 28 26 21 18 15 16 18 19 19 19 22 23 23 22 20 19 18 17 16 15 14 15 16 13
3 2 3 3 3 3 1 5 2 6 3 7 8 4 7 16 18 21 23 33 36 32 29 29 28 26 21 16 14 15 16 18 19 18 19 22 22 21 19 17 16 15 13 13 13 11 10 10 12
4 4 4 3 3 3 4 2 3 5 6 5 4 4 7 16 23 26 17 37 29 28 23 30 29 29 29 17 15 15 16 17 18 19 20 20 19 18 16 14 12 11 11 10 10 7 7 7 9
7 1 1 5 4 2 13 8 10 6 19 16 9 12 21 18 22 24 33 29 30 25 17 23 35 23 19 18 16 16 17 19 19 19 19 19 18 15 13 12 11 9 8 9 8 5 3 3 6
4 3 5 6 4 5 14 9 9 6 14 13 30 26 19 19 23 24 30 31 30 25 19 16 30 23 20 18 18 17 18 20 20 19 18 17 16 15 13 14 12 8 7 6 4 4 1 3 5
3 6 4 5 6 12 6 2 3 9 3 17 34 19 23 24 20 22 27 33 34 32 31 30 24 22 20 18 18 19 21 22 20 16 14 14 13 13 11 11 9 7 5 6 3 4 3 2 4
3 12 13 5 10 9 6 8 3 8 7 18 21 27 29 26 27 25 30 31 32 36 31 27 23 21 19 19 20 21 23 22 20 19 15 12 10 11 9 10 8 6 3 3 6 5 5 7 10
6 14 3 14 20 13 7 9 7 14 25 31 34 31 32 38 29 30 31 31 29 27 26 26 24 23 23 23 21 21 23 22 18 15 13 12 13 9 9 10 8 5 5 6 7 9 10 14 13
13 5 13 19 16 10 8 5 4 12 31 29 33 33 28 40 26 33 35 34 30 29 28 28 25 25 25 24 22 22 21 19 15 15 14 13 11 11 11 11 10 12 11 9 11 12 13 13 14
11 3 12 9 11 4 11 2 5 22 24 28 28 26 31 38 30 35 35 33 30 30 27 26 27 28 25 23 21 17 15 18 16 14 13 13 12 11 12 12 11 9 8 9 9 11 12 14 16
6 5 5 9 10 13 2 3 5 24 28 24 28 28 30 36 33 31 30 29 29 32 32 28 29 26 23 22 21 21 21 17 15 13 10 10 13 15 13 14 10 5 7 10 13 15 17 19 19
5 1 2 3 14 7 4 3 6 22 25 23 21 32 34 37 36 31 32 30 29 33 37 34 30 27 26 27 25 24 21 16 11 8 8 11 16 15 11 9 7 7 10 14 15 17 19 20 22
2 2 3 3 4 5 7 7 7 22 24 25 23 34 36 40 39 33 31 30 24 29 34 35 32 30 30 28 27 27 22 14 9 8 8 11 12 10 9 7 7 10 13 14 16 18 20 22 22
2 5 7 13 9 5 8 7 9 19 18 21 29 32 34 38 39 34 32 35 32 33 37 34 31 33 30 29 30 29 23 13 15 13 12 11 11 9 8 9 11 13 14 17 20 21 20 20 21
5 7 8 12 8 6 6 6 8 11 18 28 32 32 39 38 41 37 34 36 34 32 34 31 31 30 28 26 27 27 23 17 14 12 12 12 11 10 11 11 12 14 18 20 19 19 20 20 19
6 5 6 5 4 6 5 5 1 3 10 22 30 40 39 43 44 43 42 41 37 37 32 27 25 23 27 26 28 30 22 18 19 17 15 14 14 15 13 11 13 19 19 18 19 21 20 18 18
7 6 5 6 4 0 3 2 4 4 7 13 16 24 37 39 42 41 41 42 40 38 34 28 26 27 29 27 34 36 29 26 23 20 19 19 18 14 11 13 18 20 17 18 19 21 20 19 17
9 4 2 2 4 3 3 3 5 2 6 10 21 28 32 40 44 42 39 39 37 36 35 24 27 26 26 26 35 33 29 25 23 25 24 22 18 15 13 17 20 17 18 18 18 17 17 16 16
5 3 6 5 3 2 4 4 5 4 10 6 10 22 31 38 38 39 38 33 28 28 30 28 17 22 26 29 32 31 30 29 31 29 25 20 16 14 16 17 17 18 17 17 17 16 14 13 15
3 5 3 4 4 5 5 4 8 7 8 11 15 10 16 37 40 39 37 32 29 29 27 23 19 26 29 29 28 30 31 34 35 30 24 19 19 18 18 17 14 14 15 15 15 15 15 16 19
5 5 5 4 2 4 4 5 6 7 18 21 12 9 10 21 38 40 38 33 30 31 28 25 23 26 25 26 28 29 31 30 27 24 22 20 17 13 10 11 15 15 15 16 16 15 15 17 18
4 2 4 6 4 2 4 4 6 5 5 0 4 7 10 22 34 37 36 33 32 28 29 25 26 26 29 26 26 25 24 24 24 22 19 15 10 11 11 14 14 16 18 18 17 16 15 16 19
6 4 1 3 3 3 4 4 4 2 4 4 3 9 14 25 32 33 33 32 31 27 27 26 27 28 30 27 24 23 24 24 21 19 16 15 13 10 15 15 17 18 19 20 18 17 17 19 21
2 0 2 4 4 4 1 5 5 7 7 8 13 19 25 32 34 34 33 32 29 28 28 27 30 30 30 28 26 25 24 23 19 18 17 13 11 15 16 17 21 22 21 21 18 18 21 24 26
4 6 6 5 4 1 4 5 4 7 8 12 16 24 29 36 36 34 32 32 33 33 31 30 30 32 33 32 30 26 24 23 22 19 16 15 15 15 15 17 19 23 23 22 19 19 22 22 25

GFSSGP_850_spd_033.txt.gz
Wind_Speed
3 4 1 2 3 5 2 6 3 7 6 4 1 2 6 7 3 2 7 32 32 35 36 34 30 27 26 24 21 20 18 19 22 23 23 24 24 25 25 27 28 29 28 27 25 23 20 18 17
2 0 2 3 4 3 5 5 5 7 3 10 9 6 8 4 4 6 21 25 33 34 36 34 32 29 27 26 23 20 18 20 23 23 22 23 24 26 27 28 30 29 28 26 23 20 19 17 19
0 4 2 4 3 4 4 4 2 1 2 3 1 8 4 4 3 21 19 23 33 35 36 33 32 32 28 26 24 20 19 21 22 22 21 24 25 27 27 28 28 28 27 26 23 20 18 18 18
4 4 4 3 5 5 4 7 10 1 9 21 10 5 6 6 11 16 18 28 33 36 36 37 34 31 28 25 23 21 21 22 22 21 21 24 26 27 28 27 26 26 25 24 22 20 16 15 15
6 3 2 1 4 4 3 6 5 3 8 15 14 5 5 7 4 17 21 30 31 34 33 33 33 32 29 25 22 21 21 21 21 20 23 25 26 26 26 25 24 23 22 21 19 17 15 15 14
4 2 3 1 4 4 3 2 1 4 5 10 9 3 4 5 6 20 27 31 32 31 30 29 29 29 27 24 23 21 20 20 19 20 24 25 25 25 24 23 21 20 18 16 14 12 13 15 14
5 3 4 2 5 5 2 2 5 4 7 3 7 3 3 12 12 23 27 26 28 28 28 25 28 29 27 23 21 21 17 17 18 21 23 24 23 23 21 20 18 16 13 11 10 10 8 9 11
3 3 2 2 3 5 4 2 10 7 2 7 15 8 7 13 15 20 27 21 24 23 26 33 33 30 25 22 16 9 13 17 18 20 22 22 21 20 18 16 15 14 10 9 7 7 6 6 8
5 4 1 3 3 5 6 3 5 6 8 5 3 10 19 24 18 18 24 24 6 15 26 36 33 34 30 24 17 16 17 17 19 21 21 20 18 17 16 14 12 10 8 6 3 3 3 4 5
4 4 5 5 3 5 4 2 4 5 8 7 20 21 22 22 19 21 32 31 30 29 20 28 25 34 25 22 19 18 20 20 20 21 19 18 16 16 14 12 10 9 7 3 1 1 3 4 7
4 4 3 9 9 3 7 4 7 15 3 9 22 20 23 23 25 33 31 31 28 25 32 35 34 23 21 19 19 19 20 20 20 20 18 19 17 15 14 12 8 7 5 2 2 5 5 5 7
2 13 8 8 9 8 6 6 5 2 2 17 23 19 20 23 26 23 27 26 28 24 28 32 19 19 18 17 18 20 22 22 21 19 19 17 15 13 11 9 6 5 4 3 6 6 5 7 9
4 5 8 14 12 7 10 6 7 9 16 23 22 22 19 19 21 22 25 26 26 28 29 28 19 20 18 18 20 22 24 23 21 19 16 14 13 11 9 8 7 6 4 6 8 8 8 10 10
4 10 5 6 15 10 9 7 6 8 23 26 29 26 17 19 25 28 32 25 29 31 28 24 22 20 21 21 21 23 24 21 18 17 13 10 9 8 8 8 10 9 8 8 9 9 10 10 11
7 3 4 4 2 4 17 4 6 24 26 28 29 24 22 27 24 28 29 29 30 28 28 27 24 23 23 25 23 23 22 19 17 15 12 9 11 13 11 12 13 10 8 9 8 7 9 11 13
4 4 3 2 2 5 2 3 4 29 25 22 25 25 24 28 26 28 32 30 28 27 29 27 24 25 26 25 23 22 21 20 17 16 13 14 15 15 15 13 12 9 9 9 8 9 12 15 17
6 2 3 1 6 2 1 6 8 32 26 23 27 26 25 31 28 30 33 31 30 29 28 27 26 26 26 23 21 21 22 20 20 16 15 17 18 19 16 14 12 10 9 8 10 13 16 17 18
3 4 3 3 3 6 4 2 12 29 23 26 29 27 27 32 31 34 34 33 30 29 30 27 28 28 27 24 26 24 23 22 21 18 14 12 13 15 14 11 11 9 7 10 15 18 18 19 20
3 2 2 4 5 5 8 5 14 21 17 17 26 30 32 34 30 31 33 33 34 34 34 31 31 31 30 30 31 29 28 24 19 14 9 10 11 11 12 12 10 8 10 15 17 19 20 22 21
6 5 9 9 7 8 7 6 5 12 19 28 31 32 36 36 36 35 34 35 34 36 37 36 34 31 32 32 31 31 28 25 17 11 12 13 13 12 11 11 10 11 14 17 22 24 24 23 22
2 3 7 8 4 4 6 3 4 4 10 20 25 37 37 40 42 41 38 38 35 37 34 36 37 35 35 34 33 31 29 23 20 17 17 15 13 13 12 12 12 13 16 19 24 25 24 22 21
5 3 6 4 1 2 4 3 4 6 13 9 25 29 38 43 43 44 45 44 43 41 37 37 39 35 35 35 35 34 34 32 27 20 19 16 17 15 13 14 14 15 16 21 24 23 22 21 18
9 3 5 1 3 3 4 4 5 0 8 15 21 34 36 44 46 46 48 46 44 44 39 39 39 38 35 37 36 34 34 31 25 22 21 20 19 16 16 15 14 14 18 22 21 20 20 17 14
3 2 4 4 2 2 3 4 5 5 12 11 21 31 37 40 45 45 44 44 44 45 42 39 40 30 33 34 32 35 33 29 27 26 25 23 20 19 18 17 15 14 18 20 22 20 17 16 14
5 5 3 4 4 4 2 1 8 7 8 9 12 30 40 39 40 45 46 48 45 45 42 41 32 33 31 29 32 29 32 29 28 27 28 27 25 22 20 16 15 21 17 22 19 17 16 15 15
1 5 4 3 3 4 3 4 6 5 10 13 16 19 25 28 40 45 46 45 44 41 39 39 28 27 25 30 30 27 29 31 31 31 32 29 26 21 16 13 21 16 15 15 15 16 15 15 14
3 2 3 6 3 2 3 6 10 6 4 9 10 15 17 19 29 42 43 42 39 35 33 25 25 27 25 29 27 28 30 30 29 31 30 28 22 18 18 20 8 12 15 14 16 15 15 14 13
2 6 1 3 2 3 4 4 5 5 6 3 7 12 15 19 24 31 36 37 37 31 29 23 26 25 25 30 26 27 29 28 29 31 32 29 27 23 22 9 11 12 12 14 16 15 15 15 17
2 2 3 4 5 4 1 5 7 6 5 7 10 6 13 19 22 24 27 33 34 30 29 24 26 27 29 30 27 30 29 29 30 30 29 28 24 21 17 17 11 10 13 15 18 17 16 16 18
3 2 5 4 4 1 4 6 4 8 6 8 12 11 11 17 20 21 28 35 36 34 32 30 27 30 33 32 30 26 25 27 28 30 28 24 22 18 17 13 10 10 13 17 20 17 17 18 18

GFSSGP_850_spd_036.txt.gz
Wind_Speed
3 1 3 3 4 5 3 6 3 4 2 6 5 2 5 6 0 2 3 27 33 37 36 34 30 28 26 25 24 22 20 22 24 25 25 24 25 26 28 28 28 27 26 24 23 21 20 20 20
1 3 4 4 5 3 5 4 3 3 4 6 6 4 8 5 7 3 14 20 33 34 35 32 30 29 28 26 24 23 22 25 26 26 25 26 28 30 31 29 28 26 25 23 21 21 21 20 18
2 5 2 4 4 4 5 4 1 4 16 4 3 9 4 5 5 7 6 21 31 31 34 32 30 28 28 27 26 23 25 25 26 25 26 28 31 31 30 29 26 24 23 21 19 18 17 16 16
4 3 4 4 5 5 5 4 3 2 4 6 4 5 6 4 2 3 17 19 28 31 34 31 29 29 26 23 23 24 25 26 26 26 28 30 31 31 29 28 26 24 22 22 19 17 15 16 15
5 2 3 1 3 5 4 2 1 2 5 5 6 3 4 8 3 9 19 22 27 29 30 30 29 28 26 23 22 23 26 26 25 26 29 30 31 29 27 26 25 23 20 20 19 17 16 16 17
1 1 4 1 4 4 1 2 5 3 6 8 8 8 5 1 7 13 17 23 25 29 29 28 29 28 26 23 21 24 25 24 24 26 28 30 29 27 25 24 23 20 18 16 16 16 15 15 14
5 3 3 3 4 5 3 3 3 7 6 3 7 5 9 11 8 13 15 21 23 27 29 28 31 31 28 21 21 22 23 22 22 25 27 28 26 24 22 20 18 16 14 12 10 10 10 11 11
3 4 2 3 3 5 2 3 3 2 2 4 2 4 6 19 12 17 18 15 19 24 31 32 25 35 26 20 20 20 20 20 19 24 26 26 24 22 20 16 13 12 10 10 8 7 7 8 9
4 4 2 4 2 5 3 2 2 4 5 4 2 9 15 24 16 18 16 18 17 16 22 37 43 38 24 23 21 18 13 16 21 23 24 24 22 19 17 14 11 9 7 6 5 4 5 7 8
4 3 5 5 4 4 4 3 5 3 4 4 11 12 20 19 18 19 23 21 22 31 28 29 33 33 28 23 16 14 17 19 22 23 23 21 19 17 16 13 10 7 5 3 3 2 3 6 8
5 5 6 9 14 7 5 3 4 11 2 7 13 21 23 21 23 22 23 20 26 29 29 42 41 32 35 30 22 20 20 21 23 22 21 19 19 16 13 11 8 6 4 2 2 7 6 6 7
2 12 10 6 6 6 5 8 4 1 3 13 18 19 21 19 22 25 29 31 24 28 36 27 26 33 27 23 22 20 20 21 22 21 20 18 17 14 12 10 6 5 3 2 5 6 4 6 7
3 4 5 9 7 7 9 3 5 3 9 15 14 17 18 18 21 27 27 26 32 34 37 43 35 27 22 20 19 21 22 22 22 20 19 16 14 12 10 8 7 6 5 5 5 5 6 8 10
5 7 2 5 6 7 10 3 3 2 14 14 19 18 16 15 17 24 27 28 29 29 30 22 21 21 20 19 20 22 22 23 21 18 15 13 12 10 9 9 9 9 7 7 7 7 8 7 10
6 0 2 2 5 3 12 3 3 16 16 18 19 19 13 14 15 19 25 24 24 30 29 22 18 18 18 17 18 21 22 21 19 17 15 12 10 10 10 11 11 11 9 8 7 6 8 9 13
4 3 1 1 2 3 3 2 3 18 21 19 18 16 16 15 17 23 25 23 25 27 24 22 21 20 19 18 19 21 23 20 16 15 15 12 10 11 14 15 14 12 10 7 6 7 9 12 16
6 1 4 3 4 3 2 1 5 19 20 19 19 18 17 18 19 24 25 24 27 25 24 23 22 20 20 21 21 19 21 20 17 17 15 12 13 16 18 16 14 12 8 6 7 9 12 15 14
1 2 3 2 3 2 4 2 5 23 19 20 21 21 21 20 26 24 27 26 27 26 24 24 23 21 21 21 21 22 22 21 20 20 15 14 17 19 19 16 13 10 7 8 9 11 12 13 15
3 2 3 5 4 6 9 5 11 19 16 15 24 23 24 24 24 25 25 29 28 27 26 27 27 26 25 26 27 25 24 24 23 17 15 16 16 16 16 14 12 9 9 9 8 10 11 14 17
2 4 6 6 3 5 4 6 12 15 22 26 30 29 30 30 28 29 27 29 31 30 29 30 30 29 27 27 26 25 23 23 19 19 18 15 13 13 14 14 12 12 10 8 10 13 15 18 20
4 2 5 4 5 1 4 2 5 5 11 20 24 32 30 32 34 34 34 35 32 34 33 33 32 29 29 28 28 27 26 25 25 24 20 15 15 16 17 16 14 12 9 9 13 16 18 21 22
2 5 3 5 1 1 3 3 4 5 15 8 25 31 35 33 33 33 36 37 38 36 33 34 33 32 31 30 30 31 31 32 31 27 21 19 19 19 17 15 14 12 10 11 14 17 22 28 24
8 3 2 2 2 3 3 4 4 4 7 18 21 33 39 38 37 37 39 38 37 36 36 33 33 31 34 32 32 33 34 34 32 25 24 23 22 20 17 17 16 15 12 13 19 22 32 26 20
1 2 6 4 3 2 3 4 5 5 12 17 21 30 42 41 41 41 38 39 39 37 36 35 35 33 35 35 36 36 37 37 32 27 28 26 24 20 20 20 18 14 13 17 24 30 24 20 19
3 5 3 3 4 4 3 2 8 8 4 8 12 30 45 47 46 44 43 42 43 42 41 39 36 34 38 39 38 38 40 38 31 28 29 28 27 24 25 23 21 18 16 26 27 18 18 18 16
3 6 5 2 2 3 3 5 6 2 8 11 17 20 29 40 44 48 44 45 44 43 44 41 39 24 36 42 40 39 41 37 31 28 32 30 28 27 26 26 21 18 26 27 17 16 16 14 14
3 2 4 6 3 2 3 6 9 3 4 7 6 5 17 26 32 37 43 46 44 43 42 38 38 34 26 25 33 32 35 32 27 28 33 29 29 30 31 27 24 21 18 12 11 12 13 14 14
2 6 3 3 2 3 4 4 5 7 4 2 5 8 7 14 24 30 34 39 38 42 40 38 33 30 27 23 23 27 28 27 27 29 29 28 30 33 30 23 23 13 9 9 9 10 13 13 12
2 2 4 5 4 4 1 5 7 7 6 6 5 7 11 12 15 18 21 23 23 25 34 33 30 28 25 25 25 28 29 28 27 28 24 26 29 31 24 22 18 11 10 9 8 13 14 12 11
5 6 6 5 4 1 4 6 5 8 6 7 11 6 6 6 11 16 18 21 24 22 27 32 24 20 18 21 26 28 29 27 24 22 25 28 30 26 22 17 12 12 10 7 10 17 14 15 14

GFSSGP_850_spd_042.txt.gz
Wind_Speed
2 2 2 3 7 6 13 8 5 6 4 3 2 3 3 4 4 3 1 22 23 29 30 34 32 31 32 31 30 27 25 23 22 23 24 25 24 24 24 24 25 25 24 23 23 22 21 21 20
2 2 2 4 8 11 11 3 10 2 4 1 3 4 4 3 4 2 6 19 25 28 30 31 34 33 32 31 30 28 25 25 25 27 27 26 25 25 26 27 26 24 24 23 22 21 19 19 18
2 4 8 4 7 11 9 3 3 2 2 5 3 1 3 1 4 4 4 20 28 29 28 31 35 34 33 31 29 27 26 28 28 27 27 27 27 28 27 26 25 25 24 22 20 19 18 18 17
2 4 5 9 11 10 10 1 4 7 5 5 5 5 5 4 2 3 13 20 29 30 29 35 35 33 32 31 29 29 31 30 29 28 28 29 28 28 27 25 25 23 22 21 19 18 18 16 16
3 5 8 8 7 5 6 6 6 7 3 4 7 7 6 3 4 10 18 23 29 33 31 36 35 33 31 30 30 31 31 31 30 31 31 30 29 28 26 25 24 23 22 20 19 19 17 15 15
8 5 8 5 4 4 6 5 6 6 4 4 6 8 4 7 7 14 14 22 32 33 31 35 33 31 29 27 30 32 32 31 33 33 31 30 29 28 26 25 23 22 21 21 20 17 15 14 14
10 6 6 5 2 4 3 1 4 5 8 4 1 3 5 7 11 13 18 20 24 25 32 34 33 30 28 31 32 30 32 34 34 32 31 29 28 27 25 24 22 20 19 17 17 14 12 12 11
5 5 5 1 2 6 5 1 1 4 3 2 2 4 5 13 13 16 18 19 21 25 32 37 37 36 34 26 28 29 31 34 33 31 29 27 26 25 23 21 19 17 15 13 12 11 9 8 8
4 5 3 1 4 7 2 4 3 3 4 3 1 2 5 18 14 11 15 18 24 27 32 36 38 36 35 30 26 28 29 32 34 32 28 26 23 21 19 17 16 15 13 11 9 8 7 6 7
7 4 2 4 6 8 6 8 3 5 5 6 3 4 12 19 13 16 11 16 21 32 38 41 41 44 34 25 22 25 28 31 34 30 29 20 20 16 17 16 14 12 10 8 6 5 5 6 5
2 7 6 8 8 8 6 2 1 6 6 4 6 18 20 17 14 17 15 17 22 34 41 43 51 46 39 34 21 26 28 31 31 32 27 21 20 20 15 15 13 11 8 7 5 3 2 1 3
8 8 8 7 6 4 2 2 2 3 6 1 11 17 17 16 15 15 19 20 21 30 32 43 42 41 42 37 33 26 28 25 28 26 22 23 18 18 15 11 12 10 9 6 3 2 1 1 4
10 9 9 6 3 2 3 0 3 3 5 9 12 11 13 14 15 16 15 21 33 39 31 41 45 45 47 41 32 27 25 28 26 23 25 19 16 17 13 13 10 9 7 7 3 2 2 4 6
7 10 2 3 1 3 4 4 4 6 8 9 11 9 12 12 17 18 19 22 25 32 37 37 42 39 35 37 32 19 23 27 23 19 23 21 17 15 14 12 10 9 9 7 3 3 3 3 4
10 8 6 6 4 2 4 5 6 10 9 11 11 12 11 10 15 18 18 20 24 30 37 37 38 37 25 25 23 20 20 19 20 22 21 19 17 15 14 13 12 12 9 7 7 7 7 3 5
8 7 5 4 6 3 6 9 8 11 10 10 12 12 14 14 21 16 16 22 28 27 27 24 27 31 21 18 17 16 17 19 19 20 21 19 16 16 16 14 13 12 10 9 9 8 5 4 5
7 5 6 3 6 2 6 4 10 12 10 11 12 15 16 16 19 18 20 22 24 24 24 24 31 26 17 16 17 19 20 20 17 22 21 20 18 17 16 15 13 13 12 12 11 10 6 3 2
6 7 5 2 4 6 7 6 8 13 12 11 13 15 17 18 20 22 22 22 22 23 24 26 27 21 18 16 17 16 18 17 18 21 22 20 19 18 17 16 15 15 16 14 13 12 8 4 5
4 6 6 1 2 4 8 10 7 14 14 14 13 14 15 16 18 20 22 24 25 24 24 25 24 21 19 18 17 16 17 18 19 20 20 20 20 18 16 18 18 18 16 15 15 11 7 4 6
6 6 4 1 2 5 7 7 5 13 15 15 14 15 15 15 17 21 23 24 25 27 28 28 27 24 21 17 18 16 17 17 17 20 22 21 21 20 18 20 19 19 18 18 15 11 7 5 7
9 7 3 3 1 6 6 7 8 9 13 13 15 15 16 18 20 21 24 26 26 28 27 27 25 23 21 19 16 16 16 17 18 24 25 25 25 22 21 20 21 21 20 19 17 14 11 6 8
11 2 3 5 6 4 3 4 7 9 12 15 17 19 18 20 21 21 23 27 28 27 25 25 24 23 23 23 20 22 21 19 20 23 25 24 25 23 24 23 23 23 23 21 19 18 16 9 15
7 1 4 5 6 4 6 6 8 5 9 14 20 23 23 23 24 26 27 27 26 25 26 26 26 26 25 24 24 22 22 19 18 19 22 25 25 27 26 25 25 25 23 23 22 21 15 15 18
5 3 4 4 5 6 4 6 4 5 5 3 6 22 25 25 26 26 24 24 25 26 27 28 29 29 27 24 23 27 25 23 28 28 28 28 27 27 28 26 26 26 25 25 24 19 17 17 13
9 7 6 6 6 7 3 6 8 2 3 6 8 8 18 27 27 28 28 29 27 28 29 30 31 32 32 25 25 27 26 30 34 30 31 30 31 31 29 29 28 28 28 25 22 19 17 14 10
13 11 6 4 5 4 3 6 2 3 6 8 8 10 11 16 25 30 29 28 28 28 29 30 32 33 33 30 24 24 30 33 36 29 30 30 31 30 27 29 30 28 27 25 21 17 18 12 11
7 8 1 2 1 4 4 5 8 1 2 2 4 4 4 8 16 21 25 28 25 25 27 27 27 29 31 28 25 12 28 29 27 26 28 27 29 28 27 28 29 29 28 24 19 17 14 10 9
5 9 5 4 5 6 4 5 2 4 4 1 2 4 3 1 4 9 12 16 20 22 21 22 23 23 22 22 30 26 27 20 19 21 23 24 23 26 27 28 29 31 27 24 21 20 9 7 8
6 6 4 3 3 5 5 5 2 6 2 3 1 2 4 2 0 3 6 8 10 13 15 16 18 18 18 18 26 28 25 23 20 18 18 18 20 21 26 27 33 32 28 24 20 11 13 10 19
7 9 10 6 6 3 5 8 5 9 6 6 4 4 4 5 4 2 5 6 7 8 10 11 12 13 14 15 17 15 16 17 19 19 20 21 21 22 26 29 33 31 27 22 17 16 14 15 16

GFSSGP_850_spd_045.txt.gz
Wind_Speed
3 4 5 10 8 8 18 20 21 5 2 2 5 0 5 8 8 4 18 6 16 24 27 29 27 28 32 32 31 27 24 22 19 17 19 21 22 23 23 24 25 25 25 24 24 22 21 20 21
3 7 8 15 8 13 14 19 6 6 10 9 1 6 14 9 6 7 8 11 15 24 25 28 28 29 33 33 31 28 25 23 20 21 22 24 24 25 25 26 25 24 24 23 22 21 20 20 21
4 8 15 11 12 14 13 6 4 7 3 8 4 5 3 4 4 8 9 18 17 24 23 27 29 30 32 32 30 28 24 21 24 25 25 25 26 27 27 26 25 24 22 22 21 21 19 19 19
6 11 11 9 16 12 17 8 3 6 8 9 13 7 5 1 2 1 5 20 17 20 29 26 32 33 33 32 29 25 23 25 28 27 27 28 29 28 26 26 26 24 21 20 20 19 18 17 17
8 12 10 15 13 7 5 14 4 8 12 4 9 11 10 1 4 4 10 17 24 26 34 31 33 33 33 31 26 24 25 29 29 29 30 31 30 28 26 25 25 23 21 20 20 18 16 16 15
15 5 12 11 2 1 5 4 7 9 6 1 11 26 14 2 2 12 10 19 25 30 34 33 33 33 32 29 27 26 29 30 29 30 31 31 28 27 25 24 23 22 21 20 18 16 15 15 14
13 10 14 8 3 6 5 8 6 10 10 13 11 4 3 1 6 11 12 16 24 30 30 36 27 30 31 30 30 31 31 29 30 31 31 29 27 26 25 24 23 22 21 19 16 13 13 13 14
11 6 14 5 4 5 6 7 4 6 7 6 3 6 5 9 9 9 13 18 22 27 32 37 26 24 28 29 28 26 28 30 30 30 30 28 26 24 22 21 20 18 17 16 12 11 10 10 11
7 10 7 0 6 4 5 5 3 5 11 3 0 5 7 10 9 9 14 16 20 30 30 38 32 23 24 29 31 30 29 30 30 28 28 27 24 21 18 17 17 15 13 12 10 10 8 7 9
10 11 4 7 10 10 10 10 6 6 14 11 8 8 8 11 12 10 14 20 25 31 31 34 39 41 41 36 28 26 28 30 31 30 27 24 22 15 14 18 15 13 11 10 8 8 9 11 7
4 9 10 8 9 10 7 16 7 9 8 40 2 10 15 10 10 13 10 13 24 33 31 35 38 39 39 39 34 26 27 23 31 29 22 18 18 19 16 16 15 13 10 10 8 7 7 5 4
8 10 9 10 7 6 2 5 10 7 7 5 7 11 15 11 10 11 11 17 24 29 37 39 40 45 40 36 36 32 31 32 28 26 16 20 14 15 12 11 10 10 9 8 7 6 4 3 1
9 8 8 6 2 4 1 5 1 6 10 12 10 11 10 12 11 11 13 18 20 24 32 45 41 40 42 41 36 25 28 31 21 22 17 19 13 14 13 12 11 10 11 10 8 4 4 3 2
7 11 4 4 2 8 10 8 10 7 9 9 8 10 9 10 13 12 13 21 16 22 32 40 43 38 39 37 32 31 32 32 19 21 21 16 13 14 12 12 11 11 10 9 7 7 6 5 4
12 12 8 7 7 11 4 19 11 13 11 8 10 9 10 13 14 11 15 24 22 32 35 32 28 33 40 39 39 39 33 21 21 18 17 19 16 15 12 12 11 11 10 10 8 9 8 5 4
13 14 5 7 9 6 17 13 14 16 14 10 9 10 9 11 16 16 15 18 19 24 26 29 28 36 38 36 37 17 14 15 15 14 14 15 15 14 14 12 11 12 13 10 8 8 7 7 6
13 5 7 16 8 14 5 14 15 13 12 11 10 11 13 20 18 18 18 21 25 26 28 26 31 30 26 27 22 16 15 16 15 15 15 19 17 17 14 12 12 15 11 10 10 9 9 8 5
9 12 12 6 13 9 9 13 11 13 10 13 14 14 16 23 18 18 21 25 25 24 23 22 26 25 20 19 15 14 15 16 16 16 16 18 16 19 18 13 14 13 11 10 10 10 9 8 7
9 10 10 5 5 4 11 8 5 15 12 12 15 15 18 19 22 19 23 24 25 25 25 22 26 28 19 19 17 16 17 17 18 17 18 18 17 19 19 14 15 14 13 13 14 12 11 8 8
10 10 12 2 1 7 10 13 3 14 13 15 16 18 17 19 22 23 23 24 23 24 25 25 26 24 22 18 18 17 16 18 18 18 21 21 18 18 19 17 16 15 15 16 16 14 10 9 9
10 13 3 8 7 10 12 13 9 9 13 14 16 18 20 21 24 26 26 27 26 27 27 27 26 24 21 20 16 16 15 16 19 19 18 23 21 20 21 19 18 17 17 17 17 17 15 11 10
12 12 4 9 11 6 14 2 19 14 13 14 17 19 21 24 24 26 28 29 30 29 27 27 26 26 26 22 21 20 19 20 18 21 22 23 22 21 21 20 20 21 18 17 17 16 15 15 13
10 1 6 10 12 14 11 8 13 10 14 18 18 20 21 24 26 27 29 30 29 28 29 29 28 27 25 25 24 22 19 17 17 19 20 21 18 23 23 22 23 23 19 17 18 17 18 16 17
8 6 10 10 11 9 13 10 14 8 13 13 21 24 24 24 26 27 27 27 29 30 30 31 30 29 28 27 25 24 22 20 21 22 22 19 20 20 24 25 26 25 26 23 21 23 21 20 18
10 13 9 9 6 10 7 5 3 15 5 2 2 10 25 27 26 27 28 29 29 30 31 33 31 32 31 30 30 26 28 24 26 28 26 23 21 24 27 28 28 28 28 25 26 25 24 19 19
15 16 7 5 7 6 5 6 4 9 3 4 7 6 10 20 29 30 30 30 30 30 30 31 31 31 31 32 34 30 32 30 26 24 25 30 33 37 31 30 27 27 28 30 27 26 22 20 19
18 18 13 4 8 5 7 7 6 6 3 4 4 3 8 13 20 31 32 31 30 29 30 33 30 28 28 34 37 30 36 33 26 26 30 31 31 31 31 28 27 27 30 29 28 25 23 20 16
13 13 10 9 6 9 11 10 1 6 5 4 2 2 3 1 6 16 22 29 30 28 27 29 27 27 29 36 34 35 36 31 27 26 24 19 29 29 27 26 26 26 29 30 27 26 21 17 11
13 9 9 6 8 6 7 5 5 3 2 4 2 2 2 2 5 6 11 15 19 22 24 25 25 25 26 27 21 28 32 24 21 21 17 19 24 24 23 26 28 27 28 28 26 21 17 16 19
15 19 17 10 12 7 7 12 14 7 9 4 9 5 3 3 1 5 8 10 13 16 20 22 22 23 23 24 20 25 26 21 23 20 18 20 20 20 22 22 25 24 27 24 22 20 17 21 18

GFSSGP_850_spd_048.txt.gz
Wind_Speed
4 3 4 11 7 8 17 20 22 22 3 8 16 18 4 19 9 4 6 11 9 20 15 21 22 28 30 29 27 25 23 21 18 16 19 21 22 23 25 25 26 24 25 24 24 25 24 25 26
4 10 11 17 10 13 13 19 16 4 7 1 2 8 3 15 6 6 2 8 12 14 16 20 23 26 29 29 26 24 22 21 18 18 22 23 24 26 26 26 26 25 25 25 24 24 24 24 25
4 6 12 11 13 14 16 9 19 3 10 7 10 22 20 9 2 6 2 20 29 23 17 18 22 26 31 29 27 24 22 20 18 22 24 26 27 27 27 26 25 25 24 24 23 22 22 23 25
6 13 14 11 15 17 18 3 9 12 11 5 14 10 12 12 5 7 13 20 25 24 17 21 24 26 27 30 27 24 23 20 21 25 26 28 28 27 27 26 25 24 23 23 22 20 20 21 24
11 14 11 16 19 20 9 14 10 8 15 3 16 14 9 11 1 10 14 20 28 25 24 29 13 22 27 28 26 25 22 23 26 28 28 29 29 27 27 26 25 23 22 22 20 19 19 20 21
18 21 13 11 15 3 18 31 21 16 12 15 10 9 6 14 10 9 12 17 21 28 27 24 29 27 24 25 26 24 23 26 28 29 31 30 29 27 27 26 24 22 22 20 18 17 17 17 19
15 12 16 18 13 13 6 17 15 30 17 12 24 4 6 7 11 9 13 14 24 26 26 28 25 24 24 23 23 23 25 28 29 32 32 30 29 27 25 24 23 22 20 18 16 15 16 16 17
16 11 19 15 2 5 5 13 29 15 4 8 18 2 8 13 5 9 7 14 21 29 25 31 28 24 19 16 19 25 28 29 30 31 30 29 27 26 25 23 22 20 19 15 14 13 13 14 16
15 11 10 13 10 3 7 5 8 31 3 15 17 35 2 5 5 7 13 20 19 25 33 32 31 29 31 20 17 20 24 25 28 29 28 28 26 25 23 22 20 18 15 13 13 11 10 13 15
11 12 7 13 8 12 14 10 13 8 15 15 39 30 6 4 11 16 16 22 27 26 27 31 31 31 34 37 27 21 21 25 26 27 28 27 26 22 22 19 17 15 13 11 11 13 13 10 11
16 12 7 17 8 9 15 10 16 6 7 2 4 6 7 7 10 17 20 29 30 28 31 34 34 36 39 38 42 32 29 28 28 28 28 26 21 15 17 17 15 13 11 9 10 12 9 6 8
7 14 14 14 13 8 14 9 7 18 13 14 12 10 8 8 11 11 16 21 30 32 34 33 29 30 36 36 36 38 35 30 30 25 24 18 16 13 16 15 14 12 9 9 8 7 8 8 5
10 14 12 10 7 8 13 25 35 15 17 15 13 11 10 9 8 6 8 16 23 27 32 35 39 43 42 43 43 34 34 32 26 24 22 19 14 13 9 8 6 6 6 5 7 10 6 5 4
14 11 17 11 14 3 19 9 29 8 14 14 12 10 7 7 6 8 12 15 20 26 32 37 40 40 41 39 33 35 28 29 25 24 28 20 13 16 13 14 10 9 15 11 11 5 4 3 3
14 15 16 6 13 3 12 7 6 17 3 13 14 11 10 10 11 11 15 14 19 26 27 33 36 35 40 42 40 36 30 31 34 26 18 20 12 17 14 17 13 18 13 13 10 12 6 9 4
15 18 16 8 12 6 13 4 14 20 10 11 18 14 16 15 13 12 13 14 16 31 37 38 38 39 41 37 31 34 36 35 28 21 17 22 21 15 15 13 18 15 16 18 15 13 10 8 8
16 14 12 12 8 4 9 2 19 24 15 12 21 16 17 15 15 13 13 16 18 27 24 28 28 34 36 26 30 39 31 17 20 16 22 21 23 16 20 17 17 19 19 14 11 9 11 11 12
15 13 9 7 5 9 10 16 16 18 16 12 19 20 22 20 17 19 19 24 25 29 26 24 30 31 35 36 34 19 17 19 19 23 21 20 21 24 21 20 19 20 16 14 16 15 15 14 11
15 15 11 15 9 7 10 4 17 7 19 18 19 20 22 21 22 21 24 24 25 25 27 29 34 38 38 42 42 26 24 24 26 24 20 23 21 23 24 20 21 19 17 16 17 18 18 19 20
12 14 15 6 8 4 11 8 20 18 24 20 22 24 25 23 25 27 28 27 24 21 22 31 32 32 32 33 30 26 24 22 23 23 22 22 23 23 22 22 21 21 18 20 21 21 21 17 17
12 15 7 9 9 10 11 13 12 16 17 21 22 25 29 31 31 30 32 31 33 30 25 25 24 30 30 25 25 25 20 20 22 24 25 29 29 23 23 20 22 22 19 22 23 23 20 17 20
14 9 11 6 9 10 4 10 6 11 13 12 20 24 26 27 34 34 35 36 35 34 30 31 32 29 28 23 23 23 26 24 25 25 25 23 22 27 23 22 22 24 24 23 26 23 21 22 18
12 4 9 9 11 12 5 8 1 10 14 15 15 24 28 30 32 36 37 36 40 33 38 33 33 30 29 27 28 23 25 20 24 26 26 29 25 24 25 24 24 29 27 25 26 23 20 22 25
8 8 10 12 11 9 14 9 4 4 9 12 20 23 26 32 34 35 37 36 36 36 36 36 36 36 35 31 27 26 26 23 22 23 25 27 21 18 25 26 26 30 29 25 26 26 25 28 26
9 9 8 6 7 8 9 6 6 13 17 13 16 26 29 29 33 34 36 38 37 39 39 39 39 37 34 31 28 26 24 21 27 27 23 23 16 18 28 22 26 31 28 26 27 29 30 29 23
13 14 7 6 3 7 10 5 7 13 5 4 2 4 18 30 32 34 35 39 39 40 40 40 40 38 36 36 32 30 27 29 31 30 33 30 28 25 33 32 28 29 30 28 30 31 29 25 23
15 14 16 7 7 7 5 7 14 11 7 5 8 6 8 11 26 32 35 38 41 42 42 43 41 37 37 38 42 43 27 31 33 35 28 27 29 30 32 33 29 28 29 28 30 32 29 23 21
17 11 10 9 4 4 8 12 5 10 8 8 6 5 7 3 5 17 33 35 39 43 43 42 41 39 38 38 43 44 38 33 30 36 32 27 30 30 24 24 26 26 26 29 30 30 27 23 19
12 16 9 15 10 6 4 1 6 12 3 7 4 11 3 3 9 5 8 14 34 37 46 47 42 38 34 34 39 43 45 40 34 32 31 27 22 22 23 22 25 25 25 29 31 30 26 22 22
18 17 16 8 8 4 2 6 2 6 7 5 9 7 6 2 2 9 6 7 11 12 14 30 35 34 28 32 35 30 31 38 32 31 27 23 21 21 21 22 22 23 26 31 31 27 21 23 26

GFSSGP_850_spd_051.txt.gz
Wind_Speed
3 2 5 5 2 2 8 11 13 14 5 3 3 3 7 9 4 4 6 19 12 12 19 19 26 29 29 30 29 27 25 23 21 21 24 25 26 28 28 28 28 29 28 28 29 30 32 33 31
3 5 9 7 2 3 9 14 22 3 3 10 8 8 5 4 4 7 7 12 12 20 27 19 22 29 29 28 28 26 25 23 21 24 25 26 28 28 28 29 29 28 28 29 29 29 30 32 32
4 6 4 3 3 9 8 12 9 6 6 4 2 1 6 4 9 4 8 7 10 14 22 35 29 29 29 29 28 26 25 23 23 26 27 29 29 29 28 30 28 28 28 28 28 29 32 32 29
3 5 7 2 14 19 4 6 10 10 6 20 16 8 10 16 11 8 3 12 18 18 19 24 34 25 29 31 29 26 25 23 26 28 29 30 30 29 28 28 28 27 27 26 27 27 28 28 26
9 6 2 5 13 18 3 1 10 9 11 16 14 5 5 1 5 4 8 13 21 20 23 25 25 28 26 27 31 26 24 24 27 30 31 31 30 29 27 27 27 26 25 25 25 25 27 26 27
7 6 4 10 15 5 1 6 5 6 11 15 10 6 1 6 9 1 9 20 19 19 22 23 22 23 11 32 28 25 23 26 29 31 31 31 30 29 27 26 26 25 24 23 22 22 23 24 23
10 2 7 9 16 4 2 7 3 11 24 13 7 4 2 6 9 3 18 20 21 17 23 21 20 19 29 20 29 24 25 28 30 30 30 29 29 28 26 25 25 24 21 20 20 20 20 22 22
21 3 9 9 10 3 2 3 16 19 7 6 6 5 3 21 9 6 9 16 23 22 25 22 29 32 28 26 25 20 25 27 30 31 30 28 28 27 25 25 24 22 19 18 19 18 19 22 23
23 3 7 13 7 4 11 3 4 10 12 4 1 1 4 10 7 7 9 17 22 28 27 31 26 27 28 26 27 20 24 28 30 29 29 29 28 26 24 23 21 19 18 18 17 18 19 17 16
5 3 10 14 1 4 12 11 3 6 3 3 4 2 7 9 9 11 10 20 26 24 31 26 27 29 29 23 29 29 26 29 30 30 28 28 27 25 24 22 20 16 16 16 15 17 15 14 10
17 7 10 12 4 8 7 15 32 9 3 3 6 4 12 12 12 11 14 20 25 28 30 30 28 27 28 35 35 32 30 29 30 29 28 27 24 23 21 19 17 16 13 14 16 14 11 11 8
7 11 12 15 9 7 6 6 11 24 12 7 7 11 12 7 10 14 19 21 24 27 29 31 30 30 32 41 43 39 35 32 31 31 28 23 19 17 17 16 15 14 12 12 12 11 9 8 7
5 6 12 16 9 20 14 10 10 12 7 7 7 9 10 13 13 20 24 28 28 29 34 33 34 34 39 38 40 40 35 32 31 28 24 23 20 14 16 15 13 11 10 11 10 7 6 9 10
16 14 11 16 4 8 8 5 7 3 7 6 6 5 7 9 10 15 21 25 27 32 34 36 37 36 41 44 46 45 42 36 30 29 24 21 17 13 14 14 11 9 9 9 8 9 8 8 6
24 8 9 14 6 5 17 5 4 8 5 13 11 7 6 7 8 11 19 22 27 33 34 36 34 38 44 40 39 47 42 30 27 31 24 22 17 16 14 12 14 13 13 11 13 12 7 6 5
9 8 6 12 7 6 11 8 5 7 6 20 17 10 10 10 8 12 13 18 19 23 31 36 40 42 41 39 38 42 35 32 34 34 29 24 19 19 17 16 17 15 16 15 16 13 12 10 9
5 10 12 14 8 6 4 3 10 5 11 14 22 18 16 10 7 7 11 16 24 27 30 35 40 40 37 35 41 43 34 31 35 38 29 29 22 17 20 21 19 20 19 18 20 18 15 12 12
8 7 8 5 6 9 6 7 6 15 11 16 24 23 22 18 14 11 14 16 25 26 29 30 32 39 40 36 34 40 38 33 36 30 27 28 25 24 22 24 20 22 21 20 21 17 15 16 17
17 15 9 5 7 4 11 12 12 18 11 13 23 29 25 24 19 13 18 22 30 26 26 32 33 35 37 33 38 43 39 23 33 33 28 23 23 25 31 25 26 25 21 20 21 20 21 22 20
13 5 8 4 4 5 10 11 15 13 17 22 27 29 30 29 26 23 23 28 31 31 28 31 34 37 35 37 39 38 35 26 24 29 26 24 24 23 25 28 27 26 22 22 23 24 23 23 24
7 6 7 3 3 6 3 5 10 7 6 12 29 35 32 35 33 31 31 28 29 27 30 32 35 39 43 43 41 36 27 20 25 27 30 28 27 29 29 25 26 28 25 25 26 26 24 23 22
6 9 4 9 0 3 3 3 9 10 15 20 26 32 34 38 33 35 33 31 31 29 29 31 34 37 36 36 39 35 29 27 26 25 30 28 31 31 30 25 24 27 27 23 28 26 26 22 22
10 7 2 4 6 5 5 3 5 19 18 20 17 33 39 41 38 40 37 34 31 31 31 31 32 33 34 35 33 32 31 30 25 24 28 30 31 30 28 30 28 24 25 28 27 27 27 25 27
8 3 3 3 2 4 10 5 4 7 10 16 25 35 41 42 44 40 36 35 34 33 35 34 36 36 34 36 32 34 34 32 31 29 28 34 30 29 25 25 31 27 30 31 26 24 27 27 28
6 1 3 5 3 6 5 6 8 11 9 16 19 36 40 45 48 45 44 42 41 43 42 42 42 39 37 36 35 32 33 31 33 31 32 35 33 31 31 21 25 27 27 26 26 28 29 30 27
7 7 5 5 2 4 6 4 5 8 12 12 23 39 40 43 45 46 46 43 41 42 45 46 45 45 42 42 41 34 30 37 41 30 32 28 28 28 21 16 25 23 27 26 26 31 31 31 32
5 5 8 5 2 4 5 5 5 4 4 3 8 16 32 40 42 47 47 46 47 48 47 49 48 47 45 46 44 38 40 42 39 32 33 33 31 28 28 24 28 25 27 26 29 32 31 33 33
11 4 3 2 5 4 6 5 4 5 8 6 3 6 9 29 42 47 49 49 48 49 48 51 52 50 49 49 46 45 42 44 41 35 33 31 30 27 29 29 30 27 26 27 28 29 30 31 30
5 9 3 5 5 6 2 5 5 5 2 6 7 14 10 10 13 29 39 42 50 50 49 50 42 37 45 48 50 49 47 45 40 35 28 27 30 31 31 24 20 22 27 28 28 27 29 30 31
13 11 9 5 5 2 5 5 8 10 10 10 17 18 15 15 14 8 7 14 27 44 36 44 38 45 46 43 46 48 49 36 46 43 39 30 26 26 22 20 22 24 27 28 28 28 30 30 28

GFSSGP_850_spd_054.txt.gz
Wind_Speed
2 1 3 4 3 4 4 7 5 12 3 16 9 2 8 10 4 4 5 18 28 30 26 19 16 23 29 29 28 27 25 24 28 31 32 31 30 30 31 31 30 30 30 31 32 30 29 26 22
1 3 4 1 3 1 5 6 4 15 11 6 9 3 6 3 6 9 13 25 25 13 21 24 22 32 23 27 27 26 26 26 30 32 32 33 33 33 34 32 31 31 32 32 30 30 28 25 23
1 2 2 4 3 4 4 4 11 11 15 4 5 9 4 3 7 5 9 15 18 18 26 31 30 35 28 28 29 28 27 27 30 32 33 33 35 35 35 34 32 32 31 30 31 30 27 22 20
2 2 2 3 7 10 6 13 9 7 8 14 3 6 5 6 2 3 3 6 14 22 32 33 22 26 42 39 34 30 27 29 31 33 35 34 34 36 34 33 32 31 30 31 31 29 25 20 18
3 1 2 2 8 7 8 13 10 8 5 7 4 2 5 2 4 6 5 8 18 21 26 29 23 30 34 40 33 33 29 30 33 34 35 34 34 34 34 33 31 30 29 30 30 28 22 18 18
2 1 3 4 6 7 6 7 7 6 4 3 4 5 4 3 4 9 9 9 15 12 29 26 25 28 30 21 22 22 25 30 33 35 35 36 34 33 32 32 30 29 27 28 28 27 24 21 17
5 3 5 5 12 10 3 9 9 6 2 3 4 2 3 7 3 6 9 11 14 17 25 27 27 31 32 21 24 15 23 29 33 35 35 35 33 32 31 30 29 27 25 25 24 25 23 24 19
3 4 4 5 3 9 4 4 6 5 2 5 1 3 3 6 3 8 11 9 12 25 29 30 29 24 19 21 29 30 25 29 32 34 34 34 31 31 31 29 26 24 23 23 22 22 21 20 14
9 1 5 7 2 5 9 4 5 9 7 4 8 5 8 9 1 9 9 6 19 26 29 23 26 27 33 31 38 32 25 27 31 32 33 33 31 30 29 27 23 21 22 22 21 21 21 19 12
5 2 8 7 4 5 6 8 3 4 8 2 10 10 6 4 5 13 14 11 15 18 25 32 32 36 36 28 36 38 34 32 32 32 33 34 32 30 29 26 23 20 20 21 21 20 17 15 11
4 7 16 24 18 14 10 8 2 5 2 5 6 8 3 3 3 12 16 16 22 26 35 34 34 33 31 37 36 38 37 37 33 32 32 33 32 31 28 25 21 18 17 18 18 14 12 12 9
2 18 24 20 6 7 6 9 3 3 3 9 7 2 4 4 5 7 14 22 29 29 29 30 33 27 31 36 40 40 40 37 36 34 32 33 31 30 24 20 20 15 14 17 15 11 9 9 6
6 6 19 11 9 14 14 3 7 7 8 9 8 4 4 4 8 10 14 17 28 31 31 28 27 29 34 42 40 39 40 38 38 36 33 30 30 27 21 20 14 14 15 14 11 9 6 5 6
8 16 16 8 10 9 6 5 5 8 11 10 10 7 6 5 8 13 18 21 27 28 27 31 31 31 38 41 39 38 38 38 37 36 30 25 26 21 18 15 14 14 12 12 10 8 3 6 9
13 7 10 7 9 6 5 2 3 9 15 12 10 9 6 5 7 10 15 20 27 31 29 33 30 34 41 42 39 41 40 40 38 32 28 27 21 16 15 13 15 15 14 13 10 9 8 9 9
5 3 3 2 5 4 2 7 5 16 18 16 10 9 7 6 5 8 11 18 23 25 28 32 34 35 40 45 43 41 42 36 36 33 30 30 24 19 16 16 18 16 17 16 12 13 12 11 10
2 6 6 10 8 7 6 7 4 18 18 20 17 13 11 8 5 7 10 13 17 20 25 31 33 36 41 42 41 38 39 39 35 31 31 27 22 19 20 16 14 15 15 16 16 17 15 14 14
6 4 3 6 4 3 4 8 1 13 17 23 21 19 17 12 6 7 12 13 18 20 21 27 31 35 36 39 41 42 41 34 33 34 33 30 25 21 21 19 18 16 18 18 21 20 17 18 17
5 7 11 16 11 4 8 6 8 9 9 16 21 22 21 16 9 10 14 17 19 19 21 26 32 33 35 37 45 43 43 32 33 35 36 26 23 21 21 21 22 20 22 22 22 21 22 22 20
8 10 15 10 5 7 5 11 1 4 5 18 23 26 26 22 17 16 17 22 26 24 23 30 36 36 37 42 43 43 40 39 37 34 37 35 29 26 26 28 29 25 25 24 25 25 25 23 23
13 12 10 7 4 2 6 6 3 4 12 12 23 31 29 31 26 24 24 27 29 29 29 30 36 38 41 37 39 40 41 33 37 40 37 36 31 30 25 24 26 28 28 29 27 27 27 28 28
13 13 6 6 3 3 5 4 4 8 11 8 24 28 34 34 28 30 31 32 32 30 30 32 33 36 41 36 35 42 46 40 36 35 36 37 36 32 26 25 26 27 28 31 30 29 31 30 29
9 6 9 5 3 2 4 2 6 12 9 14 19 29 34 38 35 37 37 34 31 30 31 31 33 39 40 38 44 46 47 39 32 32 33 34 35 33 28 29 30 26 27 30 31 31 33 32 29
9 2 5 5 2 3 6 6 4 7 19 18 20 27 37 41 40 38 38 35 33 33 33 34 34 37 42 47 45 44 39 35 33 33 31 29 32 33 30 29 29 27 29 30 30 29 30 26 29
4 5 2 3 3 6 5 3 8 16 15 20 23 32 36 43 45 45 42 44 40 40 39 40 38 38 43 45 40 39 39 38 38 35 31 31 34 36 33 33 33 27 23 28 26 33 29 26 31
7 8 5 5 3 4 5 5 5 6 10 26 35 40 37 41 47 49 49 46 45 45 45 44 44 43 44 45 44 41 39 39 39 38 36 36 37 33 34 34 29 26 21 26 28 28 25 29 31
5 3 8 6 2 2 4 7 9 2 2 9 24 27 31 42 46 50 52 49 48 48 49 49 48 46 44 46 44 43 42 41 42 40 39 40 39 36 37 35 32 25 23 24 24 26 26 27 29
10 6 4 2 5 3 4 4 6 3 6 5 8 24 33 41 44 50 49 51 50 48 49 50 50 49 46 44 42 42 43 43 43 41 40 38 34 35 30 27 34 28 24 26 22 24 23 26 27
2 3 2 5 5 6 2 5 7 9 6 6 6 22 34 39 42 45 50 50 48 50 50 49 49 50 47 46 43 45 49 50 52 47 41 39 32 35 31 32 29 28 27 27 25 25 26 25 27
4 8 9 5 5 3 4 8 5 9 9 9 9 15 21 24 30 38 42 45 47 47 44 46 49 50 46 42 28 42 47 54 56 51 37 37 33 33 34 28 27 26 26 24 23 24 26 27 27

GFSSGP_850_spd_057.txt.gz
Wind_Speed
3 3 5 2 4 5 4 6 3 7 5 5 6 2 6 3 1 2 11 16 24 31 36 36 36 38 30 19 17 22 22 22 24 28 29 30 31 30 32 32 31 30 29 29 27 26 25 26 26
3 1 3 4 4 3 5 5 6 5 11 5 8 7 3 1 2 6 16 21 30 34 32 34 36 31 31 11 17 22 23 23 26 29 29 31 32 33 33 32 31 31 30 28 26 24 25 26 25
2 3 2 4 3 4 4 5 6 12 10 1 3 5 2 6 8 13 15 22 25 30 32 30 31 23 28 30 36 31 24 24 28 30 31 33 34 34 34 33 33 33 31 28 26 27 27 26 27
3 4 4 3 6 7 7 9 9 8 6 9 3 2 2 6 7 6 15 28 34 26 23 29 34 31 27 37 36 29 26 28 29 31 33 35 35 35 34 34 34 33 31 29 24 24 24 26 24
2 4 3 2 5 6 6 9 5 2 3 5 2 3 2 6 5 12 13 20 35 33 26 28 27 28 33 36 36 37 36 34 30 31 34 36 36 36 36 34 33 32 31 28 21 21 21 22 20
3 3 3 3 5 6 7 8 3 2 3 4 3 0 1 2 2 8 10 11 18 28 33 36 32 26 28 28 34 34 32 30 30 30 34 37 36 36 35 33 33 33 31 26 21 20 21 19 17
6 4 4 4 5 6 4 6 1 4 4 4 2 2 1 5 6 8 11 13 15 23 28 35 30 33 32 24 16 27 27 30 31 31 34 36 35 36 35 34 33 32 30 25 20 22 22 18 15
5 4 1 5 3 6 3 7 4 7 5 2 3 4 3 5 7 6 12 13 16 18 23 29 35 39 38 30 30 34 29 28 33 32 34 35 35 34 34 33 31 30 28 25 20 20 19 16 15
6 3 3 5 3 5 8 4 4 1 3 4 4 3 7 6 2 10 13 13 16 21 22 30 28 39 43 30 30 39 36 34 35 34 35 35 35 34 33 31 29 28 27 25 21 18 18 14 11
4 4 6 7 6 6 5 8 10 5 3 3 4 2 2 2 4 8 10 7 9 15 15 29 28 25 23 36 36 37 33 32 34 35 35 35 35 33 31 29 28 27 25 23 22 16 13 11 9
5 5 5 19 18 19 7 4 5 3 3 6 6 4 5 3 2 7 13 14 10 21 27 26 22 22 23 34 44 45 42 37 33 35 36 36 36 33 30 29 28 25 22 24 22 18 14 12 10
2 10 10 10 17 12 4 5 4 4 2 3 3 1 3 2 1 5 12 14 16 33 33 32 28 34 38 39 43 40 39 40 40 36 37 35 35 32 28 25 24 23 21 19 16 14 13 11 8
5 4 8 16 7 10 8 7 5 4 7 6 4 3 3 3 5 6 11 18 28 35 39 39 37 39 41 40 42 44 41 41 40 39 37 36 35 30 26 24 22 20 19 15 13 11 11 8 5
5 8 15 9 9 10 8 4 1 9 12 9 6 3 4 4 3 4 11 18 21 28 32 35 39 33 39 39 40 41 41 43 41 39 36 36 33 29 25 22 20 16 14 13 10 8 6 5 4
4 5 7 4 9 6 6 5 8 10 17 11 7 5 4 4 6 6 10 15 22 28 35 28 26 29 35 35 38 40 40 39 38 37 35 35 31 27 22 21 18 14 12 12 11 9 7 5 6
5 1 2 2 5 4 7 14 1 15 22 16 11 8 7 6 4 5 9 13 21 27 27 25 30 29 36 38 37 36 37 36 36 35 35 32 27 21 20 20 16 14 13 14 11 9 8 7 8
2 5 2 7 9 2 5 9 1 20 20 15 13 12 10 7 5 5 8 10 16 19 25 28 31 33 37 36 40 40 39 38 36 35 31 28 23 26 22 19 18 13 15 18 16 12 11 12 12
5 4 2 5 3 2 2 17 2 15 17 17 18 17 15 13 7 3 6 8 10 13 17 24 32 39 41 44 40 38 34 39 38 34 31 24 24 24 21 21 16 14 16 17 16 15 16 16 15
1 2 4 9 10 7 10 5 10 8 12 14 20 21 19 16 9 6 6 10 13 15 14 16 26 33 38 40 41 40 38 40 36 35 30 30 27 28 25 17 17 18 17 16 17 17 21 21 19
5 6 10 9 11 8 6 8 6 7 6 19 24 25 23 18 16 11 10 14 17 16 20 20 22 29 35 41 39 36 38 38 40 39 36 30 30 26 21 18 19 19 19 18 20 21 24 25 23
8 7 8 8 8 3 3 7 3 5 6 16 21 24 22 22 21 17 15 16 19 22 22 22 23 27 35 38 41 39 39 40 41 39 42 38 31 27 23 20 22 24 25 24 24 24 26 29 28
8 10 12 8 4 4 4 4 5 5 6 8 16 24 28 26 23 20 18 17 19 22 21 21 24 28 32 35 41 45 42 43 41 45 44 40 37 32 31 26 24 25 25 27 29 28 29 30 31
10 5 10 11 5 3 2 2 6 1 7 11 11 25 29 31 29 26 24 19 18 19 20 21 25 29 29 32 36 38 45 47 45 42 41 44 40 38 35 32 30 29 28 29 29 29 30 31 34
9 3 1 2 3 2 5 5 5 5 8 7 8 23 31 32 33 29 25 23 22 21 23 26 30 33 35 38 40 38 43 45 47 45 42 45 41 39 39 38 35 32 31 33 32 28 27 30 28
4 3 3 2 1 6 5 3 8 9 13 13 15 27 34 34 35 35 33 32 29 29 28 30 32 34 36 39 41 39 42 48 49 42 39 39 40 39 40 37 37 33 34 33 26 33 30 27 31
6 9 5 6 4 5 3 5 6 7 16 20 24 31 31 33 37 40 40 37 35 34 34 34 35 35 38 43 43 42 42 44 44 40 40 41 40 36 34 32 34 34 34 32 32 28 32 30 29
4 5 7 6 3 2 4 6 7 6 5 4 15 18 28 35 38 41 43 42 39 39 39 39 39 38 38 43 45 46 45 44 44 42 42 42 40 39 33 30 32 35 36 36 32 28 28 28 25
6 5 2 2 5 4 3 4 5 6 6 7 6 17 30 35 38 40 41 45 44 42 41 42 42 42 41 41 45 47 46 44 44 43 42 41 40 38 37 36 35 36 40 42 33 30 28 25 25
2 4 3 2 5 6 1 5 7 7 8 8 8 18 28 33 38 42 42 43 47 46 43 44 46 47 45 44 45 47 47 43 45 48 44 42 41 40 36 31 35 32 36 42 36 32 27 25 26
4 7 8 5 4 2 4 9 4 9 7 6 7 13 17 27 33 39 42 43 43 46 49 50 48 50 50 51 46 47 52 54 51 50 47 35 38 42 42 36 42 30 35 39 37 30 27 30 26

GFSSGP_850_spd_060.txt.gz
Wind_Speed
4 4 2 2 4 5 2 5 3 5 4 5 11 4 4 0 2 3 6 18 29 29 33 34 35 35 32 30 29 26 24 31 33 31 28 27 26 27 27 28 27 26 26 26 27 28 28 27 25
4 3 1 3 5 3 5 4 6 7 7 8 2 3 5 4 3 3 12 18 21 31 33 34 33 34 35 34 29 29 33 31 24 25 26 26 27 29 30 30 29 28 28 27 28 30 29 28 27
3 3 1 4 4 3 4 6 8 6 11 3 2 1 2 3 3 7 5 17 24 29 37 36 33 32 33 33 32 29 28 28 24 27 27 26 29 32 33 31 31 29 27 28 28 29 28 29 27
3 2 4 3 2 6 7 8 7 6 1 2 2 3 4 10 7 10 10 21 22 34 40 40 38 36 30 20 22 27 26 26 27 30 28 30 32 34 33 32 31 29 29 31 30 30 29 28 28
3 2 4 2 4 5 6 13 12 4 4 3 1 2 3 7 10 8 15 23 25 27 34 35 38 38 29 24 29 34 29 31 32 27 30 32 33 33 34 34 31 29 31 30 30 29 27 26 25
2 3 3 2 4 5 6 9 4 4 4 3 1 1 5 7 10 9 12 24 27 28 34 31 33 36 27 25 31 37 34 31 29 31 33 33 35 35 35 34 32 29 28 29 28 27 25 24 22
5 4 4 3 4 6 5 3 4 3 2 3 3 3 3 7 8 7 14 15 24 35 36 33 28 28 32 35 37 40 35 29 29 28 36 36 36 36 34 33 30 27 26 26 26 25 23 21 19
4 4 3 3 2 6 3 2 5 6 5 4 4 4 2 3 8 10 14 16 14 17 28 29 33 36 36 37 40 41 37 33 31 33 38 37 36 33 32 33 30 26 25 26 25 23 19 18 17
5 3 3 4 5 6 6 3 5 5 6 3 5 6 7 10 8 7 13 14 17 18 21 26 33 37 38 36 32 36 38 35 32 36 38 38 35 33 34 33 30 26 24 25 24 22 20 18 16
4 4 7 7 6 7 16 6 4 3 4 4 8 8 7 5 4 9 12 13 12 15 19 26 35 35 41 32 22 35 42 45 36 36 38 38 36 33 33 32 29 25 22 23 22 16 14 13 13
6 6 5 7 17 19 9 3 5 3 5 11 6 3 3 3 3 7 9 8 11 13 10 21 22 35 28 20 39 44 44 39 39 42 40 38 37 35 33 32 30 25 22 21 21 16 12 11 10
3 11 8 11 5 5 3 4 3 9 8 3 4 4 5 4 3 6 12 13 6 14 14 16 27 18 21 37 44 42 43 38 36 36 39 39 38 35 33 31 29 27 23 20 18 17 15 13 11
4 5 6 11 20 8 6 7 4 11 13 7 5 6 6 5 5 4 8 15 10 14 26 30 29 25 31 45 47 45 43 43 41 35 37 38 36 35 33 31 28 26 24 19 17 14 13 10 8
5 8 12 10 10 7 5 1 1 10 14 10 6 5 5 5 4 3 6 12 16 21 27 30 29 26 39 46 44 46 44 44 41 38 35 37 35 33 32 28 24 24 23 19 13 11 11 8 7
5 4 6 5 3 5 6 6 10 17 15 12 9 6 4 6 6 6 6 13 13 27 29 18 28 31 38 41 41 45 45 43 40 40 37 36 34 32 31 28 23 22 19 15 14 12 9 6 6
2 3 3 4 5 1 8 10 2 11 19 16 12 11 8 7 5 5 9 13 16 23 21 26 33 34 39 37 40 40 39 38 40 39 37 35 34 31 27 25 20 19 17 13 11 9 8 6 4
5 4 4 7 6 4 5 9 3 9 14 14 16 14 9 6 6 5 8 11 14 19 25 28 28 24 33 34 31 35 37 35 37 36 35 38 36 29 25 21 19 18 15 12 12 9 7 6 6
5 4 4 6 2 4 5 15 4 11 18 18 16 14 12 10 8 3 6 10 11 14 24 29 24 28 31 28 34 33 33 34 36 38 41 39 33 25 23 21 18 16 16 15 11 11 11 9 9
4 2 3 7 5 2 8 9 15 8 15 15 18 18 17 12 9 6 6 9 13 13 16 19 25 30 31 33 38 36 37 37 36 38 38 34 28 29 24 22 20 16 16 11 9 13 14 13 14
3 2 7 10 7 6 8 10 8 5 7 18 22 21 19 15 15 13 11 14 14 13 13 15 22 30 38 37 36 38 34 36 36 35 34 32 27 21 23 21 18 19 18 16 17 15 16 16 19
6 6 5 8 8 4 2 7 6 4 7 9 20 21 20 20 20 19 17 16 15 19 19 18 19 27 39 39 42 39 36 38 41 34 36 38 33 26 23 23 23 20 17 16 17 18 18 19 20
7 10 10 7 2 4 3 5 6 4 7 7 16 23 24 22 22 19 17 15 14 17 20 21 22 27 34 43 42 44 41 41 43 43 38 35 33 27 28 28 20 19 19 19 21 22 23 23 24
9 6 8 5 5 1 3 2 7 3 7 8 11 25 25 25 24 24 21 15 14 14 20 22 24 25 32 39 40 47 46 41 36 41 40 40 42 35 30 28 27 25 23 22 23 23 26 27 29
4 4 2 3 3 2 7 5 5 4 9 5 5 25 28 26 26 24 21 18 17 15 17 22 26 30 32 35 37 43 49 46 43 43 41 45 40 45 38 37 34 33 32 29 28 30 30 32 29
4 4 1 2 0 5 3 2 10 9 9 10 9 18 27 28 27 26 27 25 22 22 20 21 25 31 34 36 38 40 45 46 45 47 48 47 44 47 48 42 40 40 37 33 33 34 34 30 32
7 7 5 6 3 4 1 5 6 6 11 15 18 21 18 23 27 28 28 27 25 25 25 25 26 28 33 35 37 38 40 41 45 47 50 50 50 47 46 46 42 39 37 38 37 35 35 34 31
5 4 6 6 2 2 4 6 9 8 9 4 5 8 17 20 25 29 29 30 29 28 29 29 29 28 31 33 35 39 40 41 42 44 44 46 48 46 42 40 39 37 33 31 32 37 36 33 29
7 7 3 1 5 4 3 3 5 8 9 9 5 9 15 19 22 26 29 29 31 32 30 30 31 30 30 31 35 37 39 41 41 41 46 45 44 42 39 38 37 36 39 38 35 38 37 36 32
3 3 2 4 4 5 3 5 7 10 7 8 9 14 15 18 22 24 28 29 29 32 35 35 35 34 35 35 34 35 38 38 39 41 42 44 44 43 39 35 35 36 32 31 31 31 36 38 35
4 7 9 4 4 3 3 8 4 9 6 7 12 14 11 13 20 21 24 28 31 33 35 38 38 38 38 37 38 40 41 42 41 44 45 47 46 45 42 41 42 37 38 36 33 35 36 36 31

GFSSGP_850_spd_063.txt.gz
Wind_Speed
6 5 2 2 2 1 1 3 2 3 2 4 8 5 4 5 6 5 3 17 18 31 38 41 40 31 29 32 33 32 29 30 32 33 29 29 27 26 24 23 22 21 21 21 22 24 25 24 25
6 5 1 2 1 0 1 3 7 7 5 7 4 5 5 4 8 7 4 14 19 29 33 37 32 30 31 32 33 31 24 26 32 30 29 29 27 26 25 25 24 22 22 24 26 26 25 25 24
6 5 1 3 2 2 3 5 8 5 13 7 4 7 3 3 7 4 6 19 20 26 28 29 34 35 34 35 36 29 24 26 31 31 32 29 28 26 26 25 25 25 26 28 28 27 27 26 25
6 3 4 1 3 4 4 7 6 8 2 7 3 5 6 8 4 8 9 18 24 31 33 33 30 29 30 29 31 31 32 31 33 33 31 29 28 27 27 27 27 27 27 27 28 28 28 26 25
6 2 2 1 3 4 5 8 6 6 3 3 3 3 4 7 12 6 8 16 28 25 37 36 36 28 37 27 34 36 34 35 34 33 30 29 29 29 30 29 28 28 29 30 29 29 29 27 26
3 2 1 3 4 4 6 7 1 6 5 2 3 4 4 7 9 9 11 15 22 27 35 35 33 36 35 31 30 34 34 33 33 31 31 30 31 30 30 29 29 31 32 31 29 29 27 27 27
4 2 2 2 3 4 4 3 4 5 4 5 3 3 5 6 9 10 11 17 20 25 33 36 36 37 34 26 30 30 32 35 35 32 34 34 34 31 30 29 30 31 32 30 28 27 25 24 24
6 2 4 4 3 4 5 3 4 5 4 4 4 5 4 5 9 13 15 17 17 22 30 35 39 41 37 29 28 34 34 35 36 35 36 37 35 34 31 30 29 30 30 28 27 25 22 22 20
6 2 4 5 6 5 5 5 5 5 5 5 7 10 11 14 13 14 11 14 17 15 18 34 38 41 41 35 35 39 40 37 33 34 35 36 38 34 32 30 29 28 28 27 25 23 22 21 19
5 4 8 6 6 6 11 8 7 4 5 6 10 15 13 12 10 8 9 11 10 12 13 18 32 41 41 39 42 43 40 39 36 32 37 39 37 36 34 29 27 26 27 25 23 21 20 18 19
6 7 6 6 15 11 7 5 5 5 8 10 7 8 9 8 6 5 8 9 8 9 14 31 26 47 42 46 48 43 37 40 37 37 35 34 36 37 34 30 27 27 26 27 25 21 18 16 16
4 11 8 6 6 3 4 3 4 12 4 3 6 7 7 6 5 6 7 7 8 10 11 23 28 20 30 30 27 30 38 41 38 35 35 38 38 39 35 32 29 28 27 25 23 21 18 16 15
6 8 7 16 12 11 6 9 6 11 11 9 7 8 8 5 6 6 6 8 10 6 9 11 21 27 24 21 28 38 45 42 39 37 39 39 38 37 35 31 29 27 26 22 20 20 18 16 14
6 10 11 10 13 6 6 3 2 3 13 12 10 9 7 5 4 5 6 6 9 8 20 21 20 23 23 23 31 41 42 43 43 36 36 37 36 37 35 32 29 27 23 21 20 18 15 13 11
2 6 7 9 5 4 7 6 9 7 12 13 12 11 7 6 5 7 7 7 11 15 31 26 23 22 23 34 37 44 41 39 43 37 37 38 35 35 34 32 29 26 21 17 17 18 15 12 11
3 1 5 1 5 2 6 13 3 3 15 14 14 13 8 7 8 9 10 9 13 12 25 31 21 27 28 36 37 41 39 39 44 38 37 37 33 34 35 33 31 27 24 20 18 16 13 10 9
0 6 6 6 4 3 5 8 0 4 13 14 16 14 12 9 9 8 8 12 14 20 17 24 22 29 36 38 40 40 38 38 40 44 37 38 37 36 33 31 30 27 24 19 16 15 12 11 10
8 5 4 5 1 2 4 15 16 9 14 15 15 15 15 14 11 8 7 9 14 18 22 18 19 29 32 37 31 41 39 38 37 41 46 36 38 34 32 29 26 26 21 20 19 15 13 11 9
7 5 4 5 5 3 6 13 18 8 12 14 15 16 17 17 12 10 8 8 12 14 20 21 26 29 28 39 34 41 44 42 37 40 38 36 38 34 29 28 26 23 20 17 18 14 13 12 12
6 6 9 10 2 8 10 14 15 5 6 12 17 17 17 17 17 14 11 10 15 19 20 24 26 23 28 37 33 39 43 42 36 39 40 38 37 34 31 29 25 24 18 19 16 17 14 15 14
11 13 7 10 6 3 5 5 6 2 4 7 13 15 16 21 20 17 14 15 19 20 22 24 24 26 29 31 39 40 34 32 37 39 37 45 41 38 35 29 26 23 19 18 18 17 15 16 15
15 12 8 7 4 4 3 7 6 7 7 7 13 17 18 21 22 18 18 17 20 22 20 20 22 25 30 34 35 43 41 43 41 41 44 44 40 37 34 28 26 21 22 20 18 21 20 20 20
11 9 11 7 6 3 2 4 4 2 7 10 10 19 23 25 26 25 20 15 14 20 23 23 22 24 31 36 38 42 46 42 42 40 38 39 38 36 37 35 31 26 31 23 21 20 21 21 23
8 5 4 3 2 5 7 5 5 3 6 4 6 9 18 25 27 25 21 18 16 17 22 24 26 27 30 38 41 43 47 44 43 42 45 41 40 42 38 35 34 27 28 26 24 23 23 24 26
5 8 3 4 5 5 3 6 13 9 13 10 12 15 12 22 27 28 29 27 24 23 24 28 28 31 32 36 40 44 45 45 43 44 48 45 43 41 44 37 40 34 32 32 30 30 30 30 29
18 13 6 8 6 4 2 6 5 9 8 10 15 16 12 19 29 31 31 30 27 25 26 25 26 31 34 38 41 44 45 48 47 47 53 48 47 48 47 44 45 42 39 38 36 34 35 35 32
6 10 6 5 2 1 4 5 8 8 9 4 10 6 8 17 24 31 31 31 30 28 27 26 26 27 31 34 37 41 43 46 50 50 46 48 47 48 47 48 43 43 44 43 41 38 37 35 34
5 9 5 0 7 8 3 4 6 7 10 8 9 6 6 10 17 24 31 31 31 30 27 26 26 26 25 30 34 36 39 42 46 53 54 52 52 52 50 50 50 47 45 42 39 39 38 39 37
7 8 2 4 3 8 6 5 7 11 8 7 7 12 5 9 16 19 24 29 30 31 31 31 31 30 31 30 31 34 37 39 41 44 45 47 47 49 51 51 50 46 42 39 38 41 39 32 36
4 8 10 5 5 1 1 8 3 9 7 7 12 12 9 8 9 14 18 22 27 31 34 36 36 35 33 32 32 33 35 39 42 42 41 43 43 43 44 45 45 44 41 40 38 37 34 37 33

GFSSGP_850_spd_066.txt.gz
Wind_Speed
7 6 3 3 6 6 4 5 3 5 3 1 5 7 7 11 7 10 4 7 10 20 21 31 33 33 34 34 32 29 34 31 31 30 29 28 29 26 26 22 21 21 20 21 20 21 24 24 25
8 6 3 4 7 7 5 1 6 3 4 5 5 8 9 10 6 7 6 8 9 20 25 29 33 30 28 31 29 34 34 32 33 32 30 29 28 28 25 23 21 20 19 20 22 23 23 24 25
9 7 8 4 5 7 4 3 3 3 5 7 4 6 6 3 3 2 5 8 13 19 22 27 31 26 28 29 34 34 32 32 33 31 30 30 27 26 25 23 21 19 20 22 23 23 24 24 24
6 5 5 8 8 2 4 1 2 5 2 5 7 8 5 6 1 3 7 10 14 18 23 26 32 25 23 31 35 34 32 31 34 32 31 30 27 27 25 24 22 21 22 24 25 26 25 24 24
7 5 7 11 8 3 4 5 5 5 4 3 5 9 6 3 8 7 8 11 17 20 21 25 30 29 28 26 33 33 32 35 36 33 32 28 27 26 25 24 24 23 25 26 26 26 25 24 24
9 6 8 10 10 6 4 3 4 7 7 6 8 12 8 6 3 7 10 9 16 21 22 22 30 29 32 34 34 34 32 35 37 35 32 29 27 27 26 26 26 23 25 26 26 27 26 26 25
14 8 12 10 7 7 4 1 8 9 10 11 6 8 5 2 4 8 9 10 13 19 21 23 34 31 30 31 31 32 34 37 36 35 33 30 28 29 29 28 27 26 28 28 28 28 27 26 24
12 6 10 11 11 12 4 5 7 11 12 3 5 7 6 3 6 9 11 11 13 20 24 24 31 32 33 31 27 28 30 37 37 36 35 33 30 30 29 27 28 30 29 28 27 27 25 24 22
9 9 11 12 14 10 3 6 6 8 13 9 8 9 6 10 13 7 6 9 14 17 24 27 30 36 32 29 30 29 29 31 36 36 34 35 33 30 27 30 31 31 29 28 26 25 24 23 22
14 12 15 6 10 7 8 9 10 6 11 13 13 12 10 9 7 7 8 8 13 15 17 23 35 38 41 35 34 31 32 36 37 36 34 31 32 31 29 33 31 30 29 26 23 23 23 22 22
15 18 12 8 13 8 12 12 4 10 13 13 13 8 7 4 4 5 6 9 11 10 14 15 25 36 49 44 42 35 35 37 38 36 37 35 31 31 33 33 31 31 28 25 24 22 17 16 16
14 20 17 12 9 11 11 12 12 14 18 9 7 5 6 5 4 6 6 8 8 9 9 15 24 29 28 42 40 43 43 40 38 35 36 36 35 36 34 29 28 28 25 24 22 18 16 16 15
19 18 15 18 16 15 14 17 17 18 14 11 7 6 6 4 4 5 5 7 8 8 4 6 15 34 40 37 46 47 37 42 45 43 36 35 37 37 36 28 28 26 23 23 20 17 17 16 15
7 21 20 17 18 17 14 19 5 16 8 12 10 8 7 5 5 4 5 7 8 9 4 6 16 22 20 37 36 35 43 45 41 41 37 40 37 36 36 32 26 25 24 21 18 18 16 14 14
15 15 15 17 18 18 11 18 17 16 9 11 12 10 8 5 5 5 5 7 8 10 8 13 15 17 21 25 23 37 44 42 39 38 44 41 38 36 35 32 29 23 21 21 19 19 15 14 14
14 14 15 12 11 9 11 17 3 5 10 12 12 12 10 8 7 7 10 8 9 11 14 21 19 15 15 21 26 35 42 45 41 37 38 39 38 38 37 34 25 22 25 22 22 20 16 14 13
13 15 16 12 8 4 12 11 7 5 10 11 12 13 12 10 9 8 8 11 13 14 17 27 19 17 18 19 30 34 38 43 44 40 34 38 33 31 31 30 30 28 28 26 24 20 17 16 14
17 15 15 14 7 10 13 15 14 6 10 12 13 14 15 13 12 10 8 12 13 15 19 30 26 18 23 25 30 31 34 40 42 38 30 40 38 37 37 34 32 30 28 21 22 21 18 14 13
13 14 15 7 4 5 14 15 13 7 9 12 14 15 16 15 12 11 9 10 15 16 21 20 20 22 28 32 33 35 36 35 47 39 38 40 41 41 38 34 31 31 25 22 23 21 19 18 16
17 16 14 8 5 11 15 15 14 11 8 10 13 15 17 16 16 15 13 12 17 18 22 22 21 19 30 31 34 32 40 35 41 40 37 38 38 35 36 35 32 31 28 26 22 21 20 17 18
21 19 16 13 3 11 11 16 18 12 7 8 10 12 17 19 20 18 17 15 19 23 23 25 22 23 29 28 33 33 38 36 36 43 41 42 36 36 36 34 33 31 29 27 23 23 19 17 17
20 20 17 14 8 9 3 13 14 9 16 10 10 14 17 21 20 20 19 19 20 24 24 25 28 27 26 28 37 35 46 49 34 40 45 51 39 34 39 35 34 32 29 25 22 21 19 17 14
20 10 12 16 11 11 15 9 14 5 12 11 10 13 16 21 22 23 22 20 20 21 25 25 28 30 29 28 38 39 44 47 31 34 42 46 41 35 41 37 34 32 27 26 22 20 19 20 19
7 7 8 9 10 12 13 11 9 3 4 2 4 3 11 20 24 23 22 20 20 21 23 24 24 27 32 31 35 38 36 41 33 37 40 42 45 41 41 36 37 32 30 27 27 26 26 24 23
15 12 6 8 8 11 7 9 15 5 8 10 7 7 7 19 25 26 27 26 24 24 23 24 26 26 30 33 38 40 41 45 43 44 45 43 46 43 51 43 42 39 35 37 34 32 30 28 27
24 21 7 10 10 8 9 7 4 4 2 5 10 10 7 17 24 28 28 27 26 27 26 26 26 27 29 35 38 37 41 45 43 45 41 42 46 49 47 46 42 44 40 38 42 36 30 33 30
16 17 14 6 2 4 9 8 9 11 10 5 8 4 5 15 21 25 27 27 27 28 29 29 27 27 29 32 38 39 39 41 38 40 44 46 46 46 46 47 48 46 45 38 42 36 31 32 31
11 12 11 10 13 10 7 10 6 8 5 3 3 10 1 9 18 22 26 26 26 26 27 27 27 28 29 30 33 36 39 38 39 37 40 47 46 47 44 47 51 46 45 44 37 38 35 33 33
13 10 9 8 13 11 7 5 6 11 5 0 7 10 3 5 14 19 23 25 25 25 28 29 30 29 30 31 32 34 39 40 44 42 43 44 44 46 44 46 46 42 40 39 38 37 35 34 39
18 20 18 9 11 8 10 10 6 5 5 4 8 9 5 3 8 14 20 24 27 28 29 31 31 31 32 32 32 34 34 36 41 45 46 48 56 49 49 52 47 45 44 45 44 46 42 47 43

GFSSGP_850_spd_069.txt.gz
Wind_Speed
6 5 3 8 7 7 16 2 4 6 5 3 4 7 13 14 11 5 3 5 3 9 13 23 27 27 27 32 33 31 30 31 29 27 26 25 24 23 22 22 20 20 20 20 18 18 18 21 21
5 7 7 12 8 13 7 6 5 3 2 2 6 8 10 9 5 9 5 6 2 9 13 20 29 28 27 32 33 32 33 32 30 29 28 26 24 23 23 23 21 19 17 19 19 21 22 23 24
9 9 14 8 13 14 10 8 4 1 4 6 5 5 8 8 6 5 5 4 4 8 15 19 29 27 27 31 33 34 35 34 31 30 29 27 26 25 23 22 20 18 17 20 22 23 24 24 23
8 9 13 10 17 10 6 3 1 6 7 4 6 10 4 2 2 3 4 4 5 8 15 25 29 29 25 26 30 34 35 35 33 31 29 28 27 25 23 21 21 19 20 21 22 24 24 24 23
12 14 13 17 17 9 4 5 3 7 6 5 6 12 8 5 3 4 4 5 6 10 17 22 22 26 26 29 25 28 38 36 35 32 32 29 26 25 23 22 21 20 21 22 23 24 24 23 23
17 16 14 15 16 7 5 7 7 8 10 11 7 12 11 2 2 5 6 5 10 15 17 21 20 31 26 29 14 38 36 37 36 34 33 31 27 25 22 22 22 22 22 23 25 25 25 24 24
19 14 16 19 16 6 7 3 8 12 13 8 3 8 11 5 4 5 5 6 9 12 19 22 20 33 32 32 27 17 33 36 37 35 33 30 29 26 24 23 22 23 24 25 25 24 24 24 25
22 14 22 20 13 15 8 6 12 12 14 4 8 9 11 4 4 4 6 8 12 14 21 23 24 23 29 27 20 19 21 35 35 35 34 32 29 28 27 25 23 25 26 26 26 25 25 24 24
15 15 15 21 16 12 6 6 12 7 12 14 10 11 7 3 4 6 7 9 10 14 17 25 24 21 23 22 23 24 23 29 35 36 33 28 28 29 28 25 25 27 27 27 27 25 24 23 23
18 14 22 19 10 11 11 12 10 7 15 16 14 15 11 8 8 8 9 12 12 15 17 19 25 23 22 25 21 23 27 33 33 34 32 29 29 30 29 25 29 29 27 26 25 23 22 22 26
24 21 21 16 10 17 11 13 14 10 14 16 14 15 7 10 9 7 7 9 12 15 17 20 21 24 20 26 25 26 25 33 37 36 34 32 31 30 29 32 32 30 27 26 24 23 19 16 17
23 26 24 25 16 14 15 18 16 17 17 15 11 9 8 10 9 7 7 9 10 9 9 12 15 21 27 26 33 25 34 33 30 35 30 33 33 28 30 36 34 32 29 27 25 20 15 15 14
22 24 25 22 24 21 18 20 18 23 20 18 7 8 9 10 8 6 5 5 7 5 6 12 16 23 27 29 35 39 30 35 41 34 39 40 32 30 34 33 33 31 23 24 21 14 16 15 14
23 22 25 28 23 22 20 20 21 25 18 13 9 11 10 10 9 6 6 5 7 7 8 9 11 16 22 26 27 37 33 34 41 45 45 37 34 30 28 31 27 25 22 21 18 16 16 15 14
23 21 19 19 26 22 21 22 20 28 19 13 12 13 11 11 10 8 7 7 9 9 9 8 7 7 7 22 36 42 30 46 46 40 42 34 31 34 27 28 29 25 24 21 19 19 16 15 14
16 21 19 21 23 22 18 18 19 2 10 12 12 13 12 13 11 9 8 7 10 10 10 10 9 6 13 24 33 34 45 47 43 46 37 35 35 36 34 27 25 28 22 22 20 19 17 15 15
20 16 22 21 11 10 12 16 10 6 8 13 13 14 13 13 11 10 9 8 10 11 11 16 14 11 11 16 20 22 25 40 45 39 39 34 38 40 35 27 22 24 23 22 21 19 17 16 15
19 20 19 19 12 13 16 18 15 14 12 12 15 14 14 14 13 12 10 9 12 13 13 17 16 10 7 14 21 23 24 32 39 42 40 36 35 37 34 30 29 28 22 22 20 19 17 15 14
22 18 16 11 12 10 15 17 15 14 15 12 14 14 14 14 12 13 12 11 11 16 17 18 20 13 13 17 25 27 32 36 37 42 39 38 30 37 35 28 26 25 25 20 21 20 19 16 15
25 23 18 17 6 8 15 17 18 16 15 13 16 14 13 15 16 15 13 12 12 16 17 20 21 22 19 21 26 25 31 37 39 42 42 30 28 31 32 30 32 29 29 23 24 22 20 17 21
23 23 20 19 7 10 15 18 18 16 20 10 12 14 13 16 19 18 17 15 14 20 22 24 22 19 21 24 25 27 28 35 40 46 40 34 30 33 38 32 40 35 32 25 24 23 21 21 20
22 20 20 18 14 13 13 14 14 17 20 17 19 17 15 16 20 21 20 19 18 22 25 24 26 21 24 28 27 31 31 34 44 50 44 35 36 40 41 40 33 32 30 22 23 25 24 21 19
21 17 16 18 16 16 18 10 14 14 14 10 13 19 17 17 21 23 22 20 19 22 27 26 28 28 26 28 28 37 35 30 35 48 45 37 36 36 40 41 36 37 31 31 30 28 25 21 19
17 18 17 11 14 15 18 15 11 10 7 2 7 8 17 18 21 22 21 20 19 20 23 25 27 30 31 33 28 31 36 32 39 40 41 46 44 42 36 37 37 37 35 32 29 26 23 23 20
25 14 9 11 13 14 16 12 14 6 8 5 7 11 13 18 23 24 25 24 23 24 23 24 27 28 35 35 32 30 36 38 46 41 38 45 50 49 45 37 40 41 39 33 31 32 33 28 25
20 21 12 11 11 13 17 7 8 5 3 6 5 8 7 16 24 26 27 26 24 24 25 24 25 26 28 36 38 33 35 34 39 41 34 45 56 55 53 42 42 44 41 38 36 35 34 36 36
21 21 20 14 6 9 9 10 3 7 8 8 7 4 7 15 24 26 27 27 25 25 25 25 24 24 26 28 38 38 35 37 40 40 44 39 48 49 51 49 46 46 49 45 40 37 36 41 39
20 15 20 15 9 8 9 15 6 6 9 8 6 5 1 9 20 25 28 27 26 25 25 25 24 24 25 25 29 37 39 39 34 35 42 45 43 48 50 49 54 57 57 51 50 48 44 40 39
17 18 14 14 13 8 7 5 1 11 7 4 6 5 3 5 13 22 25 27 26 25 26 26 26 26 27 27 27 31 36 37 39 37 39 37 41 49 50 50 50 49 50 53 49 47 44 41 40
21 19 17 10 16 15 10 5 1 4 5 3 5 1 6 2 9 16 21 25 27 28 27 29 28 29 29 28 29 30 32 35 39 40 40 39 39 40 44 43 44 48 47 47 48 46 45 45 43

GFSSGP_850_spd_072.txt.gz
Wind_Speed
7 4 1 10 6 8 16 18 8 6 2 6 6 5 11 12 9 3 5 5 9 5 9 9 17 25 27 27 27 26 26 25 25 23 23 23 23 22 21 20 21 22 21 22 21 21 23 24 25
6 5 9 9 9 12 13 3 6 1 7 7 5 9 12 8 14 13 6 10 8 8 9 10 20 26 28 27 28 27 27 27 25 24 24 24 23 22 20 20 21 21 21 22 21 21 22 23 24
7 8 10 7 13 13 15 9 4 4 2 5 6 11 4 2 10 4 4 11 9 4 10 12 19 26 26 26 26 28 29 28 26 25 25 25 23 22 20 19 19 19 21 21 21 21 24 25 26
7 9 11 8 18 21 23 5 7 5 8 6 8 7 6 5 5 4 7 11 12 7 9 15 17 25 27 25 28 30 31 30 29 28 27 26 25 24 22 19 19 18 21 23 22 26 27 26 27
11 11 11 16 21 23 18 3 4 6 10 5 7 9 9 6 5 4 7 8 12 7 10 19 17 20 25 25 27 31 28 32 33 33 30 28 26 25 22 21 19 19 20 22 23 26 27 26 28
14 15 13 15 21 22 6 6 4 7 10 12 13 13 3 9 5 5 8 9 12 10 15 21 19 18 21 24 26 16 19 16 33 35 32 30 27 25 22 22 21 21 20 22 25 26 26 25 29
18 13 18 20 20 20 12 10 5 6 13 13 6 3 6 12 5 6 5 7 12 9 15 18 20 19 22 29 30 21 18 20 28 34 32 30 27 24 23 23 21 21 20 24 25 26 26 27 32
24 13 22 19 17 20 16 11 7 10 15 5 7 5 0 8 8 8 7 9 8 14 13 18 18 18 23 27 28 31 21 20 38 36 33 31 28 25 24 22 21 21 24 25 26 27 27 30 31
25 14 16 22 23 21 11 6 5 10 11 13 14 13 11 7 5 6 7 10 8 11 12 15 17 18 17 22 25 23 24 16 16 41 34 33 28 26 25 23 23 25 25 26 26 27 28 29 30
20 16 23 21 23 20 14 12 11 15 12 15 15 9 7 5 6 8 11 11 10 13 14 16 19 19 19 18 22 24 23 7 20 37 38 35 32 29 26 24 25 26 26 26 27 27 28 28 32
28 23 21 24 30 20 11 22 9 10 13 14 12 2 2 8 8 9 10 10 10 9 14 16 16 18 16 16 18 21 20 20 26 38 38 35 33 32 27 28 28 29 28 28 27 27 28 33 29
24 31 29 28 29 30 13 22 13 19 14 14 18 5 5 9 9 10 10 9 7 11 7 11 15 15 19 18 23 22 25 28 31 38 38 36 34 32 30 31 31 31 30 29 27 26 23 30 21
27 25 30 30 30 25 27 17 17 22 19 20 18 5 5 11 11 10 8 12 7 6 8 10 10 12 16 20 23 25 25 30 46 44 38 32 34 33 28 33 33 31 30 27 26 23 17 19 16
30 29 29 30 27 26 22 18 22 24 24 27 20 10 9 13 12 10 8 8 8 8 10 9 11 15 18 20 23 25 30 29 43 43 38 38 32 33 31 33 34 30 29 30 24 21 19 17 16
32 26 22 22 23 22 29 22 21 26 27 25 22 12 12 14 12 12 9 12 9 13 15 12 7 5 9 17 24 27 31 35 40 35 40 33 37 34 32 35 34 27 26 27 22 20 20 18 17
24 22 21 22 22 23 21 20 20 27 29 24 12 14 14 14 14 12 12 9 10 11 13 11 3 2 8 12 20 31 44 42 36 38 32 39 32 31 34 35 32 27 24 23 21 21 20 19 17
17 19 23 24 23 21 24 23 19 26 6 8 15 18 16 13 15 13 13 10 11 11 13 11 7 7 5 6 21 30 30 30 26 39 35 32 34 32 32 34 32 30 29 27 23 20 20 19 19
19 21 21 22 20 24 16 15 13 21 17 17 17 18 19 16 16 15 14 13 14 15 16 12 9 8 9 15 22 27 30 31 30 38 32 38 43 31 35 31 30 32 31 27 21 24 21 20 19
20 22 23 21 20 18 18 16 16 17 19 16 17 16 17 20 15 16 17 16 15 13 15 13 17 11 13 15 16 22 21 27 40 37 40 38 36 35 34 36 32 30 26 26 25 24 21 19 20
22 24 25 23 12 8 11 13 15 16 15 17 21 19 19 21 19 18 17 18 15 17 19 15 20 14 13 16 20 21 21 30 36 42 36 39 37 39 37 36 34 35 34 31 26 24 24 20 23
22 23 22 24 20 18 9 16 17 20 19 22 19 15 18 24 24 23 20 19 17 16 21 21 24 19 14 18 19 22 26 32 42 39 43 41 38 39 41 37 37 33 31 31 29 27 28 29 27
22 21 25 24 18 14 15 13 16 19 18 16 19 18 15 15 26 25 23 21 19 16 21 20 21 20 20 22 25 26 30 35 39 48 42 40 40 37 29 34 35 35 34 30 30 29 30 28 25
23 15 23 21 18 17 19 11 13 13 14 17 18 22 23 19 27 26 25 23 18 19 24 25 24 23 21 28 24 27 28 31 39 49 46 46 39 39 35 34 37 39 38 34 31 28 30 28 26
17 18 23 21 15 16 18 16 14 14 13 15 13 13 24 21 26 25 25 23 21 20 25 27 24 26 23 30 28 28 28 33 40 43 53 45 41 39 40 40 39 40 37 35 34 31 31 25 20
22 10 8 8 13 12 15 13 14 16 6 7 4 6 18 21 25 26 27 27 25 24 23 26 28 30 28 29 33 31 34 33 36 43 55 52 44 43 41 43 42 39 36 35 36 33 28 25 25
17 20 9 7 8 12 18 10 18 18 13 12 5 8 16 17 24 28 28 29 28 26 22 25 26 28 31 33 33 35 31 36 33 36 46 56 53 48 45 44 42 42 39 38 39 37 31 30 27
12 19 25 13 9 6 9 17 3 6 6 8 10 13 14 15 25 26 28 29 28 30 27 24 24 27 29 36 35 35 29 32 40 39 41 49 51 54 50 47 44 44 43 41 42 41 41 39 37
22 19 15 10 7 6 5 16 8 15 12 11 5 4 2 9 23 25 27 29 28 29 29 28 25 25 24 26 36 40 36 37 39 37 42 38 46 52 55 53 50 47 41 44 45 45 45 44 42
11 15 14 12 13 6 4 6 8 11 7 11 9 9 5 3 13 26 26 28 26 26 28 29 30 27 28 25 25 34 43 39 36 35 37 46 40 39 44 54 56 54 51 46 47 50 51 51 47
17 20 18 9 19 12 6 1 8 5 6 9 7 8 10 3 6 19 23 26 28 27 28 29 29 29 30 30 25 24 31 41 40 41 44 43 42 48 46 45 48 54 56 55 54 56 55 55 57

GFSSGP_850_spd_075.txt.gz
Wind_Speed
7 3 1 5 3 2 5 9 5 3 5 14 13 10 3 3 3 3 10 4 3 3 5 4 5 16 23 25 25 25 24 22 20 20 21 22 23 23 22 21 21 20 20 20 20 22 22 22 21
7 7 3 5 3 2 6 6 11 10 14 13 7 2 3 3 16 14 6 3 3 1 6 7 8 18 25 27 26 25 25 23 22 22 22 23 23 22 22 21 21 22 23 23 21 24 25 25 25
8 7 4 4 4 7 6 2 2 7 11 9 3 3 9 10 16 14 6 1 2 4 8 11 9 18 26 28 27 25 26 25 23 22 23 24 23 22 22 22 24 24 23 24 24 28 29 28 28
6 5 6 1 10 14 15 17 4 3 6 12 5 2 6 10 9 5 2 4 9 8 11 12 10 18 24 27 27 29 26 28 26 25 26 26 24 23 24 24 24 23 23 25 26 28 28 30 34
10 6 3 5 9 16 16 17 9 5 2 9 9 6 5 10 11 7 2 3 9 8 9 13 12 12 21 25 26 27 28 28 24 28 30 27 28 28 25 24 24 23 22 23 30 31 33 37 33
5 5 1 5 12 19 13 25 11 9 9 6 7 6 7 12 10 7 5 5 8 6 11 14 14 14 15 23 27 27 31 32 22 16 31 32 33 30 26 24 22 23 22 27 32 33 35 36 31
7 2 6 8 15 20 19 13 7 6 3 0 4 2 11 13 8 6 7 9 9 5 12 17 16 18 20 22 27 31 29 28 16 43 29 30 32 30 27 24 22 23 23 30 32 33 35 36 32
19 2 7 11 12 16 25 4 13 9 6 6 5 5 7 22 14 9 9 10 8 11 8 16 17 19 21 24 27 28 25 29 38 19 21 29 33 29 25 23 21 21 25 31 31 32 34 35 31
22 10 12 16 15 20 23 3 9 11 6 5 5 15 16 19 13 7 7 9 8 10 11 10 22 21 20 21 24 23 19 16 19 16 30 36 34 30 26 23 21 23 28 29 30 31 36 35 29
13 10 15 12 17 18 16 9 12 6 11 10 13 5 18 14 7 9 6 8 9 8 11 13 14 21 18 17 16 22 21 17 15 23 32 34 35 31 26 24 23 24 29 29 30 33 37 35 32
18 19 15 20 31 29 15 19 22 3 4 5 8 16 16 14 10 10 13 11 11 15 17 13 14 15 21 21 18 21 24 21 15 15 31 43 37 32 29 29 28 30 27 29 31 35 36 34 31
17 26 28 28 36 35 17 23 11 11 8 7 5 10 17 16 14 14 11 14 13 12 13 13 12 16 18 19 18 18 22 22 16 17 47 46 39 34 31 31 31 31 32 33 34 35 35 35 28
17 18 29 33 34 38 33 19 16 17 18 18 13 10 14 12 13 11 12 12 12 14 11 11 9 12 17 20 19 18 25 25 20 23 41 43 39 37 33 31 31 31 33 34 34 34 39 29 28
22 24 26 30 30 28 20 20 13 24 20 19 23 17 19 14 15 11 18 17 13 12 11 9 10 11 14 18 20 21 22 21 26 31 45 42 39 37 32 31 31 33 32 32 32 36 35 24 27
26 17 17 18 23 14 28 15 15 30 24 28 30 28 23 15 16 15 14 12 12 13 13 10 12 13 15 16 20 23 26 30 35 38 40 37 36 36 37 34 34 33 32 30 28 29 28 20 21
10 13 15 13 11 19 12 18 12 32 25 30 33 32 26 21 18 17 21 17 14 14 14 13 12 11 11 14 21 21 25 30 38 43 45 41 40 37 30 37 36 34 34 30 28 25 23 23 21
6 9 12 17 14 16 18 20 17 31 29 19 9 21 25 26 19 19 18 21 17 14 13 11 11 10 11 12 15 21 24 30 43 45 42 41 38 31 32 41 37 34 35 30 27 28 26 24 21
4 7 9 14 22 17 21 23 18 24 19 19 15 16 25 29 26 25 23 22 17 12 13 12 11 10 10 13 19 30 28 32 45 45 40 41 35 32 33 43 40 35 33 33 28 28 25 23 22
13 15 19 18 17 16 21 21 19 11 13 14 24 24 21 33 28 27 26 22 18 13 16 16 16 14 11 13 18 23 27 42 39 41 43 37 38 35 42 43 42 37 36 34 33 29 28 26 24
13 18 23 23 20 16 14 25 10 9 8 19 26 31 28 34 30 32 29 25 19 14 18 19 20 16 17 20 16 24 28 34 35 34 39 39 40 41 43 44 41 39 36 33 34 33 31 27 25
14 17 19 19 20 24 18 17 5 6 7 20 22 37 32 41 38 36 32 26 19 16 21 21 26 19 18 18 23 21 21 31 35 36 42 40 43 43 36 41 40 35 35 34 35 34 34 32 31
11 11 23 17 12 9 19 13 7 10 16 15 18 29 33 39 41 38 33 27 20 16 21 23 26 23 19 18 21 26 25 28 33 37 38 43 48 42 36 38 35 35 34 37 38 34 34 33 29
9 15 22 7 9 13 22 12 8 9 10 13 16 26 33 44 44 40 34 26 18 16 21 26 25 27 21 23 23 25 26 25 30 39 41 47 44 42 40 40 40 38 36 35 36 36 35 35 32
8 15 6 7 4 8 18 14 8 10 9 9 16 27 35 40 43 38 31 24 20 18 23 24 27 27 26 27 26 25 25 30 33 44 42 45 40 41 40 40 39 38 36 35 34 35 35 32 28
9 9 1 3 4 6 9 14 14 9 17 13 4 20 34 37 41 38 34 30 24 23 25 30 29 27 28 28 29 26 25 27 33 37 44 47 45 39 38 38 37 40 39 39 35 37 33 30 32
12 6 4 5 3 3 13 7 12 13 18 15 11 19 33 36 41 40 38 32 26 25 25 29 31 31 33 30 32 28 27 27 31 36 42 49 48 47 43 42 39 38 39 36 39 38 36 36 37
5 8 5 8 5 4 4 6 12 14 19 7 9 13 28 37 41 40 38 33 26 25 26 25 30 31 33 32 32 32 30 30 30 33 39 45 49 52 47 45 44 43 39 37 38 38 37 35 35
8 4 3 3 3 3 6 7 6 6 8 8 6 6 14 34 40 40 38 33 27 23 23 22 23 27 29 31 32 34 35 35 33 31 33 39 44 54 49 47 43 42 45 41 40 41 40 40 38
7 4 6 2 4 3 3 4 4 5 5 9 9 14 13 23 37 38 37 34 28 24 24 23 23 23 24 26 32 35 35 37 33 39 38 38 38 50 55 53 49 48 46 45 45 46 45 45 43
13 11 11 4 4 5 4 6 15 4 8 9 8 16 9 9 26 37 35 35 32 27 25 23 22 23 24 22 23 28 38 37 39 39 42 40 40 41 45 50 53 54 53 50 50 48 49 50 49

GFSSGP_850_spd_078.txt.gz
Wind_Speed
5 5 4 3 2 4 4 7 4 8 3 6 8 8 8 3 3 4 16 9 6 4 3 1 3 12 23 25 27 28 26 23 19 19 21 22 23 24 23 22 22 21 21 22 23 24 23 20 19
6 7 3 0 3 1 5 5 7 11 8 10 9 7 7 2 11 12 14 8 5 1 2 2 3 10 23 27 28 29 28 24 20 20 22 24 23 23 22 22 21 22 22 23 24 26 25 22 21
8 9 1 3 4 6 6 4 5 9 17 10 7 4 7 12 14 14 8 5 2 3 7 7 6 11 22 28 28 28 28 26 23 22 22 22 24 24 24 24 22 22 23 24 26 28 27 27 27
8 5 4 3 9 10 7 2 9 7 7 9 10 6 8 11 15 10 9 5 4 3 7 8 8 12 21 28 28 27 27 27 26 21 24 25 26 26 25 25 26 24 24 27 29 31 31 31 29
10 3 2 4 8 12 8 12 15 11 7 7 11 6 13 19 14 16 12 8 6 5 6 9 9 10 18 25 27 26 27 26 24 25 23 26 29 28 27 27 27 26 25 29 33 34 33 32 30
5 1 1 6 8 15 9 22 22 22 14 13 7 9 8 16 18 15 11 9 8 6 7 10 11 10 13 20 26 26 30 31 29 32 23 20 24 29 29 28 28 27 26 34 36 37 36 33 28
6 4 5 5 6 10 13 14 16 11 9 8 6 5 9 20 16 13 11 12 8 7 10 13 14 16 17 18 22 31 34 35 32 27 10 5 26 27 29 28 27 26 29 38 39 40 36 31 26
8 4 4 4 9 10 9 12 25 10 6 8 12 7 6 24 20 18 13 9 8 8 8 12 16 18 20 21 25 30 34 25 32 35 28 31 27 26 27 28 25 26 34 40 41 39 34 29 26
8 1 4 6 10 11 20 8 28 17 6 11 13 11 11 22 24 18 13 12 10 10 9 9 12 16 20 22 25 27 28 30 30 36 27 20 32 33 31 27 27 27 36 41 41 38 33 29 25
7 5 9 9 6 12 22 11 25 15 20 9 6 8 10 25 26 20 17 15 11 13 12 12 14 19 22 20 23 25 26 20 27 24 24 23 36 37 32 28 27 30 37 40 42 39 32 27 26
7 13 8 11 22 27 23 18 34 13 8 16 9 11 16 28 24 21 16 14 12 11 13 13 13 16 18 22 19 22 20 22 26 30 32 30 33 40 34 31 28 32 38 40 41 40 31 28 28
7 11 13 21 28 28 21 33 24 19 21 21 12 15 24 27 23 20 19 16 15 14 15 16 18 19 19 20 20 22 23 25 25 26 32 42 33 41 37 34 32 36 38 39 42 42 36 31 24
10 16 24 27 30 33 33 27 26 33 40 32 14 19 27 27 22 20 18 17 17 17 17 17 14 16 19 19 21 22 25 27 23 23 35 47 50 45 41 35 34 36 38 38 44 42 39 33 20
7 16 22 25 26 30 20 23 22 33 38 30 17 16 22 29 27 24 22 21 20 17 15 14 11 12 17 20 22 21 22 27 26 17 18 46 52 47 38 36 36 37 37 39 43 43 40 32 24
8 12 16 17 19 13 20 16 20 28 35 29 27 23 23 30 30 24 22 21 19 17 16 14 12 13 15 18 21 22 23 30 30 22 31 44 48 42 40 38 38 36 36 38 42 42 37 32 25
5 5 8 8 11 15 11 22 16 26 28 31 33 33 29 30 29 24 22 22 20 18 15 15 14 16 16 19 21 23 23 27 31 32 41 45 44 40 38 38 38 37 37 38 41 44 35 36 25
4 13 12 9 6 8 8 22 10 24 27 26 33 34 31 34 30 27 26 24 19 16 15 14 16 13 15 18 21 23 28 27 37 40 43 43 41 40 38 39 40 38 38 39 44 40 34 34 27
5 7 7 9 2 7 17 21 18 26 24 26 31 22 23 36 36 34 30 25 20 18 14 12 14 13 14 12 17 22 24 31 36 41 49 45 44 42 39 39 40 40 42 40 41 40 32 31 27
8 12 14 11 11 6 17 19 18 21 19 22 27 29 33 44 38 34 31 25 22 19 15 11 15 15 14 20 16 22 25 35 47 45 47 46 43 40 36 39 42 43 43 39 37 33 28 29 27
12 15 17 12 12 13 15 20 18 21 14 25 30 30 36 31 36 37 33 28 26 21 14 12 17 15 13 17 21 29 33 34 33 42 46 43 45 43 32 41 43 42 44 39 35 35 34 30 28
13 12 8 8 15 21 16 20 9 17 20 19 28 33 31 41 42 39 37 34 28 23 16 13 19 17 15 17 23 22 22 35 44 50 49 48 45 39 36 43 46 42 43 40 33 37 35 33 31
14 8 8 10 12 9 3 7 12 15 19 14 9 20 27 39 45 44 42 37 31 24 17 17 23 21 19 19 18 20 27 33 37 43 43 44 41 39 38 43 46 41 38 36 34 37 35 33 35
11 7 8 8 10 5 10 3 11 6 16 17 9 16 30 42 50 48 47 39 30 23 21 22 26 24 21 19 21 22 23 26 27 31 39 40 39 36 36 43 43 42 37 38 38 39 35 36 36
8 4 12 6 3 7 13 5 12 8 10 14 10 12 24 42 50 48 43 37 29 24 22 25 30 29 24 22 19 23 22 24 29 32 34 38 41 38 39 38 38 41 41 33 36 31 36 38 35
3 4 4 4 5 9 3 9 16 10 14 14 17 27 23 42 44 46 43 39 32 28 26 27 31 34 30 25 23 22 23 23 23 30 33 35 39 45 43 39 35 38 35 40 38 37 42 42 39
11 7 3 5 4 7 11 8 11 13 18 24 28 21 25 39 47 50 44 41 35 29 28 27 30 33 35 30 28 26 23 23 24 25 31 34 39 46 45 44 39 37 35 32 34 38 40 40 41
4 7 3 3 3 3 4 6 9 11 17 13 9 20 27 35 44 48 44 40 35 30 28 25 28 31 32 31 30 29 28 28 28 30 29 35 39 43 47 45 41 41 40 38 38 38 37 37 39
9 3 4 3 3 3 4 4 4 7 12 15 7 13 28 36 40 44 43 39 34 29 26 24 23 29 32 31 31 30 31 29 29 28 34 35 42 44 48 47 45 43 42 41 42 42 41 41 40
5 4 4 1 3 2 3 3 10 18 21 10 7 17 27 32 40 43 40 38 32 28 26 24 23 25 28 32 32 31 32 31 29 30 32 35 37 42 46 48 47 46 45 42 43 44 45 44 45
5 2 6 3 4 4 1 5 15 18 16 18 7 9 25 38 39 40 38 36 33 30 27 24 22 23 24 24 28 33 32 33 33 33 30 32 37 39 45 46 52 50 49 49 49 50 46 46 48

GFSSGP_850_spd_081.txt.gz
Wind_Speed
6 4 3 1 3 4 4 7 4 7 4 5 4 5 8 4 4 4 21 13 11 9 7 7 8 14 23 24 25 25 24 22 20 21 24 26 25 26 27 26 24 22 22 22 23 24 23 20 19
7 6 4 3 4 1 5 5 6 8 10 7 7 15 4 3 6 10 20 14 10 8 6 6 6 11 21 25 27 27 25 24 22 21 22 27 27 29 28 25 24 23 22 23 24 24 22 20 21
9 9 3 4 4 6 6 6 6 13 14 4 4 5 9 5 12 12 14 13 11 9 6 3 3 8 19 26 28 29 27 24 22 23 25 27 30 30 26 25 25 24 23 24 25 25 24 22 23
9 6 2 4 9 7 7 5 1 11 18 11 11 3 5 14 12 15 14 12 9 7 4 3 4 8 17 26 28 28 26 24 22 23 25 27 26 26 25 26 25 23 23 25 27 27 25 25 27
11 4 1 3 8 6 5 13 11 11 7 18 16 5 3 16 17 17 16 14 10 7 5 6 6 7 14 23 28 27 27 25 23 23 19 22 21 23 25 26 24 23 24 28 29 29 29 28 28
5 3 2 5 7 7 6 8 15 11 26 30 10 8 6 16 18 18 15 13 11 7 6 8 8 8 11 19 25 26 29 29 27 26 25 23 23 19 19 23 24 24 25 29 32 32 31 32 30
6 4 5 5 3 9 5 5 4 7 11 8 8 7 5 17 19 20 17 13 10 8 9 10 10 11 11 13 20 28 31 34 34 32 24 24 27 22 21 23 24 26 27 32 34 34 32 31 29
6 4 4 5 5 14 6 5 11 11 14 23 14 6 6 23 24 22 17 14 12 11 9 9 12 15 15 17 22 29 33 34 39 36 24 24 19 27 22 23 26 24 29 34 35 33 32 30 26
9 1 5 9 10 11 7 4 13 16 13 22 15 7 7 21 27 24 22 20 18 14 10 10 12 13 19 20 23 27 31 34 32 31 29 33 32 23 28 29 27 25 31 37 36 35 31 27 22
6 5 11 8 13 10 8 2 26 11 24 26 23 17 13 19 30 30 26 25 20 16 13 12 12 12 14 18 25 28 30 34 30 32 34 32 26 29 31 29 28 28 35 38 38 34 28 25 25
7 11 5 8 27 21 15 7 21 8 15 26 23 35 20 22 32 30 27 25 19 14 14 13 13 13 16 21 23 27 30 30 31 32 32 29 28 28 40 34 32 29 40 41 39 35 30 27 26
6 11 19 10 22 15 9 22 8 15 23 40 38 30 22 27 31 31 30 27 22 19 15 14 15 14 15 19 23 23 22 25 29 30 31 33 31 39 41 37 35 33 45 45 41 36 30 26 24
9 8 13 22 22 23 27 19 16 27 35 40 39 28 29 29 29 32 31 26 22 22 16 16 15 15 17 19 21 23 24 26 25 33 31 34 37 42 41 41 38 39 47 44 38 33 30 29 26
7 9 16 18 23 22 15 22 13 27 33 39 36 30 32 34 33 35 32 29 27 23 18 17 16 15 17 19 21 24 24 25 27 28 34 36 38 35 45 43 40 40 48 45 41 34 32 30 26
10 9 8 7 4 7 17 21 10 32 29 35 32 31 31 37 37 37 36 33 26 23 20 19 16 14 16 17 21 23 24 23 31 30 35 34 40 43 49 45 40 41 46 46 44 35 32 27 24
4 4 6 1 8 8 12 29 17 28 24 29 31 33 30 35 38 38 39 32 27 25 23 19 15 15 16 16 20 22 24 25 28 36 34 31 43 48 49 44 42 43 46 46 47 41 35 26 24
2 11 11 7 7 7 8 18 8 13 15 20 28 34 30 29 34 40 41 34 30 25 23 18 16 17 18 18 21 22 24 28 30 37 30 33 47 49 48 44 43 44 46 46 49 43 37 28 27
4 7 6 4 4 5 7 15 9 14 13 20 27 33 34 30 32 39 42 37 30 24 22 18 16 17 18 20 21 23 26 26 33 36 27 39 46 49 46 44 43 44 45 47 49 46 36 31 28
5 9 16 8 8 9 13 16 15 12 11 13 28 29 37 29 31 34 42 36 30 26 24 18 14 15 17 17 18 23 24 29 36 39 36 35 42 44 43 42 43 43 44 46 48 47 40 29 27
7 9 11 11 9 8 6 19 18 16 15 21 22 25 34 29 27 33 40 37 33 29 23 18 14 16 17 17 16 22 25 30 33 37 39 42 42 42 40 41 42 43 44 45 47 49 44 33 28
10 8 10 13 6 10 12 23 15 17 12 17 23 27 27 31 35 37 40 39 36 31 24 18 14 19 18 17 17 15 22 24 35 35 40 44 44 42 39 37 41 44 46 47 47 48 43 37 32
9 6 11 11 5 6 4 12 14 10 14 12 16 19 20 26 35 43 43 42 39 32 24 18 15 20 18 16 20 17 22 30 30 43 42 47 46 42 41 38 41 42 44 43 44 44 40 35 37
5 9 13 3 4 7 6 7 3 9 10 13 7 21 13 28 41 44 46 44 39 32 26 19 18 22 21 19 19 22 23 23 28 29 42 47 45 42 41 37 39 42 44 43 40 39 38 36 35
4 7 4 2 2 7 9 9 4 7 13 15 10 11 14 25 37 40 43 43 38 31 26 21 22 24 22 19 19 20 23 22 24 31 39 49 45 43 43 36 36 42 41 44 40 35 38 38 37
4 3 2 2 3 7 0 10 14 10 6 9 12 22 15 15 30 39 46 46 38 34 28 24 25 28 24 21 18 18 20 22 23 25 33 34 40 42 43 36 38 39 42 39 38 38 37 41 38
6 5 3 5 3 3 12 7 6 8 12 21 23 29 25 20 30 42 50 48 41 35 30 27 27 28 27 25 20 18 18 18 20 26 30 31 40 41 34 35 33 38 43 40 36 40 41 43 38
3 8 3 6 3 3 4 7 6 17 7 10 13 20 27 18 33 42 47 43 42 36 32 28 28 26 27 27 23 20 19 20 20 20 22 29 32 33 35 37 36 39 43 44 40 40 42 36 34
5 5 2 4 4 3 4 5 4 16 17 18 15 12 24 20 29 36 42 44 42 36 29 26 26 24 25 27 23 23 21 20 19 18 20 21 25 29 33 38 40 38 36 36 35 37 33 40 39
4 3 4 4 3 2 4 2 4 7 13 18 19 29 18 28 32 37 41 41 40 34 28 26 25 24 24 25 28 25 24 23 21 21 22 22 22 26 30 33 41 40 38 35 34 35 35 37 40
3 2 5 3 3 4 3 5 4 5 16 20 22 32 9 18 25 32 38 39 37 33 29 26 24 23 22 22 25 26 25 24 25 24 24 23 26 27 31 33 38 41 42 42 42 42 42 45 46

GFSSGP_850_spd_087.txt.gz
Wind_Speed
12 8 7 4 3 0 2 5 2 4 3 3 2 4 8 1 5 2 10 21 20 17 12 10 8 8 11 14 17 17 17 20 24 25 24 25 25 25 25 25 24 24 23 22 22 22 20 17 18
14 11 7 3 3 4 4 3 7 6 3 11 8 5 4 4 6 4 22 22 20 16 13 10 8 8 13 16 18 18 19 22 24 25 25 26 26 26 26 26 25 24 23 23 22 21 19 17 20
15 14 5 3 3 11 4 7 9 4 13 3 1 4 3 3 6 9 15 22 20 17 14 11 10 9 14 17 19 20 21 23 25 26 26 26 26 26 26 27 25 24 22 23 22 20 19 20 20
15 7 3 4 10 6 5 2 4 4 3 2 6 9 6 8 2 9 16 22 18 17 14 12 10 11 14 18 21 22 23 23 26 27 28 28 27 26 25 24 24 22 18 17 18 19 20 22 21
17 5 3 4 7 5 5 6 6 6 6 6 6 5 6 15 13 11 21 22 20 17 15 12 11 12 14 19 21 23 24 25 26 28 28 29 29 27 26 23 21 19 18 19 18 20 20 22 22
5 4 3 11 8 6 5 11 8 6 5 5 2 4 7 13 16 14 24 23 20 17 16 14 13 12 14 18 22 24 25 25 26 26 26 26 25 27 26 24 20 18 18 20 21 21 20 23 23
6 4 8 6 4 7 10 10 11 14 10 5 1 3 5 6 12 15 21 23 22 20 17 16 14 14 15 17 21 25 25 26 25 25 28 29 27 26 26 22 17 19 21 22 21 22 21 24 23
6 3 5 5 8 11 6 7 8 13 9 3 2 2 3 12 10 16 22 25 24 22 20 18 16 15 16 19 20 24 27 27 27 28 31 33 32 31 28 23 24 22 22 21 21 23 23 25 23
7 5 7 9 8 8 2 4 7 6 6 5 6 12 13 6 14 15 23 27 27 26 24 20 18 17 17 20 23 23 24 25 27 32 33 32 34 33 30 23 23 25 24 23 22 24 24 26 24
6 7 10 7 11 9 8 11 10 5 8 12 18 25 12 10 17 13 28 31 30 30 27 23 19 18 19 19 23 23 24 26 27 30 31 33 35 34 27 21 29 29 25 27 25 27 27 26 26
6 11 6 5 17 7 13 14 16 14 14 21 21 21 14 25 19 17 23 34 34 31 28 25 21 20 21 21 23 25 27 29 30 31 34 33 34 32 20 20 33 27 29 26 27 28 30 30 28
5 8 13 10 14 10 12 23 18 20 19 26 27 29 26 25 24 21 20 29 37 33 30 25 22 22 22 23 26 27 29 32 33 30 32 35 39 30 22 25 28 33 33 30 30 32 32 30 27
7 6 10 11 17 16 18 20 20 13 20 27 30 31 29 24 24 25 23 24 34 37 33 30 25 23 23 24 26 26 30 34 36 32 32 40 43 37 31 29 30 34 33 31 35 35 32 29 24
5 5 7 9 16 16 19 26 20 24 23 22 27 29 29 25 23 26 24 24 28 37 37 33 29 25 23 25 26 26 29 32 36 38 33 40 41 35 30 31 33 36 34 33 36 36 34 29 23
4 7 7 8 13 10 7 20 16 31 25 22 26 27 28 26 26 25 23 24 29 33 38 37 32 27 24 26 27 27 29 33 34 36 34 39 39 34 34 35 37 39 36 33 39 36 33 30 27
3 4 5 2 3 6 8 15 12 11 12 16 18 24 31 29 27 21 20 22 27 32 39 37 33 30 25 27 26 25 29 33 33 34 35 35 39 38 36 40 43 42 38 37 40 38 36 32 29
1 8 6 6 2 3 8 11 3 21 20 20 21 19 22 23 22 20 20 19 24 30 34 37 35 32 27 26 24 24 27 32 31 32 30 32 37 34 37 39 41 47 42 41 43 40 35 31 30
6 6 5 7 2 12 18 26 17 18 24 24 22 26 24 26 28 27 24 23 26 29 30 33 35 33 28 26 23 22 22 23 27 28 29 30 33 33 34 35 39 45 41 42 43 41 36 32 32
3 4 8 6 8 12 18 25 16 18 22 24 26 28 27 28 28 29 26 24 25 27 28 33 36 34 28 26 22 23 24 25 26 27 30 29 33 36 36 36 33 35 39 41 45 42 37 35 33
13 14 14 8 9 7 14 29 22 22 24 30 30 33 31 32 32 30 28 27 25 27 29 35 37 32 28 24 21 24 24 25 26 26 31 33 33 39 39 41 43 41 43 41 47 44 39 35 35
11 13 8 9 8 11 14 18 7 6 14 25 31 36 34 33 32 32 30 28 27 28 31 36 38 30 26 22 21 25 26 25 26 28 30 38 34 37 46 43 44 42 42 41 47 47 43 41 36
13 9 9 6 4 4 6 10 8 2 8 12 18 22 26 31 34 31 31 32 29 29 32 36 34 28 25 20 22 25 23 25 25 31 23 36 37 39 46 44 46 44 42 42 46 47 44 42 39
4 4 4 4 5 4 4 5 4 12 8 10 15 18 24 28 32 31 31 27 26 29 33 35 32 28 23 19 18 17 19 19 22 19 25 30 29 29 47 43 35 38 40 40 43 48 46 44 41
5 2 3 3 4 5 9 9 3 5 9 22 18 22 18 20 23 23 22 18 22 28 32 34 30 26 22 17 19 18 14 14 13 18 24 37 27 30 34 33 30 34 36 35 38 45 47 44 39
4 3 2 2 4 5 4 9 12 15 8 12 15 21 21 20 14 13 16 22 26 29 32 34 31 27 20 19 20 18 15 14 12 16 26 27 29 32 33 28 29 29 30 32 34 39 42 44 40
9 5 3 3 3 2 3 7 2 3 5 9 16 19 21 20 16 12 15 20 23 26 32 36 33 26 20 20 20 19 16 14 13 12 21 25 32 35 34 30 27 30 34 36 35 28 35 40 34
5 4 0 2 4 4 4 5 5 6 9 12 15 23 30 29 21 14 20 21 23 26 31 35 32 26 20 21 21 19 17 15 14 12 12 28 24 34 40 32 34 33 33 31 44 39 34 38 40
2 4 3 2 2 3 4 6 6 7 13 16 19 21 27 33 29 13 17 22 23 23 28 32 29 24 21 22 21 19 17 15 14 13 13 18 26 29 37 34 37 37 34 30 38 45 41 41 45
4 2 2 1 2 2 2 2 2 8 13 13 16 23 25 31 20 6 10 16 19 23 28 31 28 23 20 20 20 18 16 14 11 12 13 12 17 22 30 32 35 36 33 33 32 40 47 41 45
2 4 4 2 2 2 4 6 4 12 14 12 16 19 22 28 17 6 7 15 19 24 28 30 27 22 19 19 18 16 13 14 13 12 12 12 13 15 18 21 26 27 31 31 29 29 46 45 41

GFSSGP_850_spd_090.txt.gz
Wind_Speed
15 9 7 4 7 7 14 7 2 7 5 3 2 9 8 7 6 2 4 12 14 18 15 11 9 8 6 9 12 13 15 16 18 22 23 23 22 22 21 21 21 21 18 19 21 20 18 17 17
14 12 7 5 8 13 12 9 10 6 1 4 7 9 8 11 6 2 9 17 19 19 15 12 10 10 8 11 13 14 15 16 17 24 24 25 24 24 23 22 21 20 19 21 21 20 18 16 15
15 12 10 5 12 17 14 7 9 9 2 4 6 6 6 4 5 4 7 20 23 20 16 13 11 12 10 12 14 16 17 17 20 24 25 26 26 25 25 23 22 20 21 21 20 18 16 16 18
12 9 7 11 19 14 19 4 8 8 3 3 1 6 5 6 2 5 11 23 23 20 17 14 11 12 11 12 15 17 18 18 21 24 25 26 27 26 25 24 22 21 21 20 19 17 15 18 20
13 10 12 17 22 19 8 8 9 8 3 3 5 8 8 4 7 8 15 24 22 20 17 15 13 12 12 12 16 18 19 20 22 24 26 27 27 27 26 24 22 20 18 18 18 17 16 20 19
14 10 13 19 21 16 18 15 14 14 12 10 9 8 8 7 6 8 18 24 23 20 18 16 15 13 12 14 17 20 20 21 22 24 26 27 27 25 26 24 24 22 19 18 18 18 18 20 19
18 12 20 22 18 14 17 16 16 18 19 18 6 7 3 3 3 11 18 23 25 23 21 18 16 14 13 14 18 20 21 22 23 24 24 23 24 27 28 26 24 23 20 19 18 20 20 20 21
19 11 23 20 15 18 18 11 12 14 16 2 8 7 6 5 5 6 16 20 26 26 24 21 19 16 15 15 18 21 22 24 23 23 25 26 26 29 28 28 26 23 21 19 19 21 21 21 22
15 11 17 20 16 14 8 9 15 9 14 10 9 9 4 7 7 3 12 21 25 28 27 25 22 20 17 17 18 19 22 24 25 25 26 29 28 28 29 28 26 21 18 19 20 23 22 23 22
16 15 24 17 12 14 16 12 14 10 15 15 15 17 15 10 8 8 12 20 25 28 30 28 25 22 20 18 19 20 20 24 25 27 30 28 29 32 33 33 32 19 16 22 20 24 23 23 24
16 24 16 12 19 22 20 20 19 18 18 19 22 21 15 12 14 14 14 20 26 24 31 31 28 24 22 21 20 21 22 23 25 27 27 31 34 33 35 32 28 22 26 34 28 26 25 25 24
15 18 21 18 20 20 19 24 25 24 24 21 23 21 19 20 19 19 18 18 23 25 29 33 30 27 26 23 22 22 25 27 29 29 30 33 35 36 36 32 25 24 33 35 32 32 28 24 22
19 20 18 20 21 23 22 25 26 28 18 22 23 22 23 23 22 22 21 20 20 27 27 33 32 31 28 27 24 24 24 28 28 30 31 32 35 39 36 31 24 23 28 30 30 29 30 26 23
11 14 19 15 19 21 19 24 28 22 20 24 24 26 25 23 22 23 21 22 22 25 27 28 35 34 30 29 27 26 26 26 29 30 33 32 36 37 40 38 28 30 31 32 30 32 28 25 20
14 16 17 18 20 19 17 23 27 29 24 23 25 24 25 26 24 26 24 23 22 23 24 29 35 35 32 30 29 28 27 27 29 31 30 39 34 40 39 39 30 32 32 34 34 31 29 23 21
10 14 14 10 11 12 13 21 9 5 7 8 12 15 17 20 21 23 24 22 20 21 24 28 32 37 34 32 31 30 29 29 30 31 31 34 40 45 40 40 29 35 33 36 35 30 29 24 21
14 16 14 11 11 7 12 11 2 6 12 14 16 19 20 18 19 20 21 20 18 19 22 27 31 35 37 34 32 31 30 30 31 31 33 35 36 40 39 39 34 34 35 36 35 32 29 23 22
15 19 12 14 6 10 17 20 18 21 24 24 26 26 26 26 25 23 21 20 17 18 20 24 27 33 37 36 33 31 32 30 29 32 33 33 35 35 40 40 39 38 37 39 36 34 28 24 23
12 14 15 9 8 17 21 21 19 17 25 23 27 29 31 32 28 27 24 21 19 21 21 23 27 32 38 39 36 32 31 28 29 31 34 32 33 34 35 40 41 37 39 42 39 34 29 26 26
20 21 20 17 13 14 19 21 21 23 20 30 30 30 30 30 30 30 29 24 20 20 22 24 27 32 38 32 26 25 28 25 23 26 26 29 29 33 34 38 37 41 38 47 43 37 32 29 29
18 18 14 15 14 19 21 22 14 4 11 15 17 19 23 28 28 29 29 27 21 23 24 24 27 30 34 28 24 22 21 22 23 26 27 30 29 30 34 42 33 34 47 51 47 38 33 34 30
17 14 14 14 10 7 1 6 11 6 5 7 4 11 16 22 24 26 27 28 24 22 21 23 26 27 29 31 23 22 19 22 27 25 27 29 33 33 38 38 34 38 38 42 43 38 38 35 32
13 5 10 9 10 12 16 8 5 7 9 6 11 14 16 16 14 21 24 26 23 21 22 24 26 27 26 29 21 20 18 16 16 22 27 30 30 33 37 38 42 39 44 39 40 37 40 35 32
5 7 8 8 8 10 17 13 4 2 8 11 12 16 16 16 13 12 19 20 21 21 24 26 28 27 25 24 22 18 17 16 14 23 23 22 26 34 39 39 40 41 43 41 41 42 43 36 33
14 11 5 7 5 6 4 8 9 8 4 8 12 18 19 19 15 12 8 14 18 22 25 30 29 28 26 24 20 20 15 14 13 13 18 20 27 35 37 45 49 44 47 43 39 40 43 43 36
16 13 6 8 6 3 8 6 4 3 1 7 14 19 22 25 16 12 8 10 17 19 23 31 31 27 25 23 19 18 15 11 13 12 15 20 26 28 30 37 44 44 42 36 36 36 38 44 43
9 9 5 4 5 5 7 8 7 4 5 10 15 21 24 26 21 15 7 11 15 16 23 29 29 24 22 20 20 18 16 13 12 11 16 24 26 28 27 27 26 27 27 28 29 28 29 36 38
7 9 4 5 5 6 5 8 3 6 11 15 17 20 25 26 23 17 6 11 13 15 22 28 29 22 21 19 20 18 16 14 13 11 12 20 24 25 27 27 22 20 22 23 25 28 33 35 35
7 7 5 2 3 3 2 3 7 8 12 15 16 20 23 23 22 17 9 5 12 15 20 27 28 23 22 21 20 18 17 14 13 13 11 16 19 26 34 29 32 32 30 31 31 28 32 41 36
6 7 9 5 5 1 3 5 6 7 14 15 16 18 18 19 19 13 6 3 9 15 18 26 28 23 20 22 21 19 17 14 13 14 12 13 16 20 30 38 40 34 32 37 33 32 31 39 41

GFSSGP_850_spd_096.txt.gz
Wind_Speed
12 9 5 9 7 8 17 19 21 23 3 3 5 8 10 13 13 4 16 12 14 15 16 17 14 11 9 6 6 8 8 9 10 11 12 11 11 11 10 10 11 12 12 12 14 14 13 12 11
12 9 9 10 9 13 15 21 22 21 7 12 6 7 9 9 11 15 14 15 15 15 18 18 13 11 7 5 6 8 9 10 11 12 13 13 13 12 12 12 13 13 12 11 13 14 15 14 11
12 12 12 6 13 19 17 22 20 8 11 6 3 8 10 7 8 11 16 18 15 18 21 16 13 11 9 6 6 8 10 11 11 12 14 14 14 15 14 14 14 14 13 12 14 15 14 13 12
11 7 12 12 23 21 26 21 26 14 9 3 7 9 6 4 6 5 14 20 17 15 20 17 14 11 10 7 6 8 9 11 11 12 14 14 16 17 16 16 16 15 14 14 16 15 14 13 11
16 12 11 17 25 26 24 29 25 7 16 7 11 9 11 10 10 9 11 17 19 17 18 18 15 13 11 8 6 7 9 11 12 12 13 15 16 17 16 17 17 16 15 17 17 14 14 12 11
14 18 15 18 25 25 21 27 29 16 14 11 8 9 12 10 10 13 11 16 19 19 19 19 17 14 12 10 9 8 9 11 12 12 13 15 16 16 17 19 19 19 18 18 17 14 13 13 14
18 13 20 24 24 25 23 27 21 16 16 22 14 13 15 9 14 15 11 16 18 19 22 20 19 16 15 13 11 10 9 10 12 13 12 14 15 17 18 19 19 18 18 19 18 16 14 13 17
26 14 26 23 20 27 23 30 17 13 16 20 25 16 14 12 6 10 15 16 21 21 24 20 21 19 17 15 13 12 12 11 13 13 13 12 15 18 19 19 20 19 20 19 16 14 13 13 16
24 15 20 27 26 24 29 21 23 13 20 16 20 26 8 7 6 6 14 19 21 22 24 25 21 21 19 17 14 13 14 14 15 16 16 16 16 18 19 20 21 20 19 16 17 13 10 12 15
21 17 29 23 23 22 25 24 23 14 21 18 21 17 19 10 10 10 15 20 21 23 23 26 23 23 20 18 16 15 15 16 18 19 19 18 20 21 22 22 22 24 23 24 21 19 11 10 15
28 27 23 26 27 30 26 26 26 19 23 15 19 27 22 26 18 15 17 19 23 27 25 27 24 25 22 18 18 15 16 18 20 21 21 22 21 22 20 24 27 25 26 28 26 19 12 15 18
25 31 32 31 32 30 24 33 23 28 22 28 25 21 18 25 29 22 22 22 21 28 30 26 27 26 26 23 22 16 14 12 16 20 20 19 22 21 23 28 28 31 31 29 29 17 13 18 22
26 25 33 32 32 31 33 26 25 29 30 31 30 29 27 28 25 27 25 25 25 24 33 33 29 27 27 27 24 20 16 16 15 17 21 23 21 25 24 27 29 32 33 30 31 28 23 18 25
24 29 27 31 30 31 25 27 28 30 32 33 34 35 32 28 32 30 27 30 30 28 25 38 32 31 30 30 30 27 26 22 17 17 21 23 25 25 25 27 28 29 32 32 31 24 25 23 31
27 23 22 24 25 24 24 27 29 28 32 38 40 38 38 36 31 33 32 31 34 33 28 31 35 33 30 31 32 30 29 30 28 24 21 22 25 26 24 27 30 29 27 30 29 23 23 29 28
22 19 19 22 23 26 26 32 25 30 36 37 39 39 36 33 34 34 35 37 36 35 33 29 31 33 30 30 34 31 29 28 28 29 24 22 24 27 27 27 29 30 30 30 26 22 21 26 31
20 20 25 27 22 23 21 29 23 32 30 37 30 22 35 37 36 37 38 37 36 35 35 33 31 32 34 30 35 33 31 30 28 27 28 27 26 27 29 30 29 28 26 28 27 20 21 43 36
21 23 24 25 21 22 20 23 19 30 27 19 15 17 20 20 21 25 30 32 33 35 36 34 34 32 33 30 31 32 30 31 29 28 27 27 28 27 30 30 28 29 32 28 28 20 24 36 36
24 26 25 23 18 19 18 21 23 17 22 22 23 21 25 27 28 28 26 24 27 28 31 35 35 34 34 36 35 37 36 34 32 32 29 27 26 24 28 30 29 30 30 34 30 24 30 33 33
27 27 27 22 21 17 20 25 18 18 21 28 30 27 24 28 29 32 31 30 27 26 28 27 30 32 31 36 35 38 36 34 32 34 30 30 29 27 29 31 30 28 28 42 31 28 35 36 34
26 26 21 20 19 18 21 24 22 27 28 30 33 26 27 27 23 18 18 23 31 32 30 29 26 24 27 36 30 32 29 27 30 35 33 30 30 30 30 30 32 32 34 27 28 29 30 42 39
25 23 18 19 16 16 18 15 22 17 14 23 28 33 22 6 8 12 15 19 24 30 35 32 26 25 29 37 31 30 32 34 35 32 29 29 27 27 28 30 31 31 33 32 34 30 30 42 41
19 22 16 18 18 17 20 12 17 17 18 11 9 6 1 5 7 11 14 19 24 24 32 34 30 28 33 37 30 28 33 34 27 27 28 25 25 25 26 31 30 32 35 34 33 39 36 46 43
12 16 15 17 13 15 19 17 14 15 14 13 11 5 8 11 12 11 13 13 19 23 25 33 32 29 35 35 29 29 36 30 19 19 20 22 22 25 27 28 28 31 34 36 34 34 38 49 45
13 10 8 7 10 13 18 16 12 13 6 10 8 11 15 16 15 25 14 14 14 21 28 33 32 27 30 30 29 27 29 21 20 20 18 20 22 23 27 28 31 33 39 37 36 37 37 49 47
23 18 7 7 7 13 19 9 10 11 16 10 14 14 18 21 22 26 20 22 13 17 25 26 24 26 26 23 29 30 25 23 24 24 20 25 24 24 25 25 32 31 37 32 35 31 41 49 47
17 23 20 12 14 6 6 11 17 18 6 12 11 18 21 21 19 21 22 27 11 11 20 23 20 22 26 26 26 27 22 22 23 22 24 23 19 19 22 25 26 36 36 37 31 34 44 46 45
12 12 13 7 4 4 2 5 7 9 10 9 10 14 21 20 18 21 23 28 17 10 8 12 17 20 26 27 25 24 22 20 19 22 19 18 18 18 19 21 26 36 37 31 33 33 41 48 40
11 4 4 7 10 2 2 4 10 13 8 9 12 19 22 18 19 21 22 21 18 2 3 10 21 9 25 26 23 21 18 20 18 16 15 14 14 13 13 14 20 33 33 41 38 38 48 45 38
19 14 17 4 5 7 2 3 6 11 9 16 17 23 21 20 21 22 22 19 16 13 8 6 10 11 17 22 21 16 19 17 13 15 10 10 9 7 9 11 16 30 36 36 34 42 38 40 39

GFSSGP_850_spd_102.txt.gz
Wind_Speed
7 7 7 3 3 5 3 8 4 12 8 4 16 6 3 2 4 4 29 22 23 21 24 23 20 19 17 14 13 15 16 16 16 16 15 14 13 12 11 12 13 14 14 14 15 15 13 11 10
5 8 6 3 4 2 6 6 16 12 19 22 24 6 2 1 8 18 30 26 21 21 23 23 22 19 16 13 12 12 14 15 16 17 16 14 13 12 11 12 13 14 14 14 15 13 12 10 9
7 10 2 4 4 7 7 8 19 5 18 21 12 5 1 6 8 30 25 30 24 24 23 24 21 18 15 13 11 11 13 14 16 17 17 15 14 13 12 12 13 14 14 14 13 13 12 12 12
10 7 4 2 9 9 5 6 2 10 25 22 12 5 1 9 22 26 29 24 24 24 25 24 21 18 16 14 12 11 13 14 16 17 17 16 15 14 13 13 13 14 13 13 13 13 14 13 13
13 5 3 4 8 7 4 14 22 9 13 19 23 6 3 21 19 25 26 23 24 27 28 25 21 18 16 14 12 11 13 14 16 17 18 17 16 15 14 14 14 14 13 12 13 14 15 14 14
4 2 2 8 12 5 5 23 17 12 22 26 11 9 9 18 21 26 27 26 28 30 29 26 23 20 17 15 12 11 12 14 15 17 18 18 17 16 15 15 15 15 14 13 14 15 16 15 15
5 3 5 3 3 5 7 11 6 13 8 16 18 8 12 27 23 27 26 24 28 29 28 26 24 22 19 17 14 13 12 14 15 16 17 18 18 17 16 15 16 16 14 15 17 16 17 15 16
7 3 2 4 4 8 11 22 12 15 13 22 8 4 6 29 29 28 29 27 28 29 27 26 25 23 22 20 18 15 14 14 15 16 18 19 19 19 18 16 17 16 15 16 16 17 17 17 17
11 2 7 7 9 6 18 15 32 15 15 23 21 7 7 24 31 33 32 32 28 27 26 26 26 25 24 22 20 18 16 16 15 17 19 20 20 20 20 18 18 17 17 17 19 20 21 21 19
7 6 8 7 6 12 16 20 27 13 17 17 19 20 16 27 33 35 34 35 34 31 27 26 26 26 26 26 24 21 19 18 19 18 19 20 21 21 21 20 19 18 19 19 21 21 21 23 23
5 13 9 11 20 22 14 18 24 20 11 9 12 18 12 16 26 30 32 32 32 30 30 27 28 26 28 29 27 25 23 21 21 19 19 21 21 22 22 22 22 22 23 22 23 24 25 25 24
9 20 15 16 27 24 16 29 22 24 22 23 25 24 17 14 19 27 29 31 32 32 30 28 29 28 28 31 30 29 27 24 22 22 20 22 22 23 24 24 24 26 26 25 27 26 27 24 23
9 14 23 29 31 34 36 27 24 34 34 25 21 26 28 27 24 19 29 31 32 35 32 27 28 25 27 31 34 32 30 28 24 23 21 22 23 24 24 24 25 26 26 27 28 25 26 25 24
13 16 18 22 25 29 17 21 19 30 31 31 26 30 34 38 36 30 26 24 36 35 32 27 29 27 29 28 34 35 32 29 27 25 24 23 23 23 24 25 25 26 26 27 28 26 23 30 24
15 12 15 17 13 10 7 17 19 22 22 31 33 33 35 39 36 40 36 33 26 38 35 32 31 30 30 32 31 36 35 31 29 27 26 25 25 25 24 24 25 25 25 27 28 27 26 30 27
7 6 5 3 3 7 10 22 25 23 22 28 32 39 43 44 40 42 41 40 39 33 38 37 34 33 31 33 35 35 35 33 32 29 27 26 27 26 25 24 25 25 26 28 30 31 31 31 31
2 13 11 23 2 6 8 14 19 21 24 27 31 39 40 45 45 42 40 39 39 42 39 39 34 33 33 35 37 39 35 35 34 30 28 28 28 28 27 25 26 25 27 28 33 34 33 32 33
1 6 7 14 12 8 18 20 21 33 25 27 32 39 39 37 39 32 36 37 44 40 39 42 41 38 37 38 38 41 38 36 34 33 31 30 29 29 29 28 27 27 28 28 32 33 34 34 32
13 16 19 24 25 19 21 24 20 25 19 19 27 31 36 36 36 37 30 26 21 31 44 41 44 43 42 42 40 40 40 41 38 36 35 32 32 32 32 30 29 29 30 30 31 29 32 33 33
15 18 23 21 22 20 22 25 23 14 13 23 22 27 31 32 33 35 30 27 26 24 26 45 48 44 47 46 42 44 45 45 42 39 36 35 35 34 32 32 31 30 32 31 29 31 30 32 31
13 19 20 22 24 22 16 22 18 18 10 23 29 29 33 35 36 39 38 35 30 30 29 29 35 48 48 46 45 47 45 40 41 36 37 40 36 34 35 35 34 33 32 32 31 31 32 33 34
16 13 13 18 18 16 6 18 22 10 14 17 24 27 35 36 38 32 31 32 18 10 18 32 32 41 44 48 47 50 46 44 42 38 36 38 38 36 37 34 34 34 33 33 33 34 33 36 38
20 10 15 19 19 8 20 12 18 8 16 14 11 21 30 15 12 8 7 6 5 7 7 12 26 39 37 42 48 51 47 40 38 37 36 37 35 33 36 36 37 36 35 35 35 32 35 36 40
11 12 15 14 2 8 15 15 25 15 16 16 6 24 27 19 20 17 13 4 2 7 5 7 14 28 40 38 46 47 40 38 35 33 34 35 34 36 36 36 36 38 36 37 36 34 39 36 43
2 4 7 4 5 12 12 12 15 13 17 12 12 26 24 18 31 29 22 19 15 7 7 10 14 27 40 44 42 43 39 34 31 29 28 30 34 36 38 37 37 37 38 37 36 38 39 35 39
11 5 5 8 4 5 9 5 2 12 16 22 19 18 28 29 33 34 30 25 22 19 14 4 18 26 38 36 39 40 34 31 27 24 22 24 23 24 28 31 32 34 36 34 35 39 41 41 49
2 9 15 10 8 7 5 5 5 12 19 19 24 25 25 26 34 35 30 30 24 23 21 19 7 20 33 33 38 36 29 27 23 21 18 19 20 22 21 21 27 30 32 34 34 39 42 45 44
10 5 3 1 4 7 7 2 3 13 15 13 17 23 23 26 38 29 30 29 25 24 21 14 14 8 27 31 28 24 23 21 21 23 22 21 21 22 22 22 22 25 30 32 37 41 39 44 46
3 1 4 3 3 4 3 3 5 6 14 14 17 23 25 28 29 32 30 29 26 23 19 19 14 7 10 19 20 20 22 20 22 24 20 19 20 21 20 23 26 25 28 31 34 39 44 41 46
13 6 4 3 4 6 2 4 6 14 15 16 20 26 22 22 30 36 34 30 28 25 22 19 14 7 3 10 18 20 23 21 22 20 17 17 16 21 25 25 23 25 28 32 35 35 47 44 45

GFSSGP_850_spd_105.txt.gz
Wind_Speed
8 6 5 2 2 5 4 8 2 4 5 4 14 8 10 8 3 5 8 32 29 31 32 31 28 25 21 20 19 18 19 18 18 17 16 15 14 13 13 13 12 13 14 14 13 13 11 10 10
5 7 6 2 4 1 6 6 10 9 9 19 20 14 5 6 4 4 27 25 25 29 30 29 26 23 21 20 19 18 18 18 18 18 16 15 14 14 13 13 13 13 14 14 14 13 11 10 10
5 9 5 4 4 5 6 5 8 7 10 13 10 13 9 4 7 24 25 27 29 30 29 26 24 23 21 20 18 16 16 17 18 19 17 16 15 14 13 13 14 14 13 13 13 12 11 11 10
8 5 2 3 7 7 7 5 3 9 13 7 14 11 15 11 5 25 27 29 29 30 27 25 24 23 21 19 18 17 16 17 18 19 19 17 16 15 14 13 13 13 13 13 13 13 12 12 11
12 4 1 2 6 6 4 11 5 3 8 18 26 10 14 20 16 23 28 28 29 30 29 28 25 23 21 19 18 17 16 17 18 19 19 18 17 16 15 14 14 14 13 13 13 13 14 13 13
4 2 2 6 6 4 6 15 10 5 13 18 13 13 17 16 19 25 32 31 31 30 30 29 27 24 22 20 19 17 17 16 18 20 20 19 18 17 16 16 15 14 13 13 14 15 15 15 14
4 3 4 3 3 4 6 1 4 5 6 11 21 6 9 14 24 26 33 30 33 32 32 31 29 26 23 20 18 17 17 16 18 20 20 20 19 18 17 16 15 14 14 14 15 16 16 16 15
3 3 2 4 5 7 7 5 6 7 14 13 17 6 11 17 23 32 30 29 30 32 32 32 29 27 24 22 19 17 16 17 17 20 20 20 20 19 19 17 16 15 15 15 15 16 17 16 16
4 2 3 4 5 4 9 5 20 14 13 13 17 20 22 12 21 31 30 29 32 34 34 32 31 29 26 23 20 18 17 17 17 20 21 21 22 22 21 19 18 18 16 17 18 18 19 18 18
6 4 8 6 4 4 8 9 23 8 12 11 24 20 18 12 18 28 32 31 33 35 35 33 31 30 28 26 23 21 19 20 20 21 23 23 23 23 22 21 20 19 19 19 19 20 21 21 20
4 7 5 5 16 18 6 15 22 12 15 14 23 23 27 21 7 23 27 31 31 33 34 33 31 29 28 27 26 25 23 21 21 22 23 24 24 25 24 24 24 23 23 22 22 22 22 24 22
5 11 11 8 19 20 11 22 18 23 20 24 28 30 24 29 23 12 25 30 33 32 30 31 30 29 28 28 28 28 27 25 24 24 25 25 27 27 27 27 27 26 26 25 24 26 26 26 24
5 7 19 24 28 28 28 21 23 27 37 37 32 31 31 25 24 26 23 18 33 35 36 32 33 31 30 29 28 30 30 29 27 26 26 26 28 28 27 29 29 28 27 27 26 26 23 28 28
9 14 16 14 18 17 13 21 19 16 29 33 30 25 28 30 29 29 31 32 25 32 41 39 37 35 33 29 28 30 33 32 31 29 28 27 27 28 28 28 29 29 28 27 27 26 26 28 28
10 10 15 13 5 6 12 22 14 19 24 25 29 30 31 31 30 33 32 34 36 32 30 45 41 39 37 30 28 27 30 35 34 32 29 29 30 29 29 28 29 29 28 27 27 27 25 25 26
7 5 6 4 8 6 0 17 8 16 22 28 32 36 39 44 41 41 37 35 33 36 35 33 46 48 44 37 32 30 27 32 35 34 33 32 32 31 31 30 29 28 28 28 29 29 29 26 28
4 8 10 7 6 4 3 15 10 26 29 31 33 33 37 42 40 38 36 40 36 35 38 40 39 46 50 44 39 33 30 28 33 35 34 33 33 33 33 32 30 28 29 29 29 29 29 28 30
3 5 7 9 5 14 17 17 27 33 28 31 33 36 37 42 47 46 43 34 33 28 33 40 43 43 49 49 42 37 34 31 31 34 34 34 33 34 33 33 31 29 29 29 30 29 29 31 31
5 9 17 17 14 14 14 20 20 31 32 29 27 32 37 41 40 39 35 37 35 33 31 34 42 42 46 51 46 44 42 35 34 33 34 35 34 33 34 33 32 31 31 29 29 29 28 32 33
9 12 14 17 10 10 19 24 23 20 21 33 34 33 35 38 36 37 36 35 32 31 29 29 32 36 43 50 46 44 42 38 35 37 37 34 36 35 35 35 35 32 31 30 28 30 28 31 34
7 6 7 11 17 13 15 21 19 17 20 26 38 31 25 20 30 35 35 35 36 35 36 31 27 30 39 47 48 46 42 41 42 41 38 35 37 36 36 35 33 34 33 32 31 31 31 30 32
16 5 10 13 9 15 1 22 18 19 22 19 29 5 15 19 20 14 17 25 27 30 33 30 29 29 33 42 48 49 46 43 45 43 40 37 36 36 38 38 37 36 34 35 34 32 31 31 31
18 8 8 8 13 16 20 13 23 15 19 18 1 10 14 17 21 23 13 7 9 16 19 20 26 28 32 36 45 47 47 46 46 47 43 41 40 39 37 40 39 37 37 37 35 32 33 33 34
9 8 14 10 9 14 21 10 26 9 14 9 7 14 14 17 22 26 18 11 3 3 11 16 19 24 30 31 37 44 43 47 48 47 46 42 43 39 37 41 39 38 37 37 36 34 34 35 36
2 3 3 3 6 14 11 10 18 14 9 10 10 11 16 22 23 28 28 21 18 10 5 11 13 17 26 31 33 39 42 45 46 45 43 40 41 41 40 38 39 38 37 37 35 36 37 38 38
11 6 4 7 5 6 5 5 4 13 16 21 20 19 21 22 23 27 27 23 22 20 12 6 12 16 18 27 32 37 38 33 36 38 35 31 35 34 41 36 36 35 36 37 36 37 38 39 37
3 5 8 9 13 8 5 10 1 17 15 19 24 27 27 30 20 29 25 24 25 24 24 14 4 12 20 22 28 34 34 34 33 30 28 26 24 23 27 33 34 34 34 33 32 34 37 38 40
12 6 1 4 3 4 4 6 9 14 17 16 16 18 24 24 30 29 29 26 25 25 21 20 12 3 17 21 27 31 26 24 25 25 26 24 19 19 23 22 24 25 28 30 29 34 36 38 39
2 5 7 4 3 2 1 4 4 8 12 15 15 23 24 28 33 29 25 29 28 24 22 21 17 10 9 18 19 22 19 22 24 24 22 21 20 22 22 22 22 23 21 24 29 32 33 38 40
11 8 6 3 4 4 1 3 5 8 13 17 21 24 24 28 32 30 36 32 29 27 24 23 21 14 6 12 18 17 18 20 21 21 20 19 19 18 21 21 22 22 24 25 28 32 39 41 39